<?xml version="1.0" encoding="UTF-8" standalone="no" ?>
<gpx xmlns="http://www.topografix.com/GPX/1/1" xmlns:xsi="http://www.w3.org/2001/XMLSchema-instance" xsi:schemaLocation="http://www.topografix.com/GPX/1/1 http://www.topografix.com/GPX/1/1/gpx.xsd" version="1.1" creator="VisuGPX - https://www.visugpx.com">
  <metadata>
    <name>saint-loup</name>
  </metadata>
  <trk>
    <name><![CDATA[saint-loup_1]]></name>
    <extensions>
      <line xmlns="http://www.topografix.com/GPX/gpx_style/0/2">
        <color>FF0000</color>
        <width>4</width>
      </line>
    </extensions>
    <trkseg>
      <trkpt lat="45.88887" lon="4.51743">
        <ele>356.79998779297</ele>
        <time>2020-03-14T14:39:45.000Z</time>
      </trkpt>
      <trkpt lat="45.8889" lon="4.51744">
        <ele>356.79998779297</ele>
        <time>2020-03-14T14:39:46.000Z</time>
      </trkpt>
      <trkpt lat="45.88898" lon="4.51751">
        <ele>356.79998779297</ele>
        <time>2020-03-14T14:39:49.000Z</time>
      </trkpt>
      <trkpt lat="45.88908" lon="4.51757">
        <ele>356.79998779297</ele>
        <time>2020-03-14T14:39:52.000Z</time>
      </trkpt>
      <trkpt lat="45.88917" lon="4.5176">
        <ele>356.79998779297</ele>
        <time>2020-03-14T14:39:54.000Z</time>
      </trkpt>
      <trkpt lat="45.88927" lon="4.51766">
        <ele>356.39999389648</ele>
        <time>2020-03-14T14:39:57.000Z</time>
      </trkpt>
      <trkpt lat="45.88938" lon="4.5177">
        <ele>356.20001220703</ele>
        <time>2020-03-14T14:40:00.000Z</time>
      </trkpt>
      <trkpt lat="45.88947" lon="4.51775">
        <ele>356.20001220703</ele>
        <time>2020-03-14T14:40:03.000Z</time>
      </trkpt>
      <trkpt lat="45.88958" lon="4.51783">
        <ele>356.60000610352</ele>
        <time>2020-03-14T14:40:06.000Z</time>
      </trkpt>
      <trkpt lat="45.88969" lon="4.51791">
        <ele>357</ele>
        <time>2020-03-14T14:40:09.000Z</time>
      </trkpt>
      <trkpt lat="45.8898" lon="4.518">
        <ele>357</ele>
        <time>2020-03-14T14:40:12.000Z</time>
      </trkpt>
      <trkpt lat="45.88995" lon="4.51811">
        <ele>357.79998779297</ele>
        <time>2020-03-14T14:40:16.000Z</time>
      </trkpt>
      <trkpt lat="45.89005" lon="4.51819">
        <ele>358.20001220703</ele>
        <time>2020-03-14T14:40:19.000Z</time>
      </trkpt>
      <trkpt lat="45.89017" lon="4.51828">
        <ele>358.39999389648</ele>
        <time>2020-03-14T14:40:22.000Z</time>
      </trkpt>
      <trkpt lat="45.89028" lon="4.51834">
        <ele>358.79998779297</ele>
        <time>2020-03-14T14:40:25.000Z</time>
      </trkpt>
      <trkpt lat="45.8904" lon="4.51838">
        <ele>359</ele>
        <time>2020-03-14T14:40:28.000Z</time>
      </trkpt>
      <trkpt lat="45.89052" lon="4.51841">
        <ele>359.20001220703</ele>
        <time>2020-03-14T14:40:31.000Z</time>
      </trkpt>
      <trkpt lat="45.89064" lon="4.51843">
        <ele>359.39999389648</ele>
        <time>2020-03-14T14:40:34.000Z</time>
      </trkpt>
      <trkpt lat="45.89077" lon="4.51843">
        <ele>359.60000610352</ele>
        <time>2020-03-14T14:40:37.000Z</time>
      </trkpt>
      <trkpt lat="45.8909" lon="4.51842">
        <ele>359.20001220703</ele>
        <time>2020-03-14T14:40:40.000Z</time>
      </trkpt>
      <trkpt lat="45.8911" lon="4.51839">
        <ele>358.39999389648</ele>
        <time>2020-03-14T14:40:44.000Z</time>
      </trkpt>
      <trkpt lat="45.89124" lon="4.51835">
        <ele>357.60000610352</ele>
        <time>2020-03-14T14:40:47.000Z</time>
      </trkpt>
      <trkpt lat="45.89138" lon="4.51832">
        <ele>357.60000610352</ele>
        <time>2020-03-14T14:40:50.000Z</time>
      </trkpt>
      <trkpt lat="45.89152" lon="4.51827">
        <ele>357.20001220703</ele>
        <time>2020-03-14T14:40:53.000Z</time>
      </trkpt>
      <trkpt lat="45.89168" lon="4.5182">
        <ele>356.79998779297</ele>
        <time>2020-03-14T14:40:56.000Z</time>
      </trkpt>
      <trkpt lat="45.89185" lon="4.51809">
        <ele>356.39999389648</ele>
        <time>2020-03-14T14:40:59.000Z</time>
      </trkpt>
      <trkpt lat="45.89203" lon="4.51801">
        <ele>354</ele>
        <time>2020-03-14T14:41:02.000Z</time>
      </trkpt>
      <trkpt lat="45.89217" lon="4.51801">
        <ele>353</ele>
        <time>2020-03-14T14:41:05.000Z</time>
      </trkpt>
      <trkpt lat="45.89226" lon="4.51813">
        <ele>353</ele>
        <time>2020-03-14T14:41:08.000Z</time>
      </trkpt>
      <trkpt lat="45.89239" lon="4.5183">
        <ele>352.20001220703</ele>
        <time>2020-03-14T14:41:11.000Z</time>
      </trkpt>
      <trkpt lat="45.8926" lon="4.51853">
        <ele>350.39999389648</ele>
        <time>2020-03-14T14:41:15.000Z</time>
      </trkpt>
      <trkpt lat="45.89281" lon="4.51865">
        <ele>348.39999389648</ele>
        <time>2020-03-14T14:41:18.000Z</time>
      </trkpt>
      <trkpt lat="45.89302" lon="4.51874">
        <ele>347.20001220703</ele>
        <time>2020-03-14T14:41:21.000Z</time>
      </trkpt>
      <trkpt lat="45.89323" lon="4.51882">
        <ele>346</ele>
        <time>2020-03-14T14:41:24.000Z</time>
      </trkpt>
      <trkpt lat="45.89344" lon="4.5189">
        <ele>345</ele>
        <time>2020-03-14T14:41:27.000Z</time>
      </trkpt>
      <trkpt lat="45.89364" lon="4.51903">
        <ele>343.60000610352</ele>
        <time>2020-03-14T14:41:30.000Z</time>
      </trkpt>
      <trkpt lat="45.89382" lon="4.51924">
        <ele>342.20001220703</ele>
        <time>2020-03-14T14:41:33.000Z</time>
      </trkpt>
      <trkpt lat="45.89396" lon="4.51947">
        <ele>341.60000610352</ele>
        <time>2020-03-14T14:41:36.000Z</time>
      </trkpt>
      <trkpt lat="45.89402" lon="4.51969">
        <ele>341.20001220703</ele>
        <time>2020-03-14T14:41:39.000Z</time>
      </trkpt>
      <trkpt lat="45.89402" lon="4.51987">
        <ele>341.39999389648</ele>
        <time>2020-03-14T14:41:42.000Z</time>
      </trkpt>
      <trkpt lat="45.89407" lon="4.52006">
        <ele>341.20001220703</ele>
        <time>2020-03-14T14:41:46.000Z</time>
      </trkpt>
      <trkpt lat="45.89411" lon="4.52015">
        <ele>340.60000610352</ele>
        <time>2020-03-14T14:41:49.000Z</time>
      </trkpt>
      <trkpt lat="45.89415" lon="4.52021">
        <ele>340.39999389648</ele>
        <time>2020-03-14T14:41:52.000Z</time>
      </trkpt>
      <trkpt lat="45.89418" lon="4.5203">
        <ele>340.79998779297</ele>
        <time>2020-03-14T14:41:55.000Z</time>
      </trkpt>
      <trkpt lat="45.89423" lon="4.52042">
        <ele>341.20001220703</ele>
        <time>2020-03-14T14:41:58.000Z</time>
      </trkpt>
      <trkpt lat="45.89435" lon="4.52057">
        <ele>339.39999389648</ele>
        <time>2020-03-14T14:42:01.000Z</time>
      </trkpt>
      <trkpt lat="45.89449" lon="4.52066">
        <ele>338.39999389648</ele>
        <time>2020-03-14T14:42:04.000Z</time>
      </trkpt>
      <trkpt lat="45.89464" lon="4.52073">
        <ele>338.20001220703</ele>
        <time>2020-03-14T14:42:07.000Z</time>
      </trkpt>
      <trkpt lat="45.8948" lon="4.52081">
        <ele>337.60000610352</ele>
        <time>2020-03-14T14:42:10.000Z</time>
      </trkpt>
      <trkpt lat="45.89503" lon="4.52088">
        <ele>334.79998779297</ele>
        <time>2020-03-14T14:42:14.000Z</time>
      </trkpt>
      <trkpt lat="45.89519" lon="4.52092">
        <ele>333.79998779297</ele>
        <time>2020-03-14T14:42:17.000Z</time>
      </trkpt>
      <trkpt lat="45.89536" lon="4.52095">
        <ele>333.60000610352</ele>
        <time>2020-03-14T14:42:20.000Z</time>
      </trkpt>
      <trkpt lat="45.89552" lon="4.52099">
        <ele>333.79998779297</ele>
        <time>2020-03-14T14:42:23.000Z</time>
      </trkpt>
      <trkpt lat="45.89568" lon="4.52099">
        <ele>333.79998779297</ele>
        <time>2020-03-14T14:42:26.000Z</time>
      </trkpt>
      <trkpt lat="45.89584" lon="4.521">
        <ele>333</ele>
        <time>2020-03-14T14:42:29.000Z</time>
      </trkpt>
      <trkpt lat="45.89599" lon="4.521">
        <ele>329.79998779297</ele>
        <time>2020-03-14T14:42:32.000Z</time>
      </trkpt>
      <trkpt lat="45.8961" lon="4.52102">
        <ele>328.39999389648</ele>
        <time>2020-03-14T14:42:35.000Z</time>
      </trkpt>
      <trkpt lat="45.89615" lon="4.52116">
        <ele>327.79998779297</ele>
        <time>2020-03-14T14:42:38.000Z</time>
      </trkpt>
      <trkpt lat="45.89617" lon="4.52134">
        <ele>327.60000610352</ele>
        <time>2020-03-14T14:42:41.000Z</time>
      </trkpt>
      <trkpt lat="45.89621" lon="4.52162">
        <ele>325</ele>
        <time>2020-03-14T14:42:45.000Z</time>
      </trkpt>
      <trkpt lat="45.89629" lon="4.52182">
        <ele>322.79998779297</ele>
        <time>2020-03-14T14:42:48.000Z</time>
      </trkpt>
      <trkpt lat="45.8964" lon="4.52197">
        <ele>321</ele>
        <time>2020-03-14T14:42:51.000Z</time>
      </trkpt>
      <trkpt lat="45.89657" lon="4.52205">
        <ele>320</ele>
        <time>2020-03-14T14:42:54.000Z</time>
      </trkpt>
      <trkpt lat="45.89676" lon="4.52209">
        <ele>319</ele>
        <time>2020-03-14T14:42:57.000Z</time>
      </trkpt>
      <trkpt lat="45.89692" lon="4.52212">
        <ele>317.20001220703</ele>
        <time>2020-03-14T14:43:00.000Z</time>
      </trkpt>
      <trkpt lat="45.89706" lon="4.5222">
        <ele>316.79998779297</ele>
        <time>2020-03-14T14:43:03.000Z</time>
      </trkpt>
      <trkpt lat="45.89719" lon="4.52229">
        <ele>316.60000610352</ele>
        <time>2020-03-14T14:43:06.000Z</time>
      </trkpt>
      <trkpt lat="45.89732" lon="4.52236">
        <ele>315.79998779297</ele>
        <time>2020-03-14T14:43:09.000Z</time>
      </trkpt>
      <trkpt lat="45.89743" lon="4.5224">
        <ele>315.79998779297</ele>
        <time>2020-03-14T14:43:12.000Z</time>
      </trkpt>
      <trkpt lat="45.89751" lon="4.52238">
        <ele>316.79998779297</ele>
        <time>2020-03-14T14:43:16.000Z</time>
      </trkpt>
      <trkpt lat="45.89753" lon="4.52235">
        <ele>317.39999389648</ele>
        <time>2020-03-14T14:43:19.000Z</time>
      </trkpt>
      <trkpt lat="45.89754" lon="4.52235">
        <ele>317.79998779297</ele>
        <time>2020-03-14T14:43:22.000Z</time>
      </trkpt>
      <trkpt lat="45.89755" lon="4.52235">
        <ele>318</ele>
        <time>2020-03-14T14:43:25.000Z</time>
      </trkpt>
      <trkpt lat="45.89755" lon="4.52233">
        <ele>318</ele>
        <time>2020-03-14T14:43:28.000Z</time>
      </trkpt>
      <trkpt lat="45.89756" lon="4.52231">
        <ele>317.60000610352</ele>
        <time>2020-03-14T14:43:31.000Z</time>
      </trkpt>
      <trkpt lat="45.89756" lon="4.5223">
        <ele>316.60000610352</ele>
        <time>2020-03-14T14:43:34.000Z</time>
      </trkpt>
      <trkpt lat="45.89756" lon="4.5223">
        <ele>316.60000610352</ele>
        <time>2020-03-14T14:43:37.000Z</time>
      </trkpt>
      <trkpt lat="45.89756" lon="4.52231">
        <ele>316.60000610352</ele>
        <time>2020-03-14T14:43:40.000Z</time>
      </trkpt>
      <trkpt lat="45.89756" lon="4.52228">
        <ele>316.60000610352</ele>
        <time>2020-03-14T14:43:43.000Z</time>
      </trkpt>
      <trkpt lat="45.89757" lon="4.52229">
        <ele>316.60000610352</ele>
        <time>2020-03-14T14:43:47.000Z</time>
      </trkpt>
      <trkpt lat="45.89758" lon="4.5223">
        <ele>316.60000610352</ele>
        <time>2020-03-14T14:43:50.000Z</time>
      </trkpt>
      <trkpt lat="45.89758" lon="4.5223">
        <ele>316.60000610352</ele>
        <time>2020-03-14T14:43:53.000Z</time>
      </trkpt>
      <trkpt lat="45.89757" lon="4.52231">
        <ele>316.60000610352</ele>
        <time>2020-03-14T14:43:56.000Z</time>
      </trkpt>
      <trkpt lat="45.89757" lon="4.52231">
        <ele>316.60000610352</ele>
        <time>2020-03-14T14:43:59.000Z</time>
      </trkpt>
      <trkpt lat="45.89757" lon="4.52229">
        <ele>316.60000610352</ele>
        <time>2020-03-14T14:44:02.000Z</time>
      </trkpt>
      <trkpt lat="45.89758" lon="4.52228">
        <ele>316.60000610352</ele>
        <time>2020-03-14T14:44:05.000Z</time>
      </trkpt>
      <trkpt lat="45.89758" lon="4.52226">
        <ele>316.60000610352</ele>
        <time>2020-03-14T14:44:08.000Z</time>
      </trkpt>
      <trkpt lat="45.8976" lon="4.52222">
        <ele>316.60000610352</ele>
        <time>2020-03-14T14:44:11.000Z</time>
      </trkpt>
      <trkpt lat="45.89765" lon="4.52213">
        <ele>316</ele>
        <time>2020-03-14T14:44:15.000Z</time>
      </trkpt>
      <trkpt lat="45.89767" lon="4.52207">
        <ele>315.39999389648</ele>
        <time>2020-03-14T14:44:18.000Z</time>
      </trkpt>
      <trkpt lat="45.89771" lon="4.52197">
        <ele>315.20001220703</ele>
        <time>2020-03-14T14:44:21.000Z</time>
      </trkpt>
      <trkpt lat="45.89776" lon="4.52186">
        <ele>315</ele>
        <time>2020-03-14T14:44:24.000Z</time>
      </trkpt>
      <trkpt lat="45.89782" lon="4.52176">
        <ele>314.60000610352</ele>
        <time>2020-03-14T14:44:27.000Z</time>
      </trkpt>
      <trkpt lat="45.89789" lon="4.52165">
        <ele>314.39999389648</ele>
        <time>2020-03-14T14:44:30.000Z</time>
      </trkpt>
      <trkpt lat="45.89795" lon="4.52154">
        <ele>314</ele>
        <time>2020-03-14T14:44:33.000Z</time>
      </trkpt>
      <trkpt lat="45.89801" lon="4.52144">
        <ele>313.79998779297</ele>
        <time>2020-03-14T14:44:36.000Z</time>
      </trkpt>
      <trkpt lat="45.89807" lon="4.52135">
        <ele>313.39999389648</ele>
        <time>2020-03-14T14:44:39.000Z</time>
      </trkpt>
      <trkpt lat="45.89813" lon="4.52124">
        <ele>313</ele>
        <time>2020-03-14T14:44:42.000Z</time>
      </trkpt>
      <trkpt lat="45.89821" lon="4.52109">
        <ele>313.20001220703</ele>
        <time>2020-03-14T14:44:46.000Z</time>
      </trkpt>
      <trkpt lat="45.89827" lon="4.52098">
        <ele>313.39999389648</ele>
        <time>2020-03-14T14:44:49.000Z</time>
      </trkpt>
      <trkpt lat="45.89832" lon="4.52087">
        <ele>313</ele>
        <time>2020-03-14T14:44:52.000Z</time>
      </trkpt>
      <trkpt lat="45.89838" lon="4.52077">
        <ele>312</ele>
        <time>2020-03-14T14:44:55.000Z</time>
      </trkpt>
      <trkpt lat="45.89843" lon="4.52067">
        <ele>311.79998779297</ele>
        <time>2020-03-14T14:44:58.000Z</time>
      </trkpt>
      <trkpt lat="45.89848" lon="4.52057">
        <ele>311.39999389648</ele>
        <time>2020-03-14T14:45:01.000Z</time>
      </trkpt>
      <trkpt lat="45.89851" lon="4.52048">
        <ele>311</ele>
        <time>2020-03-14T14:45:04.000Z</time>
      </trkpt>
      <trkpt lat="45.89853" lon="4.52038">
        <ele>310.60000610352</ele>
        <time>2020-03-14T14:45:07.000Z</time>
      </trkpt>
      <trkpt lat="45.89855" lon="4.52025">
        <ele>310.60000610352</ele>
        <time>2020-03-14T14:45:10.000Z</time>
      </trkpt>
      <trkpt lat="45.89856" lon="4.52011">
        <ele>309.39999389648</ele>
        <time>2020-03-14T14:45:13.000Z</time>
      </trkpt>
      <trkpt lat="45.8986" lon="4.51987">
        <ele>308.39999389648</ele>
        <time>2020-03-14T14:45:17.000Z</time>
      </trkpt>
      <trkpt lat="45.89863" lon="4.51972">
        <ele>307.60000610352</ele>
        <time>2020-03-14T14:45:20.000Z</time>
      </trkpt>
      <trkpt lat="45.89865" lon="4.5196">
        <ele>307</ele>
        <time>2020-03-14T14:45:23.000Z</time>
      </trkpt>
      <trkpt lat="45.89867" lon="4.51953">
        <ele>306.79998779297</ele>
        <time>2020-03-14T14:45:26.000Z</time>
      </trkpt>
      <trkpt lat="45.89868" lon="4.51945">
        <ele>307</ele>
        <time>2020-03-14T14:45:29.000Z</time>
      </trkpt>
      <trkpt lat="45.89869" lon="4.51937">
        <ele>306.79998779297</ele>
        <time>2020-03-14T14:45:32.000Z</time>
      </trkpt>
      <trkpt lat="45.89871" lon="4.51931">
        <ele>306.20001220703</ele>
        <time>2020-03-14T14:45:35.000Z</time>
      </trkpt>
      <trkpt lat="45.89873" lon="4.51925">
        <ele>306.60000610352</ele>
        <time>2020-03-14T14:45:38.000Z</time>
      </trkpt>
      <trkpt lat="45.89874" lon="4.51917">
        <ele>306.79998779297</ele>
        <time>2020-03-14T14:45:41.000Z</time>
      </trkpt>
      <trkpt lat="45.89876" lon="4.51907">
        <ele>307</ele>
        <time>2020-03-14T14:45:45.000Z</time>
      </trkpt>
      <trkpt lat="45.89877" lon="4.51901">
        <ele>307.39999389648</ele>
        <time>2020-03-14T14:45:48.000Z</time>
      </trkpt>
      <trkpt lat="45.89878" lon="4.51895">
        <ele>307.79998779297</ele>
        <time>2020-03-14T14:45:51.000Z</time>
      </trkpt>
      <trkpt lat="45.8988" lon="4.51885">
        <ele>307.79998779297</ele>
        <time>2020-03-14T14:45:54.000Z</time>
      </trkpt>
      <trkpt lat="45.89882" lon="4.51876">
        <ele>307.79998779297</ele>
        <time>2020-03-14T14:45:57.000Z</time>
      </trkpt>
      <trkpt lat="45.89884" lon="4.51867">
        <ele>307.79998779297</ele>
        <time>2020-03-14T14:46:00.000Z</time>
      </trkpt>
      <trkpt lat="45.89884" lon="4.51856">
        <ele>307.79998779297</ele>
        <time>2020-03-14T14:46:03.000Z</time>
      </trkpt>
      <trkpt lat="45.89885" lon="4.51845">
        <ele>307.60000610352</ele>
        <time>2020-03-14T14:46:06.000Z</time>
      </trkpt>
      <trkpt lat="45.89888" lon="4.51835">
        <ele>307.39999389648</ele>
        <time>2020-03-14T14:46:09.000Z</time>
      </trkpt>
      <trkpt lat="45.8989" lon="4.51827">
        <ele>307.39999389648</ele>
        <time>2020-03-14T14:46:12.000Z</time>
      </trkpt>
      <trkpt lat="45.89891" lon="4.51808">
        <ele>307</ele>
        <time>2020-03-14T14:46:16.000Z</time>
      </trkpt>
      <trkpt lat="45.89891" lon="4.51796">
        <ele>306.79998779297</ele>
        <time>2020-03-14T14:46:19.000Z</time>
      </trkpt>
      <trkpt lat="45.89894" lon="4.51789">
        <ele>307</ele>
        <time>2020-03-14T14:46:22.000Z</time>
      </trkpt>
      <trkpt lat="45.89895" lon="4.51781">
        <ele>307</ele>
        <time>2020-03-14T14:46:25.000Z</time>
      </trkpt>
      <trkpt lat="45.89896" lon="4.51766">
        <ele>307.20001220703</ele>
        <time>2020-03-14T14:46:28.000Z</time>
      </trkpt>
      <trkpt lat="45.89898" lon="4.51755">
        <ele>307</ele>
        <time>2020-03-14T14:46:31.000Z</time>
      </trkpt>
      <trkpt lat="45.89901" lon="4.51743">
        <ele>306.79998779297</ele>
        <time>2020-03-14T14:46:34.000Z</time>
      </trkpt>
      <trkpt lat="45.89903" lon="4.51733">
        <ele>306.60000610352</ele>
        <time>2020-03-14T14:46:37.000Z</time>
      </trkpt>
      <trkpt lat="45.89905" lon="4.51726">
        <ele>306.60000610352</ele>
        <time>2020-03-14T14:46:40.000Z</time>
      </trkpt>
      <trkpt lat="45.89905" lon="4.51718">
        <ele>306.60000610352</ele>
        <time>2020-03-14T14:46:43.000Z</time>
      </trkpt>
      <trkpt lat="45.89905" lon="4.51703">
        <ele>306.79998779297</ele>
        <time>2020-03-14T14:46:47.000Z</time>
      </trkpt>
      <trkpt lat="45.89906" lon="4.51691">
        <ele>307</ele>
        <time>2020-03-14T14:46:50.000Z</time>
      </trkpt>
      <trkpt lat="45.89907" lon="4.51678">
        <ele>307.20001220703</ele>
        <time>2020-03-14T14:46:53.000Z</time>
      </trkpt>
      <trkpt lat="45.89909" lon="4.51669">
        <ele>307.60000610352</ele>
        <time>2020-03-14T14:46:56.000Z</time>
      </trkpt>
      <trkpt lat="45.8991" lon="4.51658">
        <ele>307.39999389648</ele>
        <time>2020-03-14T14:46:59.000Z</time>
      </trkpt>
      <trkpt lat="45.89911" lon="4.5165">
        <ele>307.20001220703</ele>
        <time>2020-03-14T14:47:02.000Z</time>
      </trkpt>
      <trkpt lat="45.89911" lon="4.51643">
        <ele>307</ele>
        <time>2020-03-14T14:47:05.000Z</time>
      </trkpt>
      <trkpt lat="45.89911" lon="4.51636">
        <ele>307.20001220703</ele>
        <time>2020-03-14T14:47:08.000Z</time>
      </trkpt>
      <trkpt lat="45.8991" lon="4.51632">
        <ele>307.20001220703</ele>
        <time>2020-03-14T14:47:11.000Z</time>
      </trkpt>
      <trkpt lat="45.89912" lon="4.51624">
        <ele>307</ele>
        <time>2020-03-14T14:47:15.000Z</time>
      </trkpt>
      <trkpt lat="45.89914" lon="4.51617">
        <ele>307.20001220703</ele>
        <time>2020-03-14T14:47:18.000Z</time>
      </trkpt>
      <trkpt lat="45.89915" lon="4.5161">
        <ele>307.39999389648</ele>
        <time>2020-03-14T14:47:21.000Z</time>
      </trkpt>
      <trkpt lat="45.89916" lon="4.51603">
        <ele>307.39999389648</ele>
        <time>2020-03-14T14:47:24.000Z</time>
      </trkpt>
      <trkpt lat="45.89916" lon="4.51595">
        <ele>307.79998779297</ele>
        <time>2020-03-14T14:47:27.000Z</time>
      </trkpt>
      <trkpt lat="45.89916" lon="4.51585">
        <ele>308.20001220703</ele>
        <time>2020-03-14T14:47:30.000Z</time>
      </trkpt>
      <trkpt lat="45.89917" lon="4.51576">
        <ele>308.20001220703</ele>
        <time>2020-03-14T14:47:33.000Z</time>
      </trkpt>
      <trkpt lat="45.89918" lon="4.51568">
        <ele>308</ele>
        <time>2020-03-14T14:47:36.000Z</time>
      </trkpt>
      <trkpt lat="45.89919" lon="4.51561">
        <ele>307.79998779297</ele>
        <time>2020-03-14T14:47:39.000Z</time>
      </trkpt>
      <trkpt lat="45.8992" lon="4.51557">
        <ele>307.79998779297</ele>
        <time>2020-03-14T14:47:42.000Z</time>
      </trkpt>
      <trkpt lat="45.89923" lon="4.51551">
        <ele>307.60000610352</ele>
        <time>2020-03-14T14:47:46.000Z</time>
      </trkpt>
      <trkpt lat="45.89931" lon="4.51547">
        <ele>307.39999389648</ele>
        <time>2020-03-14T14:47:49.000Z</time>
      </trkpt>
      <trkpt lat="45.8994" lon="4.51547">
        <ele>307.20001220703</ele>
        <time>2020-03-14T14:47:52.000Z</time>
      </trkpt>
      <trkpt lat="45.89949" lon="4.51546">
        <ele>307</ele>
        <time>2020-03-14T14:47:55.000Z</time>
      </trkpt>
      <trkpt lat="45.89958" lon="4.51547">
        <ele>306.39999389648</ele>
        <time>2020-03-14T14:47:58.000Z</time>
      </trkpt>
      <trkpt lat="45.8997" lon="4.51546">
        <ele>306.20001220703</ele>
        <time>2020-03-14T14:48:01.000Z</time>
      </trkpt>
      <trkpt lat="45.89979" lon="4.51544">
        <ele>306.60000610352</ele>
        <time>2020-03-14T14:48:04.000Z</time>
      </trkpt>
      <trkpt lat="45.89988" lon="4.51544">
        <ele>307</ele>
        <time>2020-03-14T14:48:07.000Z</time>
      </trkpt>
      <trkpt lat="45.89997" lon="4.51545">
        <ele>307.20001220703</ele>
        <time>2020-03-14T14:48:10.000Z</time>
      </trkpt>
      <trkpt lat="45.90005" lon="4.51544">
        <ele>308.20001220703</ele>
        <time>2020-03-14T14:48:13.000Z</time>
      </trkpt>
      <trkpt lat="45.9001" lon="4.51532">
        <ele>308.60000610352</ele>
        <time>2020-03-14T14:48:17.000Z</time>
      </trkpt>
      <trkpt lat="45.90014" lon="4.51521">
        <ele>309</ele>
        <time>2020-03-14T14:48:20.000Z</time>
      </trkpt>
      <trkpt lat="45.90016" lon="4.5151">
        <ele>309.39999389648</ele>
        <time>2020-03-14T14:48:23.000Z</time>
      </trkpt>
      <trkpt lat="45.90019" lon="4.51499">
        <ele>310</ele>
        <time>2020-03-14T14:48:26.000Z</time>
      </trkpt>
      <trkpt lat="45.90021" lon="4.51489">
        <ele>310</ele>
        <time>2020-03-14T14:48:29.000Z</time>
      </trkpt>
      <trkpt lat="45.90023" lon="4.51478">
        <ele>310</ele>
        <time>2020-03-14T14:48:32.000Z</time>
      </trkpt>
      <trkpt lat="45.90026" lon="4.51468">
        <ele>310.20001220703</ele>
        <time>2020-03-14T14:48:35.000Z</time>
      </trkpt>
      <trkpt lat="45.90029" lon="4.51456">
        <ele>310.60000610352</ele>
        <time>2020-03-14T14:48:38.000Z</time>
      </trkpt>
      <trkpt lat="45.9003" lon="4.51444">
        <ele>310.79998779297</ele>
        <time>2020-03-14T14:48:41.000Z</time>
      </trkpt>
      <trkpt lat="45.90031" lon="4.51434">
        <ele>311.20001220703</ele>
        <time>2020-03-14T14:48:44.000Z</time>
      </trkpt>
      <trkpt lat="45.90031" lon="4.5142">
        <ele>311.79998779297</ele>
        <time>2020-03-14T14:48:48.000Z</time>
      </trkpt>
      <trkpt lat="45.90031" lon="4.51409">
        <ele>312.20001220703</ele>
        <time>2020-03-14T14:48:51.000Z</time>
      </trkpt>
      <trkpt lat="45.9003" lon="4.51399">
        <ele>313.20001220703</ele>
        <time>2020-03-14T14:48:54.000Z</time>
      </trkpt>
      <trkpt lat="45.90029" lon="4.51389">
        <ele>313.39999389648</ele>
        <time>2020-03-14T14:48:57.000Z</time>
      </trkpt>
      <trkpt lat="45.90029" lon="4.51378">
        <ele>313.20001220703</ele>
        <time>2020-03-14T14:49:00.000Z</time>
      </trkpt>
      <trkpt lat="45.90029" lon="4.51364">
        <ele>312.79998779297</ele>
        <time>2020-03-14T14:49:03.000Z</time>
      </trkpt>
      <trkpt lat="45.90031" lon="4.51351">
        <ele>312.79998779297</ele>
        <time>2020-03-14T14:49:06.000Z</time>
      </trkpt>
      <trkpt lat="45.90032" lon="4.51338">
        <ele>313</ele>
        <time>2020-03-14T14:49:09.000Z</time>
      </trkpt>
      <trkpt lat="45.90033" lon="4.51329">
        <ele>313</ele>
        <time>2020-03-14T14:49:12.000Z</time>
      </trkpt>
      <trkpt lat="45.90034" lon="4.51316">
        <ele>313.39999389648</ele>
        <time>2020-03-14T14:49:16.000Z</time>
      </trkpt>
      <trkpt lat="45.90036" lon="4.51307">
        <ele>313.39999389648</ele>
        <time>2020-03-14T14:49:19.000Z</time>
      </trkpt>
      <trkpt lat="45.90038" lon="4.513">
        <ele>313.60000610352</ele>
        <time>2020-03-14T14:49:22.000Z</time>
      </trkpt>
      <trkpt lat="45.9004" lon="4.51292">
        <ele>314.39999389648</ele>
        <time>2020-03-14T14:49:25.000Z</time>
      </trkpt>
      <trkpt lat="45.90041" lon="4.51288">
        <ele>314.39999389648</ele>
        <time>2020-03-14T14:49:28.000Z</time>
      </trkpt>
      <trkpt lat="45.90042" lon="4.51283">
        <ele>314.39999389648</ele>
        <time>2020-03-14T14:49:31.000Z</time>
      </trkpt>
      <trkpt lat="45.90044" lon="4.51275">
        <ele>314.20001220703</ele>
        <time>2020-03-14T14:49:34.000Z</time>
      </trkpt>
      <trkpt lat="45.90045" lon="4.51265">
        <ele>314.60000610352</ele>
        <time>2020-03-14T14:49:37.000Z</time>
      </trkpt>
      <trkpt lat="45.90047" lon="4.51254">
        <ele>315</ele>
        <time>2020-03-14T14:49:40.000Z</time>
      </trkpt>
      <trkpt lat="45.90049" lon="4.51244">
        <ele>315.39999389648</ele>
        <time>2020-03-14T14:49:43.000Z</time>
      </trkpt>
      <trkpt lat="45.90052" lon="4.51232">
        <ele>315.60000610352</ele>
        <time>2020-03-14T14:49:47.000Z</time>
      </trkpt>
      <trkpt lat="45.90053" lon="4.51223">
        <ele>315.39999389648</ele>
        <time>2020-03-14T14:49:50.000Z</time>
      </trkpt>
      <trkpt lat="45.90054" lon="4.51214">
        <ele>315.79998779297</ele>
        <time>2020-03-14T14:49:53.000Z</time>
      </trkpt>
      <trkpt lat="45.90055" lon="4.51205">
        <ele>316.39999389648</ele>
        <time>2020-03-14T14:49:56.000Z</time>
      </trkpt>
      <trkpt lat="45.90054" lon="4.51196">
        <ele>316.79998779297</ele>
        <time>2020-03-14T14:49:59.000Z</time>
      </trkpt>
      <trkpt lat="45.90054" lon="4.51188">
        <ele>317.20001220703</ele>
        <time>2020-03-14T14:50:02.000Z</time>
      </trkpt>
      <trkpt lat="45.90054" lon="4.51181">
        <ele>318.20001220703</ele>
        <time>2020-03-14T14:50:05.000Z</time>
      </trkpt>
      <trkpt lat="45.90055" lon="4.51174">
        <ele>318.39999389648</ele>
        <time>2020-03-14T14:50:08.000Z</time>
      </trkpt>
      <trkpt lat="45.90056" lon="4.51167">
        <ele>318.39999389648</ele>
        <time>2020-03-14T14:50:11.000Z</time>
      </trkpt>
      <trkpt lat="45.90057" lon="4.51161">
        <ele>319.20001220703</ele>
        <time>2020-03-14T14:50:14.000Z</time>
      </trkpt>
      <trkpt lat="45.90058" lon="4.51153">
        <ele>320</ele>
        <time>2020-03-14T14:50:18.000Z</time>
      </trkpt>
      <trkpt lat="45.90059" lon="4.51147">
        <ele>320.60000610352</ele>
        <time>2020-03-14T14:50:21.000Z</time>
      </trkpt>
      <trkpt lat="45.9006" lon="4.51141">
        <ele>321</ele>
        <time>2020-03-14T14:50:24.000Z</time>
      </trkpt>
      <trkpt lat="45.90062" lon="4.51133">
        <ele>321.20001220703</ele>
        <time>2020-03-14T14:50:27.000Z</time>
      </trkpt>
      <trkpt lat="45.90063" lon="4.51125">
        <ele>321.79998779297</ele>
        <time>2020-03-14T14:50:30.000Z</time>
      </trkpt>
      <trkpt lat="45.90065" lon="4.51117">
        <ele>322</ele>
        <time>2020-03-14T14:50:33.000Z</time>
      </trkpt>
      <trkpt lat="45.90066" lon="4.5111">
        <ele>322</ele>
        <time>2020-03-14T14:50:36.000Z</time>
      </trkpt>
      <trkpt lat="45.90068" lon="4.51102">
        <ele>322.20001220703</ele>
        <time>2020-03-14T14:50:39.000Z</time>
      </trkpt>
      <trkpt lat="45.90069" lon="4.51094">
        <ele>322.20001220703</ele>
        <time>2020-03-14T14:50:42.000Z</time>
      </trkpt>
      <trkpt lat="45.90071" lon="4.51082">
        <ele>322.60000610352</ele>
        <time>2020-03-14T14:50:46.000Z</time>
      </trkpt>
      <trkpt lat="45.90072" lon="4.51074">
        <ele>323</ele>
        <time>2020-03-14T14:50:49.000Z</time>
      </trkpt>
      <trkpt lat="45.90073" lon="4.51065">
        <ele>323.20001220703</ele>
        <time>2020-03-14T14:50:52.000Z</time>
      </trkpt>
      <trkpt lat="45.90075" lon="4.51055">
        <ele>323.39999389648</ele>
        <time>2020-03-14T14:50:55.000Z</time>
      </trkpt>
      <trkpt lat="45.90076" lon="4.51045">
        <ele>324</ele>
        <time>2020-03-14T14:50:58.000Z</time>
      </trkpt>
      <trkpt lat="45.90077" lon="4.51036">
        <ele>324</ele>
        <time>2020-03-14T14:51:01.000Z</time>
      </trkpt>
      <trkpt lat="45.90078" lon="4.51027">
        <ele>324.20001220703</ele>
        <time>2020-03-14T14:51:04.000Z</time>
      </trkpt>
      <trkpt lat="45.90079" lon="4.51016">
        <ele>324.60000610352</ele>
        <time>2020-03-14T14:51:07.000Z</time>
      </trkpt>
      <trkpt lat="45.90081" lon="4.51005">
        <ele>325</ele>
        <time>2020-03-14T14:51:10.000Z</time>
      </trkpt>
      <trkpt lat="45.90082" lon="4.50992">
        <ele>325</ele>
        <time>2020-03-14T14:51:13.000Z</time>
      </trkpt>
      <trkpt lat="45.90084" lon="4.50975">
        <ele>325</ele>
        <time>2020-03-14T14:51:17.000Z</time>
      </trkpt>
      <trkpt lat="45.90086" lon="4.50963">
        <ele>325.20001220703</ele>
        <time>2020-03-14T14:51:20.000Z</time>
      </trkpt>
      <trkpt lat="45.90089" lon="4.50953">
        <ele>325.39999389648</ele>
        <time>2020-03-14T14:51:23.000Z</time>
      </trkpt>
      <trkpt lat="45.90091" lon="4.50944">
        <ele>325.79998779297</ele>
        <time>2020-03-14T14:51:26.000Z</time>
      </trkpt>
      <trkpt lat="45.90094" lon="4.50936">
        <ele>326</ele>
        <time>2020-03-14T14:51:29.000Z</time>
      </trkpt>
      <trkpt lat="45.90097" lon="4.5093">
        <ele>325</ele>
        <time>2020-03-14T14:51:32.000Z</time>
      </trkpt>
      <trkpt lat="45.901" lon="4.50923">
        <ele>324.60000610352</ele>
        <time>2020-03-14T14:51:35.000Z</time>
      </trkpt>
      <trkpt lat="45.90103" lon="4.50915">
        <ele>324.39999389648</ele>
        <time>2020-03-14T14:51:38.000Z</time>
      </trkpt>
      <trkpt lat="45.90105" lon="4.50906">
        <ele>324.39999389648</ele>
        <time>2020-03-14T14:51:41.000Z</time>
      </trkpt>
      <trkpt lat="45.90107" lon="4.50893">
        <ele>324.39999389648</ele>
        <time>2020-03-14T14:51:44.000Z</time>
      </trkpt>
      <trkpt lat="45.90108" lon="4.50881">
        <ele>325.20001220703</ele>
        <time>2020-03-14T14:51:48.000Z</time>
      </trkpt>
      <trkpt lat="45.90109" lon="4.50871">
        <ele>325.60000610352</ele>
        <time>2020-03-14T14:51:51.000Z</time>
      </trkpt>
      <trkpt lat="45.90109" lon="4.50862">
        <ele>325.60000610352</ele>
        <time>2020-03-14T14:51:54.000Z</time>
      </trkpt>
      <trkpt lat="45.90109" lon="4.50856">
        <ele>325.60000610352</ele>
        <time>2020-03-14T14:51:57.000Z</time>
      </trkpt>
      <trkpt lat="45.90109" lon="4.50848">
        <ele>326</ele>
        <time>2020-03-14T14:52:00.000Z</time>
      </trkpt>
      <trkpt lat="45.90109" lon="4.50839">
        <ele>326.39999389648</ele>
        <time>2020-03-14T14:52:03.000Z</time>
      </trkpt>
      <trkpt lat="45.90109" lon="4.50831">
        <ele>326.60000610352</ele>
        <time>2020-03-14T14:52:06.000Z</time>
      </trkpt>
      <trkpt lat="45.90109" lon="4.50823">
        <ele>326.60000610352</ele>
        <time>2020-03-14T14:52:09.000Z</time>
      </trkpt>
      <trkpt lat="45.90109" lon="4.50816">
        <ele>327.39999389648</ele>
        <time>2020-03-14T14:52:12.000Z</time>
      </trkpt>
      <trkpt lat="45.90111" lon="4.50807">
        <ele>328</ele>
        <time>2020-03-14T14:52:16.000Z</time>
      </trkpt>
      <trkpt lat="45.90112" lon="4.508">
        <ele>328.39999389648</ele>
        <time>2020-03-14T14:52:19.000Z</time>
      </trkpt>
      <trkpt lat="45.90113" lon="4.50793">
        <ele>329.20001220703</ele>
        <time>2020-03-14T14:52:22.000Z</time>
      </trkpt>
      <trkpt lat="45.90114" lon="4.50785">
        <ele>329.39999389648</ele>
        <time>2020-03-14T14:52:25.000Z</time>
      </trkpt>
      <trkpt lat="45.90115" lon="4.50778">
        <ele>329.79998779297</ele>
        <time>2020-03-14T14:52:28.000Z</time>
      </trkpt>
      <trkpt lat="45.90116" lon="4.50772">
        <ele>330</ele>
        <time>2020-03-14T14:52:31.000Z</time>
      </trkpt>
      <trkpt lat="45.90118" lon="4.50766">
        <ele>330.20001220703</ele>
        <time>2020-03-14T14:52:34.000Z</time>
      </trkpt>
      <trkpt lat="45.90119" lon="4.50759">
        <ele>330.60000610352</ele>
        <time>2020-03-14T14:52:37.000Z</time>
      </trkpt>
      <trkpt lat="45.90121" lon="4.50751">
        <ele>331</ele>
        <time>2020-03-14T14:52:40.000Z</time>
      </trkpt>
      <trkpt lat="45.90122" lon="4.50745">
        <ele>331.20001220703</ele>
        <time>2020-03-14T14:52:43.000Z</time>
      </trkpt>
      <trkpt lat="45.90125" lon="4.50735">
        <ele>331.79998779297</ele>
        <time>2020-03-14T14:52:47.000Z</time>
      </trkpt>
      <trkpt lat="45.90126" lon="4.50727">
        <ele>332.39999389648</ele>
        <time>2020-03-14T14:52:50.000Z</time>
      </trkpt>
      <trkpt lat="45.90127" lon="4.50718">
        <ele>332.20001220703</ele>
        <time>2020-03-14T14:52:53.000Z</time>
      </trkpt>
      <trkpt lat="45.90129" lon="4.50709">
        <ele>331.60000610352</ele>
        <time>2020-03-14T14:52:56.000Z</time>
      </trkpt>
      <trkpt lat="45.9013" lon="4.507">
        <ele>331.39999389648</ele>
        <time>2020-03-14T14:52:59.000Z</time>
      </trkpt>
      <trkpt lat="45.90132" lon="4.50692">
        <ele>331.60000610352</ele>
        <time>2020-03-14T14:53:02.000Z</time>
      </trkpt>
      <trkpt lat="45.90133" lon="4.50683">
        <ele>331.60000610352</ele>
        <time>2020-03-14T14:53:05.000Z</time>
      </trkpt>
      <trkpt lat="45.90134" lon="4.50675">
        <ele>331.79998779297</ele>
        <time>2020-03-14T14:53:08.000Z</time>
      </trkpt>
      <trkpt lat="45.90136" lon="4.50667">
        <ele>332</ele>
        <time>2020-03-14T14:53:11.000Z</time>
      </trkpt>
      <trkpt lat="45.90138" lon="4.5066">
        <ele>332.39999389648</ele>
        <time>2020-03-14T14:53:14.000Z</time>
      </trkpt>
      <trkpt lat="45.9014" lon="4.5065">
        <ele>333</ele>
        <time>2020-03-14T14:53:18.000Z</time>
      </trkpt>
      <trkpt lat="45.90142" lon="4.50643">
        <ele>333.60000610352</ele>
        <time>2020-03-14T14:53:21.000Z</time>
      </trkpt>
      <trkpt lat="45.90143" lon="4.50636">
        <ele>334.39999389648</ele>
        <time>2020-03-14T14:53:24.000Z</time>
      </trkpt>
      <trkpt lat="45.90145" lon="4.50628">
        <ele>335</ele>
        <time>2020-03-14T14:53:27.000Z</time>
      </trkpt>
      <trkpt lat="45.90147" lon="4.50619">
        <ele>335.20001220703</ele>
        <time>2020-03-14T14:53:30.000Z</time>
      </trkpt>
      <trkpt lat="45.90149" lon="4.50612">
        <ele>335.60000610352</ele>
        <time>2020-03-14T14:53:33.000Z</time>
      </trkpt>
      <trkpt lat="45.90151" lon="4.50605">
        <ele>336</ele>
        <time>2020-03-14T14:53:36.000Z</time>
      </trkpt>
      <trkpt lat="45.90153" lon="4.50597">
        <ele>336.20001220703</ele>
        <time>2020-03-14T14:53:39.000Z</time>
      </trkpt>
      <trkpt lat="45.90156" lon="4.50591">
        <ele>336.39999389648</ele>
        <time>2020-03-14T14:53:42.000Z</time>
      </trkpt>
      <trkpt lat="45.90159" lon="4.50584">
        <ele>336.60000610352</ele>
        <time>2020-03-14T14:53:45.000Z</time>
      </trkpt>
      <trkpt lat="45.9016" lon="4.50577">
        <ele>337</ele>
        <time>2020-03-14T14:53:49.000Z</time>
      </trkpt>
      <trkpt lat="45.90161" lon="4.5057">
        <ele>337.79998779297</ele>
        <time>2020-03-14T14:53:52.000Z</time>
      </trkpt>
      <trkpt lat="45.90162" lon="4.50562">
        <ele>337.79998779297</ele>
        <time>2020-03-14T14:53:55.000Z</time>
      </trkpt>
      <trkpt lat="45.90164" lon="4.50554">
        <ele>338.20001220703</ele>
        <time>2020-03-14T14:53:58.000Z</time>
      </trkpt>
      <trkpt lat="45.90165" lon="4.50546">
        <ele>338.60000610352</ele>
        <time>2020-03-14T14:54:01.000Z</time>
      </trkpt>
      <trkpt lat="45.90166" lon="4.50541">
        <ele>338.39999389648</ele>
        <time>2020-03-14T14:54:04.000Z</time>
      </trkpt>
      <trkpt lat="45.90168" lon="4.50533">
        <ele>338.60000610352</ele>
        <time>2020-03-14T14:54:07.000Z</time>
      </trkpt>
      <trkpt lat="45.90169" lon="4.50526">
        <ele>339</ele>
        <time>2020-03-14T14:54:10.000Z</time>
      </trkpt>
      <trkpt lat="45.90171" lon="4.50519">
        <ele>339.39999389648</ele>
        <time>2020-03-14T14:54:13.000Z</time>
      </trkpt>
      <trkpt lat="45.90173" lon="4.5051">
        <ele>339.39999389648</ele>
        <time>2020-03-14T14:54:17.000Z</time>
      </trkpt>
      <trkpt lat="45.90174" lon="4.50503">
        <ele>339.79998779297</ele>
        <time>2020-03-14T14:54:20.000Z</time>
      </trkpt>
      <trkpt lat="45.90176" lon="4.50496">
        <ele>340.60000610352</ele>
        <time>2020-03-14T14:54:23.000Z</time>
      </trkpt>
      <trkpt lat="45.90178" lon="4.50489">
        <ele>341</ele>
        <time>2020-03-14T14:54:26.000Z</time>
      </trkpt>
      <trkpt lat="45.9018" lon="4.50483">
        <ele>341.20001220703</ele>
        <time>2020-03-14T14:54:29.000Z</time>
      </trkpt>
      <trkpt lat="45.90182" lon="4.50477">
        <ele>341.79998779297</ele>
        <time>2020-03-14T14:54:32.000Z</time>
      </trkpt>
      <trkpt lat="45.90185" lon="4.50471">
        <ele>342.20001220703</ele>
        <time>2020-03-14T14:54:35.000Z</time>
      </trkpt>
      <trkpt lat="45.90188" lon="4.50464">
        <ele>342.39999389648</ele>
        <time>2020-03-14T14:54:38.000Z</time>
      </trkpt>
      <trkpt lat="45.9019" lon="4.50457">
        <ele>342.39999389648</ele>
        <time>2020-03-14T14:54:41.000Z</time>
      </trkpt>
      <trkpt lat="45.90192" lon="4.5045">
        <ele>342.39999389648</ele>
        <time>2020-03-14T14:54:44.000Z</time>
      </trkpt>
      <trkpt lat="45.90195" lon="4.50442">
        <ele>343.39999389648</ele>
        <time>2020-03-14T14:54:48.000Z</time>
      </trkpt>
      <trkpt lat="45.90198" lon="4.50436">
        <ele>344.20001220703</ele>
        <time>2020-03-14T14:54:51.000Z</time>
      </trkpt>
      <trkpt lat="45.902" lon="4.5043">
        <ele>344.79998779297</ele>
        <time>2020-03-14T14:54:54.000Z</time>
      </trkpt>
      <trkpt lat="45.90203" lon="4.50425">
        <ele>345</ele>
        <time>2020-03-14T14:54:57.000Z</time>
      </trkpt>
      <trkpt lat="45.90206" lon="4.5042">
        <ele>345.20001220703</ele>
        <time>2020-03-14T14:55:00.000Z</time>
      </trkpt>
      <trkpt lat="45.90209" lon="4.50414">
        <ele>345.60000610352</ele>
        <time>2020-03-14T14:55:03.000Z</time>
      </trkpt>
      <trkpt lat="45.90211" lon="4.50409">
        <ele>346</ele>
        <time>2020-03-14T14:55:06.000Z</time>
      </trkpt>
      <trkpt lat="45.90213" lon="4.50404">
        <ele>346.20001220703</ele>
        <time>2020-03-14T14:55:09.000Z</time>
      </trkpt>
      <trkpt lat="45.90215" lon="4.50399">
        <ele>346.60000610352</ele>
        <time>2020-03-14T14:55:12.000Z</time>
      </trkpt>
      <trkpt lat="45.90217" lon="4.50395">
        <ele>346.79998779297</ele>
        <time>2020-03-14T14:55:15.000Z</time>
      </trkpt>
      <trkpt lat="45.90221" lon="4.50388">
        <ele>347</ele>
        <time>2020-03-14T14:55:19.000Z</time>
      </trkpt>
      <trkpt lat="45.90224" lon="4.50383">
        <ele>347.39999389648</ele>
        <time>2020-03-14T14:55:22.000Z</time>
      </trkpt>
      <trkpt lat="45.90227" lon="4.50377">
        <ele>347.60000610352</ele>
        <time>2020-03-14T14:55:25.000Z</time>
      </trkpt>
      <trkpt lat="45.9023" lon="4.5037">
        <ele>347.79998779297</ele>
        <time>2020-03-14T14:55:28.000Z</time>
      </trkpt>
      <trkpt lat="45.90233" lon="4.50362">
        <ele>347.79998779297</ele>
        <time>2020-03-14T14:55:31.000Z</time>
      </trkpt>
      <trkpt lat="45.90235" lon="4.50356">
        <ele>348.20001220703</ele>
        <time>2020-03-14T14:55:34.000Z</time>
      </trkpt>
      <trkpt lat="45.90237" lon="4.50349">
        <ele>348.39999389648</ele>
        <time>2020-03-14T14:55:37.000Z</time>
      </trkpt>
      <trkpt lat="45.9024" lon="4.50343">
        <ele>348.60000610352</ele>
        <time>2020-03-14T14:55:40.000Z</time>
      </trkpt>
      <trkpt lat="45.90242" lon="4.50337">
        <ele>348.79998779297</ele>
        <time>2020-03-14T14:55:43.000Z</time>
      </trkpt>
      <trkpt lat="45.90244" lon="4.5033">
        <ele>349.39999389648</ele>
        <time>2020-03-14T14:55:47.000Z</time>
      </trkpt>
      <trkpt lat="45.90247" lon="4.50325">
        <ele>350</ele>
        <time>2020-03-14T14:55:50.000Z</time>
      </trkpt>
      <trkpt lat="45.9025" lon="4.50319">
        <ele>350.20001220703</ele>
        <time>2020-03-14T14:55:53.000Z</time>
      </trkpt>
      <trkpt lat="45.90253" lon="4.50312">
        <ele>351</ele>
        <time>2020-03-14T14:55:56.000Z</time>
      </trkpt>
      <trkpt lat="45.90255" lon="4.50306">
        <ele>351.39999389648</ele>
        <time>2020-03-14T14:55:59.000Z</time>
      </trkpt>
      <trkpt lat="45.90258" lon="4.503">
        <ele>351.60000610352</ele>
        <time>2020-03-14T14:56:02.000Z</time>
      </trkpt>
      <trkpt lat="45.90261" lon="4.50296">
        <ele>352.20001220703</ele>
        <time>2020-03-14T14:56:05.000Z</time>
      </trkpt>
      <trkpt lat="45.90264" lon="4.50291">
        <ele>352.39999389648</ele>
        <time>2020-03-14T14:56:08.000Z</time>
      </trkpt>
      <trkpt lat="45.90267" lon="4.50287">
        <ele>352.79998779297</ele>
        <time>2020-03-14T14:56:11.000Z</time>
      </trkpt>
      <trkpt lat="45.90269" lon="4.50282">
        <ele>353</ele>
        <time>2020-03-14T14:56:14.000Z</time>
      </trkpt>
      <trkpt lat="45.90273" lon="4.50275">
        <ele>353.79998779297</ele>
        <time>2020-03-14T14:56:18.000Z</time>
      </trkpt>
      <trkpt lat="45.90275" lon="4.50268">
        <ele>354.20001220703</ele>
        <time>2020-03-14T14:56:21.000Z</time>
      </trkpt>
      <trkpt lat="45.90278" lon="4.50262">
        <ele>354.20001220703</ele>
        <time>2020-03-14T14:56:24.000Z</time>
      </trkpt>
      <trkpt lat="45.90281" lon="4.50256">
        <ele>354.39999389648</ele>
        <time>2020-03-14T14:56:27.000Z</time>
      </trkpt>
      <trkpt lat="45.90284" lon="4.50251">
        <ele>355</ele>
        <time>2020-03-14T14:56:30.000Z</time>
      </trkpt>
      <trkpt lat="45.90286" lon="4.50245">
        <ele>355.60000610352</ele>
        <time>2020-03-14T14:56:33.000Z</time>
      </trkpt>
      <trkpt lat="45.90289" lon="4.5024">
        <ele>356.20001220703</ele>
        <time>2020-03-14T14:56:36.000Z</time>
      </trkpt>
      <trkpt lat="45.90291" lon="4.50235">
        <ele>356.39999389648</ele>
        <time>2020-03-14T14:56:39.000Z</time>
      </trkpt>
      <trkpt lat="45.90294" lon="4.50229">
        <ele>356.60000610352</ele>
        <time>2020-03-14T14:56:42.000Z</time>
      </trkpt>
      <trkpt lat="45.90297" lon="4.50225">
        <ele>357.39999389648</ele>
        <time>2020-03-14T14:56:45.000Z</time>
      </trkpt>
      <trkpt lat="45.903" lon="4.50219">
        <ele>357.79998779297</ele>
        <time>2020-03-14T14:56:49.000Z</time>
      </trkpt>
      <trkpt lat="45.90303" lon="4.50214">
        <ele>357.79998779297</ele>
        <time>2020-03-14T14:56:52.000Z</time>
      </trkpt>
      <trkpt lat="45.90305" lon="4.50209">
        <ele>358</ele>
        <time>2020-03-14T14:56:55.000Z</time>
      </trkpt>
      <trkpt lat="45.90308" lon="4.50203">
        <ele>358.39999389648</ele>
        <time>2020-03-14T14:56:58.000Z</time>
      </trkpt>
      <trkpt lat="45.90311" lon="4.50199">
        <ele>358.79998779297</ele>
        <time>2020-03-14T14:57:01.000Z</time>
      </trkpt>
      <trkpt lat="45.90314" lon="4.50194">
        <ele>359.20001220703</ele>
        <time>2020-03-14T14:57:04.000Z</time>
      </trkpt>
      <trkpt lat="45.90317" lon="4.5019">
        <ele>359.60000610352</ele>
        <time>2020-03-14T14:57:07.000Z</time>
      </trkpt>
      <trkpt lat="45.9032" lon="4.50186">
        <ele>359.60000610352</ele>
        <time>2020-03-14T14:57:10.000Z</time>
      </trkpt>
      <trkpt lat="45.90323" lon="4.50182">
        <ele>359.79998779297</ele>
        <time>2020-03-14T14:57:13.000Z</time>
      </trkpt>
      <trkpt lat="45.90327" lon="4.50177">
        <ele>360</ele>
        <time>2020-03-14T14:57:17.000Z</time>
      </trkpt>
      <trkpt lat="45.90329" lon="4.50174">
        <ele>360.60000610352</ele>
        <time>2020-03-14T14:57:20.000Z</time>
      </trkpt>
      <trkpt lat="45.90332" lon="4.5017">
        <ele>361</ele>
        <time>2020-03-14T14:57:23.000Z</time>
      </trkpt>
      <trkpt lat="45.90335" lon="4.50164">
        <ele>361.60000610352</ele>
        <time>2020-03-14T14:57:26.000Z</time>
      </trkpt>
      <trkpt lat="45.90338" lon="4.50159">
        <ele>361.79998779297</ele>
        <time>2020-03-14T14:57:29.000Z</time>
      </trkpt>
      <trkpt lat="45.90341" lon="4.50153">
        <ele>362</ele>
        <time>2020-03-14T14:57:32.000Z</time>
      </trkpt>
      <trkpt lat="45.90345" lon="4.50149">
        <ele>362.60000610352</ele>
        <time>2020-03-14T14:57:35.000Z</time>
      </trkpt>
      <trkpt lat="45.90348" lon="4.50144">
        <ele>363</ele>
        <time>2020-03-14T14:57:38.000Z</time>
      </trkpt>
      <trkpt lat="45.9035" lon="4.5014">
        <ele>363.20001220703</ele>
        <time>2020-03-14T14:57:41.000Z</time>
      </trkpt>
      <trkpt lat="45.9035" lon="4.50134">
        <ele>363.39999389648</ele>
        <time>2020-03-14T14:57:44.000Z</time>
      </trkpt>
      <trkpt lat="45.90347" lon="4.50128">
        <ele>363.79998779297</ele>
        <time>2020-03-14T14:57:48.000Z</time>
      </trkpt>
      <trkpt lat="45.90341" lon="4.50127">
        <ele>364</ele>
        <time>2020-03-14T14:57:51.000Z</time>
      </trkpt>
      <trkpt lat="45.90333" lon="4.50128">
        <ele>363.39999389648</ele>
        <time>2020-03-14T14:57:54.000Z</time>
      </trkpt>
      <trkpt lat="45.9032" lon="4.5013">
        <ele>362.79998779297</ele>
        <time>2020-03-14T14:57:57.000Z</time>
      </trkpt>
      <trkpt lat="45.90303" lon="4.50133">
        <ele>362.20001220703</ele>
        <time>2020-03-14T14:58:00.000Z</time>
      </trkpt>
      <trkpt lat="45.90284" lon="4.50139">
        <ele>362</ele>
        <time>2020-03-14T14:58:03.000Z</time>
      </trkpt>
      <trkpt lat="45.90264" lon="4.50146">
        <ele>360.79998779297</ele>
        <time>2020-03-14T14:58:06.000Z</time>
      </trkpt>
      <trkpt lat="45.90249" lon="4.50153">
        <ele>359.60000610352</ele>
        <time>2020-03-14T14:58:09.000Z</time>
      </trkpt>
      <trkpt lat="45.90241" lon="4.50156">
        <ele>358.20001220703</ele>
        <time>2020-03-14T14:58:12.000Z</time>
      </trkpt>
      <trkpt lat="45.90234" lon="4.5015">
        <ele>357</ele>
        <time>2020-03-14T14:58:15.000Z</time>
      </trkpt>
      <trkpt lat="45.90232" lon="4.50138">
        <ele>356.60000610352</ele>
        <time>2020-03-14T14:58:19.000Z</time>
      </trkpt>
      <trkpt lat="45.9023" lon="4.50129">
        <ele>357</ele>
        <time>2020-03-14T14:58:22.000Z</time>
      </trkpt>
      <trkpt lat="45.90229" lon="4.50119">
        <ele>357.20001220703</ele>
        <time>2020-03-14T14:58:25.000Z</time>
      </trkpt>
      <trkpt lat="45.90228" lon="4.50107">
        <ele>357.60000610352</ele>
        <time>2020-03-14T14:58:28.000Z</time>
      </trkpt>
      <trkpt lat="45.90227" lon="4.50094">
        <ele>358</ele>
        <time>2020-03-14T14:58:31.000Z</time>
      </trkpt>
      <trkpt lat="45.90226" lon="4.5008">
        <ele>358</ele>
        <time>2020-03-14T14:58:34.000Z</time>
      </trkpt>
      <trkpt lat="45.90224" lon="4.50068">
        <ele>358.20001220703</ele>
        <time>2020-03-14T14:58:37.000Z</time>
      </trkpt>
      <trkpt lat="45.90222" lon="4.50056">
        <ele>358.79998779297</ele>
        <time>2020-03-14T14:58:40.000Z</time>
      </trkpt>
      <trkpt lat="45.90219" lon="4.50044">
        <ele>358.79998779297</ele>
        <time>2020-03-14T14:58:43.000Z</time>
      </trkpt>
      <trkpt lat="45.90215" lon="4.50033">
        <ele>358.60000610352</ele>
        <time>2020-03-14T14:58:46.000Z</time>
      </trkpt>
      <trkpt lat="45.90209" lon="4.50019">
        <ele>359.20001220703</ele>
        <time>2020-03-14T14:58:50.000Z</time>
      </trkpt>
      <trkpt lat="45.90205" lon="4.50008">
        <ele>359.79998779297</ele>
        <time>2020-03-14T14:58:53.000Z</time>
      </trkpt>
      <trkpt lat="45.902" lon="4.49997">
        <ele>360.39999389648</ele>
        <time>2020-03-14T14:58:56.000Z</time>
      </trkpt>
      <trkpt lat="45.90196" lon="4.49986">
        <ele>360.60000610352</ele>
        <time>2020-03-14T14:58:59.000Z</time>
      </trkpt>
      <trkpt lat="45.90192" lon="4.49974">
        <ele>360.60000610352</ele>
        <time>2020-03-14T14:59:02.000Z</time>
      </trkpt>
      <trkpt lat="45.9019" lon="4.49963">
        <ele>360.60000610352</ele>
        <time>2020-03-14T14:59:05.000Z</time>
      </trkpt>
      <trkpt lat="45.90188" lon="4.49951">
        <ele>361</ele>
        <time>2020-03-14T14:59:08.000Z</time>
      </trkpt>
      <trkpt lat="45.90185" lon="4.4994">
        <ele>361.60000610352</ele>
        <time>2020-03-14T14:59:11.000Z</time>
      </trkpt>
      <trkpt lat="45.90182" lon="4.49928">
        <ele>361.79998779297</ele>
        <time>2020-03-14T14:59:14.000Z</time>
      </trkpt>
      <trkpt lat="45.9018" lon="4.49912">
        <ele>362.39999389648</ele>
        <time>2020-03-14T14:59:18.000Z</time>
      </trkpt>
      <trkpt lat="45.90177" lon="4.49901">
        <ele>363</ele>
        <time>2020-03-14T14:59:21.000Z</time>
      </trkpt>
      <trkpt lat="45.90174" lon="4.4989">
        <ele>363</ele>
        <time>2020-03-14T14:59:24.000Z</time>
      </trkpt>
      <trkpt lat="45.90173" lon="4.49881">
        <ele>363.39999389648</ele>
        <time>2020-03-14T14:59:27.000Z</time>
      </trkpt>
      <trkpt lat="45.90172" lon="4.4987">
        <ele>363.20001220703</ele>
        <time>2020-03-14T14:59:30.000Z</time>
      </trkpt>
      <trkpt lat="45.90172" lon="4.49858">
        <ele>363.20001220703</ele>
        <time>2020-03-14T14:59:33.000Z</time>
      </trkpt>
      <trkpt lat="45.90172" lon="4.49847">
        <ele>363</ele>
        <time>2020-03-14T14:59:36.000Z</time>
      </trkpt>
      <trkpt lat="45.90172" lon="4.49835">
        <ele>363.39999389648</ele>
        <time>2020-03-14T14:59:39.000Z</time>
      </trkpt>
      <trkpt lat="45.90172" lon="4.49824">
        <ele>363.79998779297</ele>
        <time>2020-03-14T14:59:42.000Z</time>
      </trkpt>
      <trkpt lat="45.90173" lon="4.49813">
        <ele>363.79998779297</ele>
        <time>2020-03-14T14:59:45.000Z</time>
      </trkpt>
      <trkpt lat="45.90173" lon="4.49799">
        <ele>363.79998779297</ele>
        <time>2020-03-14T14:59:49.000Z</time>
      </trkpt>
      <trkpt lat="45.90174" lon="4.49788">
        <ele>364</ele>
        <time>2020-03-14T14:59:52.000Z</time>
      </trkpt>
      <trkpt lat="45.90174" lon="4.49778">
        <ele>364.20001220703</ele>
        <time>2020-03-14T14:59:55.000Z</time>
      </trkpt>
      <trkpt lat="45.90175" lon="4.49768">
        <ele>364.60000610352</ele>
        <time>2020-03-14T14:59:58.000Z</time>
      </trkpt>
      <trkpt lat="45.90177" lon="4.49758">
        <ele>365</ele>
        <time>2020-03-14T15:00:01.000Z</time>
      </trkpt>
      <trkpt lat="45.90178" lon="4.4975">
        <ele>365.20001220703</ele>
        <time>2020-03-14T15:00:04.000Z</time>
      </trkpt>
      <trkpt lat="45.90178" lon="4.49743">
        <ele>365.60000610352</ele>
        <time>2020-03-14T15:00:07.000Z</time>
      </trkpt>
      <trkpt lat="45.90176" lon="4.49736">
        <ele>366.60000610352</ele>
        <time>2020-03-14T15:00:10.000Z</time>
      </trkpt>
      <trkpt lat="45.90171" lon="4.49731">
        <ele>367.20001220703</ele>
        <time>2020-03-14T15:00:13.000Z</time>
      </trkpt>
      <trkpt lat="45.90166" lon="4.49726">
        <ele>367</ele>
        <time>2020-03-14T15:00:16.000Z</time>
      </trkpt>
      <trkpt lat="45.9016" lon="4.49719">
        <ele>366.60000610352</ele>
        <time>2020-03-14T15:00:20.000Z</time>
      </trkpt>
      <trkpt lat="45.90154" lon="4.49714">
        <ele>367.20001220703</ele>
        <time>2020-03-14T15:00:23.000Z</time>
      </trkpt>
      <trkpt lat="45.90148" lon="4.4971">
        <ele>368</ele>
        <time>2020-03-14T15:00:26.000Z</time>
      </trkpt>
      <trkpt lat="45.90144" lon="4.49706">
        <ele>368.60000610352</ele>
        <time>2020-03-14T15:00:29.000Z</time>
      </trkpt>
      <trkpt lat="45.90139" lon="4.49701">
        <ele>368.79998779297</ele>
        <time>2020-03-14T15:00:32.000Z</time>
      </trkpt>
      <trkpt lat="45.90134" lon="4.49697">
        <ele>368.79998779297</ele>
        <time>2020-03-14T15:00:35.000Z</time>
      </trkpt>
      <trkpt lat="45.90129" lon="4.49692">
        <ele>369.60000610352</ele>
        <time>2020-03-14T15:00:38.000Z</time>
      </trkpt>
      <trkpt lat="45.90125" lon="4.49686">
        <ele>370</ele>
        <time>2020-03-14T15:00:41.000Z</time>
      </trkpt>
      <trkpt lat="45.90121" lon="4.49679">
        <ele>369.39999389648</ele>
        <time>2020-03-14T15:00:44.000Z</time>
      </trkpt>
      <trkpt lat="45.90117" lon="4.49673">
        <ele>369</ele>
        <time>2020-03-14T15:00:48.000Z</time>
      </trkpt>
      <trkpt lat="45.90114" lon="4.49669">
        <ele>369.20001220703</ele>
        <time>2020-03-14T15:00:51.000Z</time>
      </trkpt>
      <trkpt lat="45.90112" lon="4.49665">
        <ele>369.79998779297</ele>
        <time>2020-03-14T15:00:54.000Z</time>
      </trkpt>
      <trkpt lat="45.90109" lon="4.49661">
        <ele>370.39999389648</ele>
        <time>2020-03-14T15:00:57.000Z</time>
      </trkpt>
      <trkpt lat="45.90106" lon="4.49657">
        <ele>370.79998779297</ele>
        <time>2020-03-14T15:01:00.000Z</time>
      </trkpt>
      <trkpt lat="45.90102" lon="4.49654">
        <ele>371.20001220703</ele>
        <time>2020-03-14T15:01:03.000Z</time>
      </trkpt>
      <trkpt lat="45.90098" lon="4.49651">
        <ele>371.60000610352</ele>
        <time>2020-03-14T15:01:06.000Z</time>
      </trkpt>
      <trkpt lat="45.90094" lon="4.49647">
        <ele>372.39999389648</ele>
        <time>2020-03-14T15:01:09.000Z</time>
      </trkpt>
      <trkpt lat="45.9009" lon="4.49644">
        <ele>373</ele>
        <time>2020-03-14T15:01:12.000Z</time>
      </trkpt>
      <trkpt lat="45.90088" lon="4.49641">
        <ele>373.60000610352</ele>
        <time>2020-03-14T15:01:15.000Z</time>
      </trkpt>
      <trkpt lat="45.90084" lon="4.49636">
        <ele>373.79998779297</ele>
        <time>2020-03-14T15:01:19.000Z</time>
      </trkpt>
      <trkpt lat="45.90081" lon="4.49633">
        <ele>374.60000610352</ele>
        <time>2020-03-14T15:01:22.000Z</time>
      </trkpt>
      <trkpt lat="45.90078" lon="4.49629">
        <ele>375</ele>
        <time>2020-03-14T15:01:25.000Z</time>
      </trkpt>
      <trkpt lat="45.90075" lon="4.49624">
        <ele>375.39999389648</ele>
        <time>2020-03-14T15:01:28.000Z</time>
      </trkpt>
      <trkpt lat="45.90072" lon="4.49619">
        <ele>376</ele>
        <time>2020-03-14T15:01:31.000Z</time>
      </trkpt>
      <trkpt lat="45.9007" lon="4.49615">
        <ele>376.60000610352</ele>
        <time>2020-03-14T15:01:34.000Z</time>
      </trkpt>
      <trkpt lat="45.90067" lon="4.49611">
        <ele>377</ele>
        <time>2020-03-14T15:01:37.000Z</time>
      </trkpt>
      <trkpt lat="45.90065" lon="4.49606">
        <ele>377.20001220703</ele>
        <time>2020-03-14T15:01:40.000Z</time>
      </trkpt>
      <trkpt lat="45.90062" lon="4.49602">
        <ele>377.39999389648</ele>
        <time>2020-03-14T15:01:43.000Z</time>
      </trkpt>
      <trkpt lat="45.90059" lon="4.49598">
        <ele>377.60000610352</ele>
        <time>2020-03-14T15:01:46.000Z</time>
      </trkpt>
      <trkpt lat="45.90057" lon="4.49592">
        <ele>377.79998779297</ele>
        <time>2020-03-14T15:01:50.000Z</time>
      </trkpt>
      <trkpt lat="45.90055" lon="4.49587">
        <ele>378.20001220703</ele>
        <time>2020-03-14T15:01:53.000Z</time>
      </trkpt>
      <trkpt lat="45.90053" lon="4.49583">
        <ele>378.39999389648</ele>
        <time>2020-03-14T15:01:56.000Z</time>
      </trkpt>
      <trkpt lat="45.90051" lon="4.49579">
        <ele>378.60000610352</ele>
        <time>2020-03-14T15:01:59.000Z</time>
      </trkpt>
      <trkpt lat="45.90049" lon="4.49574">
        <ele>378.79998779297</ele>
        <time>2020-03-14T15:02:02.000Z</time>
      </trkpt>
      <trkpt lat="45.90046" lon="4.4957">
        <ele>379</ele>
        <time>2020-03-14T15:02:05.000Z</time>
      </trkpt>
      <trkpt lat="45.90044" lon="4.49565">
        <ele>379.39999389648</ele>
        <time>2020-03-14T15:02:08.000Z</time>
      </trkpt>
      <trkpt lat="45.90041" lon="4.49561">
        <ele>379.79998779297</ele>
        <time>2020-03-14T15:02:11.000Z</time>
      </trkpt>
      <trkpt lat="45.9004" lon="4.49556">
        <ele>380</ele>
        <time>2020-03-14T15:02:14.000Z</time>
      </trkpt>
      <trkpt lat="45.90039" lon="4.4955">
        <ele>380.39999389648</ele>
        <time>2020-03-14T15:02:18.000Z</time>
      </trkpt>
      <trkpt lat="45.90037" lon="4.49545">
        <ele>380.60000610352</ele>
        <time>2020-03-14T15:02:21.000Z</time>
      </trkpt>
      <trkpt lat="45.90035" lon="4.4954">
        <ele>381</ele>
        <time>2020-03-14T15:02:24.000Z</time>
      </trkpt>
      <trkpt lat="45.90033" lon="4.49535">
        <ele>381.39999389648</ele>
        <time>2020-03-14T15:02:27.000Z</time>
      </trkpt>
      <trkpt lat="45.9003" lon="4.49529">
        <ele>382</ele>
        <time>2020-03-14T15:02:30.000Z</time>
      </trkpt>
      <trkpt lat="45.90027" lon="4.49524">
        <ele>382.39999389648</ele>
        <time>2020-03-14T15:02:33.000Z</time>
      </trkpt>
      <trkpt lat="45.90026" lon="4.4952">
        <ele>383</ele>
        <time>2020-03-14T15:02:36.000Z</time>
      </trkpt>
      <trkpt lat="45.90024" lon="4.49516">
        <ele>383.60000610352</ele>
        <time>2020-03-14T15:02:39.000Z</time>
      </trkpt>
      <trkpt lat="45.90022" lon="4.49512">
        <ele>384.39999389648</ele>
        <time>2020-03-14T15:02:42.000Z</time>
      </trkpt>
      <trkpt lat="45.9002" lon="4.49508">
        <ele>384.60000610352</ele>
        <time>2020-03-14T15:02:45.000Z</time>
      </trkpt>
      <trkpt lat="45.90018" lon="4.49503">
        <ele>385</ele>
        <time>2020-03-14T15:02:49.000Z</time>
      </trkpt>
      <trkpt lat="45.90016" lon="4.49498">
        <ele>385.79998779297</ele>
        <time>2020-03-14T15:02:52.000Z</time>
      </trkpt>
      <trkpt lat="45.90015" lon="4.49494">
        <ele>386.20001220703</ele>
        <time>2020-03-14T15:02:55.000Z</time>
      </trkpt>
      <trkpt lat="45.90013" lon="4.4949">
        <ele>387</ele>
        <time>2020-03-14T15:02:58.000Z</time>
      </trkpt>
      <trkpt lat="45.90011" lon="4.49486">
        <ele>387.60000610352</ele>
        <time>2020-03-14T15:03:01.000Z</time>
      </trkpt>
      <trkpt lat="45.90008" lon="4.49482">
        <ele>388</ele>
        <time>2020-03-14T15:03:04.000Z</time>
      </trkpt>
      <trkpt lat="45.90005" lon="4.49477">
        <ele>388</ele>
        <time>2020-03-14T15:03:07.000Z</time>
      </trkpt>
      <trkpt lat="45.90003" lon="4.49474">
        <ele>389.20001220703</ele>
        <time>2020-03-14T15:03:10.000Z</time>
      </trkpt>
      <trkpt lat="45.9" lon="4.4947">
        <ele>390</ele>
        <time>2020-03-14T15:03:13.000Z</time>
      </trkpt>
      <trkpt lat="45.89998" lon="4.49467">
        <ele>390.60000610352</ele>
        <time>2020-03-14T15:03:16.000Z</time>
      </trkpt>
      <trkpt lat="45.89994" lon="4.49462">
        <ele>391.79998779297</ele>
        <time>2020-03-14T15:03:20.000Z</time>
      </trkpt>
      <trkpt lat="45.89992" lon="4.49458">
        <ele>392.20001220703</ele>
        <time>2020-03-14T15:03:23.000Z</time>
      </trkpt>
      <trkpt lat="45.89989" lon="4.49455">
        <ele>392.60000610352</ele>
        <time>2020-03-14T15:03:26.000Z</time>
      </trkpt>
      <trkpt lat="45.89987" lon="4.49451">
        <ele>393</ele>
        <time>2020-03-14T15:03:29.000Z</time>
      </trkpt>
      <trkpt lat="45.89984" lon="4.49447">
        <ele>393.79998779297</ele>
        <time>2020-03-14T15:03:32.000Z</time>
      </trkpt>
      <trkpt lat="45.89981" lon="4.49444">
        <ele>394</ele>
        <time>2020-03-14T15:03:35.000Z</time>
      </trkpt>
      <trkpt lat="45.89978" lon="4.4944">
        <ele>394.39999389648</ele>
        <time>2020-03-14T15:03:38.000Z</time>
      </trkpt>
      <trkpt lat="45.89975" lon="4.49437">
        <ele>395.20001220703</ele>
        <time>2020-03-14T15:03:41.000Z</time>
      </trkpt>
      <trkpt lat="45.89972" lon="4.49434">
        <ele>395.39999389648</ele>
        <time>2020-03-14T15:03:44.000Z</time>
      </trkpt>
      <trkpt lat="45.8997" lon="4.49431">
        <ele>395.60000610352</ele>
        <time>2020-03-14T15:03:47.000Z</time>
      </trkpt>
      <trkpt lat="45.89966" lon="4.49427">
        <ele>396</ele>
        <time>2020-03-14T15:03:51.000Z</time>
      </trkpt>
      <trkpt lat="45.89963" lon="4.49424">
        <ele>396.39999389648</ele>
        <time>2020-03-14T15:03:54.000Z</time>
      </trkpt>
      <trkpt lat="45.8996" lon="4.49421">
        <ele>396.60000610352</ele>
        <time>2020-03-14T15:03:57.000Z</time>
      </trkpt>
      <trkpt lat="45.89957" lon="4.49419">
        <ele>397</ele>
        <time>2020-03-14T15:04:00.000Z</time>
      </trkpt>
      <trkpt lat="45.89954" lon="4.49417">
        <ele>397.20001220703</ele>
        <time>2020-03-14T15:04:03.000Z</time>
      </trkpt>
      <trkpt lat="45.89951" lon="4.49414">
        <ele>397.60000610352</ele>
        <time>2020-03-14T15:04:06.000Z</time>
      </trkpt>
      <trkpt lat="45.89948" lon="4.49411">
        <ele>398</ele>
        <time>2020-03-14T15:04:09.000Z</time>
      </trkpt>
      <trkpt lat="45.89945" lon="4.49408">
        <ele>398.60000610352</ele>
        <time>2020-03-14T15:04:12.000Z</time>
      </trkpt>
      <trkpt lat="45.89942" lon="4.49406">
        <ele>399.20001220703</ele>
        <time>2020-03-14T15:04:15.000Z</time>
      </trkpt>
      <trkpt lat="45.89938" lon="4.49403">
        <ele>400.20001220703</ele>
        <time>2020-03-14T15:04:19.000Z</time>
      </trkpt>
      <trkpt lat="45.89935" lon="4.494">
        <ele>400.79998779297</ele>
        <time>2020-03-14T15:04:22.000Z</time>
      </trkpt>
      <trkpt lat="45.89932" lon="4.49398">
        <ele>401</ele>
        <time>2020-03-14T15:04:25.000Z</time>
      </trkpt>
      <trkpt lat="45.89929" lon="4.49396">
        <ele>401.39999389648</ele>
        <time>2020-03-14T15:04:28.000Z</time>
      </trkpt>
      <trkpt lat="45.89926" lon="4.49395">
        <ele>401.60000610352</ele>
        <time>2020-03-14T15:04:31.000Z</time>
      </trkpt>
      <trkpt lat="45.89922" lon="4.49394">
        <ele>401.79998779297</ele>
        <time>2020-03-14T15:04:34.000Z</time>
      </trkpt>
      <trkpt lat="45.89919" lon="4.49393">
        <ele>402.60000610352</ele>
        <time>2020-03-14T15:04:37.000Z</time>
      </trkpt>
      <trkpt lat="45.89917" lon="4.4939">
        <ele>403.20001220703</ele>
        <time>2020-03-14T15:04:40.000Z</time>
      </trkpt>
      <trkpt lat="45.89914" lon="4.49388">
        <ele>403.79998779297</ele>
        <time>2020-03-14T15:04:43.000Z</time>
      </trkpt>
      <trkpt lat="45.89911" lon="4.49387">
        <ele>404.20001220703</ele>
        <time>2020-03-14T15:04:46.000Z</time>
      </trkpt>
      <trkpt lat="45.89908" lon="4.49384">
        <ele>405.20001220703</ele>
        <time>2020-03-14T15:04:50.000Z</time>
      </trkpt>
      <trkpt lat="45.89904" lon="4.49382">
        <ele>405.79998779297</ele>
        <time>2020-03-14T15:04:53.000Z</time>
      </trkpt>
      <trkpt lat="45.89901" lon="4.49381">
        <ele>406.39999389648</ele>
        <time>2020-03-14T15:04:56.000Z</time>
      </trkpt>
      <trkpt lat="45.89898" lon="4.49381">
        <ele>406.79998779297</ele>
        <time>2020-03-14T15:04:59.000Z</time>
      </trkpt>
      <trkpt lat="45.89893" lon="4.49379">
        <ele>407</ele>
        <time>2020-03-14T15:05:02.000Z</time>
      </trkpt>
      <trkpt lat="45.89889" lon="4.49376">
        <ele>407.60000610352</ele>
        <time>2020-03-14T15:05:05.000Z</time>
      </trkpt>
      <trkpt lat="45.89886" lon="4.49373">
        <ele>408</ele>
        <time>2020-03-14T15:05:08.000Z</time>
      </trkpt>
      <trkpt lat="45.89884" lon="4.49368">
        <ele>408.60000610352</ele>
        <time>2020-03-14T15:05:11.000Z</time>
      </trkpt>
      <trkpt lat="45.89881" lon="4.49364">
        <ele>409</ele>
        <time>2020-03-14T15:05:14.000Z</time>
      </trkpt>
      <trkpt lat="45.89879" lon="4.49359">
        <ele>409.20001220703</ele>
        <time>2020-03-14T15:05:17.000Z</time>
      </trkpt>
      <trkpt lat="45.89875" lon="4.49354">
        <ele>409.39999389648</ele>
        <time>2020-03-14T15:05:21.000Z</time>
      </trkpt>
      <trkpt lat="45.89873" lon="4.49351">
        <ele>409.60000610352</ele>
        <time>2020-03-14T15:05:24.000Z</time>
      </trkpt>
      <trkpt lat="45.89871" lon="4.49349">
        <ele>410.79998779297</ele>
        <time>2020-03-14T15:05:27.000Z</time>
      </trkpt>
      <trkpt lat="45.89868" lon="4.49345">
        <ele>411.39999389648</ele>
        <time>2020-03-14T15:05:30.000Z</time>
      </trkpt>
      <trkpt lat="45.89866" lon="4.49341">
        <ele>411.60000610352</ele>
        <time>2020-03-14T15:05:33.000Z</time>
      </trkpt>
      <trkpt lat="45.89863" lon="4.49338">
        <ele>411.79998779297</ele>
        <time>2020-03-14T15:05:36.000Z</time>
      </trkpt>
      <trkpt lat="45.89861" lon="4.49336">
        <ele>412.39999389648</ele>
        <time>2020-03-14T15:05:39.000Z</time>
      </trkpt>
      <trkpt lat="45.89857" lon="4.49333">
        <ele>413</ele>
        <time>2020-03-14T15:05:42.000Z</time>
      </trkpt>
      <trkpt lat="45.89853" lon="4.49329">
        <ele>413.79998779297</ele>
        <time>2020-03-14T15:05:45.000Z</time>
      </trkpt>
      <trkpt lat="45.89849" lon="4.49324">
        <ele>414.39999389648</ele>
        <time>2020-03-14T15:05:49.000Z</time>
      </trkpt>
      <trkpt lat="45.89846" lon="4.4932">
        <ele>415.20001220703</ele>
        <time>2020-03-14T15:05:52.000Z</time>
      </trkpt>
      <trkpt lat="45.89844" lon="4.49316">
        <ele>415.60000610352</ele>
        <time>2020-03-14T15:05:55.000Z</time>
      </trkpt>
      <trkpt lat="45.8984" lon="4.49313">
        <ele>416</ele>
        <time>2020-03-14T15:05:58.000Z</time>
      </trkpt>
      <trkpt lat="45.89838" lon="4.49311">
        <ele>416.60000610352</ele>
        <time>2020-03-14T15:06:01.000Z</time>
      </trkpt>
      <trkpt lat="45.89834" lon="4.49307">
        <ele>417</ele>
        <time>2020-03-14T15:06:04.000Z</time>
      </trkpt>
      <trkpt lat="45.89831" lon="4.49305">
        <ele>417.20001220703</ele>
        <time>2020-03-14T15:06:07.000Z</time>
      </trkpt>
      <trkpt lat="45.89828" lon="4.49302">
        <ele>417.20001220703</ele>
        <time>2020-03-14T15:06:10.000Z</time>
      </trkpt>
      <trkpt lat="45.89824" lon="4.49298">
        <ele>417.20001220703</ele>
        <time>2020-03-14T15:06:13.000Z</time>
      </trkpt>
      <trkpt lat="45.89821" lon="4.49294">
        <ele>417.20001220703</ele>
        <time>2020-03-14T15:06:16.000Z</time>
      </trkpt>
      <trkpt lat="45.89816" lon="4.4929">
        <ele>417.60000610352</ele>
        <time>2020-03-14T15:06:20.000Z</time>
      </trkpt>
      <trkpt lat="45.89813" lon="4.49287">
        <ele>418</ele>
        <time>2020-03-14T15:06:23.000Z</time>
      </trkpt>
      <trkpt lat="45.8981" lon="4.49284">
        <ele>418.60000610352</ele>
        <time>2020-03-14T15:06:26.000Z</time>
      </trkpt>
      <trkpt lat="45.89807" lon="4.49281">
        <ele>419.20001220703</ele>
        <time>2020-03-14T15:06:29.000Z</time>
      </trkpt>
      <trkpt lat="45.89803" lon="4.49279">
        <ele>419.60000610352</ele>
        <time>2020-03-14T15:06:32.000Z</time>
      </trkpt>
      <trkpt lat="45.89799" lon="4.49276">
        <ele>420.20001220703</ele>
        <time>2020-03-14T15:06:35.000Z</time>
      </trkpt>
      <trkpt lat="45.89795" lon="4.49273">
        <ele>421</ele>
        <time>2020-03-14T15:06:38.000Z</time>
      </trkpt>
      <trkpt lat="45.89792" lon="4.4927">
        <ele>421.60000610352</ele>
        <time>2020-03-14T15:06:41.000Z</time>
      </trkpt>
      <trkpt lat="45.89788" lon="4.49268">
        <ele>422.39999389648</ele>
        <time>2020-03-14T15:06:44.000Z</time>
      </trkpt>
      <trkpt lat="45.89785" lon="4.49266">
        <ele>422.60000610352</ele>
        <time>2020-03-14T15:06:47.000Z</time>
      </trkpt>
      <trkpt lat="45.89781" lon="4.49262">
        <ele>423.20001220703</ele>
        <time>2020-03-14T15:06:51.000Z</time>
      </trkpt>
      <trkpt lat="45.89778" lon="4.49259">
        <ele>424</ele>
        <time>2020-03-14T15:06:54.000Z</time>
      </trkpt>
      <trkpt lat="45.89774" lon="4.49259">
        <ele>424.39999389648</ele>
        <time>2020-03-14T15:06:57.000Z</time>
      </trkpt>
      <trkpt lat="45.89771" lon="4.49257">
        <ele>424.79998779297</ele>
        <time>2020-03-14T15:07:00.000Z</time>
      </trkpt>
      <trkpt lat="45.89769" lon="4.49251">
        <ele>425.20001220703</ele>
        <time>2020-03-14T15:07:03.000Z</time>
      </trkpt>
      <trkpt lat="45.89767" lon="4.49247">
        <ele>425.39999389648</ele>
        <time>2020-03-14T15:07:06.000Z</time>
      </trkpt>
      <trkpt lat="45.89763" lon="4.49242">
        <ele>425.39999389648</ele>
        <time>2020-03-14T15:07:09.000Z</time>
      </trkpt>
      <trkpt lat="45.8976" lon="4.49239">
        <ele>425.39999389648</ele>
        <time>2020-03-14T15:07:12.000Z</time>
      </trkpt>
      <trkpt lat="45.89758" lon="4.49235">
        <ele>426</ele>
        <time>2020-03-14T15:07:15.000Z</time>
      </trkpt>
      <trkpt lat="45.89755" lon="4.49229">
        <ele>426.60000610352</ele>
        <time>2020-03-14T15:07:19.000Z</time>
      </trkpt>
      <trkpt lat="45.89752" lon="4.49225">
        <ele>426.79998779297</ele>
        <time>2020-03-14T15:07:22.000Z</time>
      </trkpt>
      <trkpt lat="45.89749" lon="4.4922">
        <ele>426.79998779297</ele>
        <time>2020-03-14T15:07:25.000Z</time>
      </trkpt>
      <trkpt lat="45.89746" lon="4.49216">
        <ele>427.60000610352</ele>
        <time>2020-03-14T15:07:28.000Z</time>
      </trkpt>
      <trkpt lat="45.89743" lon="4.49212">
        <ele>428.20001220703</ele>
        <time>2020-03-14T15:07:31.000Z</time>
      </trkpt>
      <trkpt lat="45.89741" lon="4.49208">
        <ele>428.20001220703</ele>
        <time>2020-03-14T15:07:34.000Z</time>
      </trkpt>
      <trkpt lat="45.89739" lon="4.49204">
        <ele>428.39999389648</ele>
        <time>2020-03-14T15:07:37.000Z</time>
      </trkpt>
      <trkpt lat="45.89736" lon="4.49199">
        <ele>428.79998779297</ele>
        <time>2020-03-14T15:07:40.000Z</time>
      </trkpt>
      <trkpt lat="45.89733" lon="4.49195">
        <ele>429</ele>
        <time>2020-03-14T15:07:43.000Z</time>
      </trkpt>
      <trkpt lat="45.8973" lon="4.49191">
        <ele>429.20001220703</ele>
        <time>2020-03-14T15:07:46.000Z</time>
      </trkpt>
      <trkpt lat="45.89726" lon="4.49186">
        <ele>429.39999389648</ele>
        <time>2020-03-14T15:07:50.000Z</time>
      </trkpt>
      <trkpt lat="45.89724" lon="4.49182">
        <ele>430</ele>
        <time>2020-03-14T15:07:53.000Z</time>
      </trkpt>
      <trkpt lat="45.89722" lon="4.49178">
        <ele>430.39999389648</ele>
        <time>2020-03-14T15:07:56.000Z</time>
      </trkpt>
      <trkpt lat="45.8972" lon="4.49174">
        <ele>430.60000610352</ele>
        <time>2020-03-14T15:07:59.000Z</time>
      </trkpt>
      <trkpt lat="45.89718" lon="4.49171">
        <ele>431.39999389648</ele>
        <time>2020-03-14T15:08:02.000Z</time>
      </trkpt>
      <trkpt lat="45.89716" lon="4.49167">
        <ele>432</ele>
        <time>2020-03-14T15:08:05.000Z</time>
      </trkpt>
      <trkpt lat="45.89713" lon="4.49164">
        <ele>432.60000610352</ele>
        <time>2020-03-14T15:08:08.000Z</time>
      </trkpt>
      <trkpt lat="45.89711" lon="4.49161">
        <ele>433</ele>
        <time>2020-03-14T15:08:11.000Z</time>
      </trkpt>
      <trkpt lat="45.89707" lon="4.49159">
        <ele>433.20001220703</ele>
        <time>2020-03-14T15:08:14.000Z</time>
      </trkpt>
      <trkpt lat="45.89704" lon="4.49158">
        <ele>433.39999389648</ele>
        <time>2020-03-14T15:08:17.000Z</time>
      </trkpt>
      <trkpt lat="45.89699" lon="4.49156">
        <ele>434.20001220703</ele>
        <time>2020-03-14T15:08:21.000Z</time>
      </trkpt>
      <trkpt lat="45.89696" lon="4.49155">
        <ele>434.79998779297</ele>
        <time>2020-03-14T15:08:24.000Z</time>
      </trkpt>
      <trkpt lat="45.89693" lon="4.49154">
        <ele>435.79998779297</ele>
        <time>2020-03-14T15:08:27.000Z</time>
      </trkpt>
      <trkpt lat="45.89691" lon="4.49154">
        <ele>436.39999389648</ele>
        <time>2020-03-14T15:08:30.000Z</time>
      </trkpt>
      <trkpt lat="45.89687" lon="4.49152">
        <ele>437.20001220703</ele>
        <time>2020-03-14T15:08:33.000Z</time>
      </trkpt>
      <trkpt lat="45.89686" lon="4.49151">
        <ele>437.60000610352</ele>
        <time>2020-03-14T15:08:36.000Z</time>
      </trkpt>
      <trkpt lat="45.89684" lon="4.4915">
        <ele>438</ele>
        <time>2020-03-14T15:08:39.000Z</time>
      </trkpt>
      <trkpt lat="45.8968" lon="4.49149">
        <ele>438.60000610352</ele>
        <time>2020-03-14T15:08:42.000Z</time>
      </trkpt>
      <trkpt lat="45.89677" lon="4.49147">
        <ele>439.20001220703</ele>
        <time>2020-03-14T15:08:45.000Z</time>
      </trkpt>
      <trkpt lat="45.89672" lon="4.49145">
        <ele>439.39999389648</ele>
        <time>2020-03-14T15:08:48.000Z</time>
      </trkpt>
      <trkpt lat="45.89665" lon="4.49142">
        <ele>440</ele>
        <time>2020-03-14T15:08:52.000Z</time>
      </trkpt>
      <trkpt lat="45.89659" lon="4.49138">
        <ele>440</ele>
        <time>2020-03-14T15:08:55.000Z</time>
      </trkpt>
      <trkpt lat="45.89654" lon="4.49137">
        <ele>439.60000610352</ele>
        <time>2020-03-14T15:08:58.000Z</time>
      </trkpt>
      <trkpt lat="45.89649" lon="4.49138">
        <ele>439.79998779297</ele>
        <time>2020-03-14T15:09:01.000Z</time>
      </trkpt>
      <trkpt lat="45.89644" lon="4.49138">
        <ele>440</ele>
        <time>2020-03-14T15:09:04.000Z</time>
      </trkpt>
      <trkpt lat="45.89639" lon="4.49139">
        <ele>440.20001220703</ele>
        <time>2020-03-14T15:09:07.000Z</time>
      </trkpt>
      <trkpt lat="45.89634" lon="4.49139">
        <ele>440.39999389648</ele>
        <time>2020-03-14T15:09:10.000Z</time>
      </trkpt>
      <trkpt lat="45.89628" lon="4.4914">
        <ele>440.60000610352</ele>
        <time>2020-03-14T15:09:13.000Z</time>
      </trkpt>
      <trkpt lat="45.89623" lon="4.49137">
        <ele>440.79998779297</ele>
        <time>2020-03-14T15:09:16.000Z</time>
      </trkpt>
      <trkpt lat="45.89618" lon="4.49131">
        <ele>441.20001220703</ele>
        <time>2020-03-14T15:09:20.000Z</time>
      </trkpt>
      <trkpt lat="45.89615" lon="4.49129">
        <ele>441.60000610352</ele>
        <time>2020-03-14T15:09:23.000Z</time>
      </trkpt>
      <trkpt lat="45.89612" lon="4.49127">
        <ele>442</ele>
        <time>2020-03-14T15:09:26.000Z</time>
      </trkpt>
      <trkpt lat="45.89609" lon="4.49124">
        <ele>442.39999389648</ele>
        <time>2020-03-14T15:09:29.000Z</time>
      </trkpt>
      <trkpt lat="45.89607" lon="4.4912">
        <ele>443</ele>
        <time>2020-03-14T15:09:32.000Z</time>
      </trkpt>
      <trkpt lat="45.89604" lon="4.49118">
        <ele>443.60000610352</ele>
        <time>2020-03-14T15:09:35.000Z</time>
      </trkpt>
      <trkpt lat="45.89601" lon="4.49116">
        <ele>444.20001220703</ele>
        <time>2020-03-14T15:09:38.000Z</time>
      </trkpt>
      <trkpt lat="45.89598" lon="4.49115">
        <ele>444.79998779297</ele>
        <time>2020-03-14T15:09:41.000Z</time>
      </trkpt>
      <trkpt lat="45.89595" lon="4.49112">
        <ele>445.20001220703</ele>
        <time>2020-03-14T15:09:44.000Z</time>
      </trkpt>
      <trkpt lat="45.89591" lon="4.4911">
        <ele>446</ele>
        <time>2020-03-14T15:09:47.000Z</time>
      </trkpt>
      <trkpt lat="45.89588" lon="4.49107">
        <ele>447</ele>
        <time>2020-03-14T15:09:51.000Z</time>
      </trkpt>
      <trkpt lat="45.89585" lon="4.49106">
        <ele>447.60000610352</ele>
        <time>2020-03-14T15:09:54.000Z</time>
      </trkpt>
      <trkpt lat="45.89582" lon="4.49104">
        <ele>448.39999389648</ele>
        <time>2020-03-14T15:09:57.000Z</time>
      </trkpt>
      <trkpt lat="45.89579" lon="4.49102">
        <ele>448.79998779297</ele>
        <time>2020-03-14T15:10:00.000Z</time>
      </trkpt>
      <trkpt lat="45.89576" lon="4.491">
        <ele>449.39999389648</ele>
        <time>2020-03-14T15:10:03.000Z</time>
      </trkpt>
      <trkpt lat="45.89572" lon="4.491">
        <ele>449.79998779297</ele>
        <time>2020-03-14T15:10:06.000Z</time>
      </trkpt>
      <trkpt lat="45.8957" lon="4.49099">
        <ele>450.20001220703</ele>
        <time>2020-03-14T15:10:09.000Z</time>
      </trkpt>
      <trkpt lat="45.89567" lon="4.49097">
        <ele>450.79998779297</ele>
        <time>2020-03-14T15:10:12.000Z</time>
      </trkpt>
      <trkpt lat="45.89564" lon="4.49094">
        <ele>451</ele>
        <time>2020-03-14T15:10:15.000Z</time>
      </trkpt>
      <trkpt lat="45.89561" lon="4.49092">
        <ele>451.20001220703</ele>
        <time>2020-03-14T15:10:18.000Z</time>
      </trkpt>
      <trkpt lat="45.89557" lon="4.49089">
        <ele>452</ele>
        <time>2020-03-14T15:10:22.000Z</time>
      </trkpt>
      <trkpt lat="45.89554" lon="4.49087">
        <ele>452.39999389648</ele>
        <time>2020-03-14T15:10:25.000Z</time>
      </trkpt>
      <trkpt lat="45.8955" lon="4.49086">
        <ele>453</ele>
        <time>2020-03-14T15:10:28.000Z</time>
      </trkpt>
      <trkpt lat="45.89547" lon="4.49083">
        <ele>454.20001220703</ele>
        <time>2020-03-14T15:10:31.000Z</time>
      </trkpt>
      <trkpt lat="45.89545" lon="4.4908">
        <ele>454.39999389648</ele>
        <time>2020-03-14T15:10:34.000Z</time>
      </trkpt>
      <trkpt lat="45.89542" lon="4.49078">
        <ele>454.60000610352</ele>
        <time>2020-03-14T15:10:37.000Z</time>
      </trkpt>
      <trkpt lat="45.89539" lon="4.49076">
        <ele>455.20001220703</ele>
        <time>2020-03-14T15:10:40.000Z</time>
      </trkpt>
      <trkpt lat="45.89535" lon="4.49074">
        <ele>456.20001220703</ele>
        <time>2020-03-14T15:10:43.000Z</time>
      </trkpt>
      <trkpt lat="45.89532" lon="4.49073">
        <ele>456.79998779297</ele>
        <time>2020-03-14T15:10:46.000Z</time>
      </trkpt>
      <trkpt lat="45.89529" lon="4.49072">
        <ele>457.79998779297</ele>
        <time>2020-03-14T15:10:50.000Z</time>
      </trkpt>
      <trkpt lat="45.89526" lon="4.49072">
        <ele>458.39999389648</ele>
        <time>2020-03-14T15:10:53.000Z</time>
      </trkpt>
      <trkpt lat="45.89522" lon="4.49073">
        <ele>459</ele>
        <time>2020-03-14T15:10:56.000Z</time>
      </trkpt>
      <trkpt lat="45.89518" lon="4.49072">
        <ele>459.39999389648</ele>
        <time>2020-03-14T15:10:59.000Z</time>
      </trkpt>
      <trkpt lat="45.89515" lon="4.49068">
        <ele>459.60000610352</ele>
        <time>2020-03-14T15:11:02.000Z</time>
      </trkpt>
      <trkpt lat="45.89512" lon="4.49063">
        <ele>460.60000610352</ele>
        <time>2020-03-14T15:11:05.000Z</time>
      </trkpt>
      <trkpt lat="45.89509" lon="4.49059">
        <ele>461</ele>
        <time>2020-03-14T15:11:08.000Z</time>
      </trkpt>
      <trkpt lat="45.89506" lon="4.49056">
        <ele>461</ele>
        <time>2020-03-14T15:11:11.000Z</time>
      </trkpt>
      <trkpt lat="45.89504" lon="4.49052">
        <ele>461.20001220703</ele>
        <time>2020-03-14T15:11:14.000Z</time>
      </trkpt>
      <trkpt lat="45.89501" lon="4.49049">
        <ele>461.79998779297</ele>
        <time>2020-03-14T15:11:17.000Z</time>
      </trkpt>
      <trkpt lat="45.89498" lon="4.49044">
        <ele>462.39999389648</ele>
        <time>2020-03-14T15:11:21.000Z</time>
      </trkpt>
      <trkpt lat="45.89495" lon="4.4904">
        <ele>462.79998779297</ele>
        <time>2020-03-14T15:11:24.000Z</time>
      </trkpt>
      <trkpt lat="45.89492" lon="4.49036">
        <ele>463.60000610352</ele>
        <time>2020-03-14T15:11:27.000Z</time>
      </trkpt>
      <trkpt lat="45.89489" lon="4.49032">
        <ele>464.20001220703</ele>
        <time>2020-03-14T15:11:30.000Z</time>
      </trkpt>
      <trkpt lat="45.89485" lon="4.49028">
        <ele>464.79998779297</ele>
        <time>2020-03-14T15:11:33.000Z</time>
      </trkpt>
      <trkpt lat="45.89481" lon="4.49026">
        <ele>465</ele>
        <time>2020-03-14T15:11:36.000Z</time>
      </trkpt>
      <trkpt lat="45.89478" lon="4.49021">
        <ele>465</ele>
        <time>2020-03-14T15:11:39.000Z</time>
      </trkpt>
      <trkpt lat="45.89475" lon="4.49014">
        <ele>464.79998779297</ele>
        <time>2020-03-14T15:11:42.000Z</time>
      </trkpt>
      <trkpt lat="45.89474" lon="4.49008">
        <ele>465</ele>
        <time>2020-03-14T15:11:45.000Z</time>
      </trkpt>
      <trkpt lat="45.89472" lon="4.49002">
        <ele>465.79998779297</ele>
        <time>2020-03-14T15:11:48.000Z</time>
      </trkpt>
      <trkpt lat="45.8947" lon="4.48996">
        <ele>466.60000610352</ele>
        <time>2020-03-14T15:11:52.000Z</time>
      </trkpt>
      <trkpt lat="45.8947" lon="4.4899">
        <ele>467</ele>
        <time>2020-03-14T15:11:55.000Z</time>
      </trkpt>
      <trkpt lat="45.89469" lon="4.48985">
        <ele>467.79998779297</ele>
        <time>2020-03-14T15:11:58.000Z</time>
      </trkpt>
      <trkpt lat="45.89468" lon="4.48979">
        <ele>468.20001220703</ele>
        <time>2020-03-14T15:12:01.000Z</time>
      </trkpt>
      <trkpt lat="45.89466" lon="4.48975">
        <ele>468.39999389648</ele>
        <time>2020-03-14T15:12:04.000Z</time>
      </trkpt>
      <trkpt lat="45.89463" lon="4.48968">
        <ele>468.60000610352</ele>
        <time>2020-03-14T15:12:07.000Z</time>
      </trkpt>
      <trkpt lat="45.89462" lon="4.4896">
        <ele>468.79998779297</ele>
        <time>2020-03-14T15:12:10.000Z</time>
      </trkpt>
      <trkpt lat="45.89462" lon="4.48954">
        <ele>468.79998779297</ele>
        <time>2020-03-14T15:12:13.000Z</time>
      </trkpt>
      <trkpt lat="45.89465" lon="4.48949">
        <ele>469</ele>
        <time>2020-03-14T15:12:16.000Z</time>
      </trkpt>
      <trkpt lat="45.89468" lon="4.48945">
        <ele>469</ele>
        <time>2020-03-14T15:12:20.000Z</time>
      </trkpt>
      <trkpt lat="45.8947" lon="4.48942">
        <ele>469.20001220703</ele>
        <time>2020-03-14T15:12:23.000Z</time>
      </trkpt>
      <trkpt lat="45.89473" lon="4.48937">
        <ele>469.39999389648</ele>
        <time>2020-03-14T15:12:26.000Z</time>
      </trkpt>
      <trkpt lat="45.89475" lon="4.48931">
        <ele>469.79998779297</ele>
        <time>2020-03-14T15:12:29.000Z</time>
      </trkpt>
      <trkpt lat="45.89478" lon="4.48926">
        <ele>470.79998779297</ele>
        <time>2020-03-14T15:12:32.000Z</time>
      </trkpt>
      <trkpt lat="45.8948" lon="4.48921">
        <ele>472.20001220703</ele>
        <time>2020-03-14T15:12:35.000Z</time>
      </trkpt>
      <trkpt lat="45.89482" lon="4.48915">
        <ele>473.20001220703</ele>
        <time>2020-03-14T15:12:38.000Z</time>
      </trkpt>
      <trkpt lat="45.89483" lon="4.48911">
        <ele>473.79998779297</ele>
        <time>2020-03-14T15:12:41.000Z</time>
      </trkpt>
      <trkpt lat="45.89485" lon="4.48906">
        <ele>474.39999389648</ele>
        <time>2020-03-14T15:12:44.000Z</time>
      </trkpt>
      <trkpt lat="45.89486" lon="4.48901">
        <ele>475</ele>
        <time>2020-03-14T15:12:47.000Z</time>
      </trkpt>
      <trkpt lat="45.89487" lon="4.48894">
        <ele>475.79998779297</ele>
        <time>2020-03-14T15:12:51.000Z</time>
      </trkpt>
      <trkpt lat="45.8949" lon="4.48892">
        <ele>476</ele>
        <time>2020-03-14T15:12:54.000Z</time>
      </trkpt>
      <trkpt lat="45.89492" lon="4.48887">
        <ele>476.39999389648</ele>
        <time>2020-03-14T15:12:57.000Z</time>
      </trkpt>
      <trkpt lat="45.89494" lon="4.48883">
        <ele>477</ele>
        <time>2020-03-14T15:13:00.000Z</time>
      </trkpt>
      <trkpt lat="45.89496" lon="4.48878">
        <ele>477.79998779297</ele>
        <time>2020-03-14T15:13:03.000Z</time>
      </trkpt>
      <trkpt lat="45.89497" lon="4.48873">
        <ele>478.79998779297</ele>
        <time>2020-03-14T15:13:06.000Z</time>
      </trkpt>
      <trkpt lat="45.89498" lon="4.48869">
        <ele>479.39999389648</ele>
        <time>2020-03-14T15:13:09.000Z</time>
      </trkpt>
      <trkpt lat="45.895" lon="4.48864">
        <ele>479.79998779297</ele>
        <time>2020-03-14T15:13:12.000Z</time>
      </trkpt>
      <trkpt lat="45.89502" lon="4.48861">
        <ele>480.20001220703</ele>
        <time>2020-03-14T15:13:15.000Z</time>
      </trkpt>
      <trkpt lat="45.89503" lon="4.48857">
        <ele>480.79998779297</ele>
        <time>2020-03-14T15:13:18.000Z</time>
      </trkpt>
      <trkpt lat="45.89504" lon="4.4885">
        <ele>481.39999389648</ele>
        <time>2020-03-14T15:13:22.000Z</time>
      </trkpt>
      <trkpt lat="45.89505" lon="4.48845">
        <ele>481.39999389648</ele>
        <time>2020-03-14T15:13:25.000Z</time>
      </trkpt>
      <trkpt lat="45.89506" lon="4.48841">
        <ele>482.20001220703</ele>
        <time>2020-03-14T15:13:28.000Z</time>
      </trkpt>
      <trkpt lat="45.89508" lon="4.48837">
        <ele>483</ele>
        <time>2020-03-14T15:13:31.000Z</time>
      </trkpt>
      <trkpt lat="45.89508" lon="4.48832">
        <ele>483.60000610352</ele>
        <time>2020-03-14T15:13:34.000Z</time>
      </trkpt>
      <trkpt lat="45.89509" lon="4.48827">
        <ele>484.39999389648</ele>
        <time>2020-03-14T15:13:37.000Z</time>
      </trkpt>
      <trkpt lat="45.8951" lon="4.48823">
        <ele>484.60000610352</ele>
        <time>2020-03-14T15:13:40.000Z</time>
      </trkpt>
      <trkpt lat="45.89511" lon="4.48818">
        <ele>484.60000610352</ele>
        <time>2020-03-14T15:13:43.000Z</time>
      </trkpt>
      <trkpt lat="45.89511" lon="4.48813">
        <ele>484.60000610352</ele>
        <time>2020-03-14T15:13:46.000Z</time>
      </trkpt>
      <trkpt lat="45.89512" lon="4.48807">
        <ele>485</ele>
        <time>2020-03-14T15:13:49.000Z</time>
      </trkpt>
      <trkpt lat="45.89512" lon="4.48801">
        <ele>486.39999389648</ele>
        <time>2020-03-14T15:13:53.000Z</time>
      </trkpt>
      <trkpt lat="45.89513" lon="4.48796">
        <ele>486.79998779297</ele>
        <time>2020-03-14T15:13:56.000Z</time>
      </trkpt>
      <trkpt lat="45.89513" lon="4.4879">
        <ele>487.39999389648</ele>
        <time>2020-03-14T15:13:59.000Z</time>
      </trkpt>
      <trkpt lat="45.89513" lon="4.48785">
        <ele>488</ele>
        <time>2020-03-14T15:14:02.000Z</time>
      </trkpt>
      <trkpt lat="45.89513" lon="4.4878">
        <ele>488</ele>
        <time>2020-03-14T15:14:05.000Z</time>
      </trkpt>
      <trkpt lat="45.89512" lon="4.48775">
        <ele>488.20001220703</ele>
        <time>2020-03-14T15:14:08.000Z</time>
      </trkpt>
      <trkpt lat="45.89512" lon="4.48771">
        <ele>488.60000610352</ele>
        <time>2020-03-14T15:14:11.000Z</time>
      </trkpt>
      <trkpt lat="45.89512" lon="4.48766">
        <ele>489.20001220703</ele>
        <time>2020-03-14T15:14:14.000Z</time>
      </trkpt>
      <trkpt lat="45.89512" lon="4.4876">
        <ele>489.60000610352</ele>
        <time>2020-03-14T15:14:17.000Z</time>
      </trkpt>
      <trkpt lat="45.89511" lon="4.48754">
        <ele>490</ele>
        <time>2020-03-14T15:14:21.000Z</time>
      </trkpt>
      <trkpt lat="45.89509" lon="4.48748">
        <ele>490.39999389648</ele>
        <time>2020-03-14T15:14:24.000Z</time>
      </trkpt>
      <trkpt lat="45.89507" lon="4.48743">
        <ele>490.60000610352</ele>
        <time>2020-03-14T15:14:27.000Z</time>
      </trkpt>
      <trkpt lat="45.89506" lon="4.48738">
        <ele>491</ele>
        <time>2020-03-14T15:14:30.000Z</time>
      </trkpt>
      <trkpt lat="45.89504" lon="4.48734">
        <ele>491.20001220703</ele>
        <time>2020-03-14T15:14:33.000Z</time>
      </trkpt>
      <trkpt lat="45.89503" lon="4.48728">
        <ele>491.20001220703</ele>
        <time>2020-03-14T15:14:36.000Z</time>
      </trkpt>
      <trkpt lat="45.89502" lon="4.48724">
        <ele>491.20001220703</ele>
        <time>2020-03-14T15:14:39.000Z</time>
      </trkpt>
      <trkpt lat="45.89502" lon="4.48719">
        <ele>491.39999389648</ele>
        <time>2020-03-14T15:14:42.000Z</time>
      </trkpt>
      <trkpt lat="45.89501" lon="4.48714">
        <ele>491.39999389648</ele>
        <time>2020-03-14T15:14:45.000Z</time>
      </trkpt>
      <trkpt lat="45.89501" lon="4.48709">
        <ele>492</ele>
        <time>2020-03-14T15:14:48.000Z</time>
      </trkpt>
      <trkpt lat="45.895" lon="4.48702">
        <ele>492.79998779297</ele>
        <time>2020-03-14T15:14:52.000Z</time>
      </trkpt>
      <trkpt lat="45.89498" lon="4.48697">
        <ele>493.39999389648</ele>
        <time>2020-03-14T15:14:55.000Z</time>
      </trkpt>
      <trkpt lat="45.89496" lon="4.48691">
        <ele>493.60000610352</ele>
        <time>2020-03-14T15:14:58.000Z</time>
      </trkpt>
      <trkpt lat="45.89496" lon="4.48686">
        <ele>493.60000610352</ele>
        <time>2020-03-14T15:15:01.000Z</time>
      </trkpt>
      <trkpt lat="45.895" lon="4.48683">
        <ele>494.20001220703</ele>
        <time>2020-03-14T15:15:04.000Z</time>
      </trkpt>
      <trkpt lat="45.89503" lon="4.48681">
        <ele>494.60000610352</ele>
        <time>2020-03-14T15:15:07.000Z</time>
      </trkpt>
      <trkpt lat="45.89507" lon="4.48679">
        <ele>495.39999389648</ele>
        <time>2020-03-14T15:15:10.000Z</time>
      </trkpt>
      <trkpt lat="45.8951" lon="4.48677">
        <ele>496</ele>
        <time>2020-03-14T15:15:13.000Z</time>
      </trkpt>
      <trkpt lat="45.89514" lon="4.48673">
        <ele>496.39999389648</ele>
        <time>2020-03-14T15:15:16.000Z</time>
      </trkpt>
      <trkpt lat="45.89517" lon="4.48669">
        <ele>496.79998779297</ele>
        <time>2020-03-14T15:15:19.000Z</time>
      </trkpt>
      <trkpt lat="45.89521" lon="4.48665">
        <ele>497.20001220703</ele>
        <time>2020-03-14T15:15:23.000Z</time>
      </trkpt>
      <trkpt lat="45.89524" lon="4.48661">
        <ele>497.79998779297</ele>
        <time>2020-03-14T15:15:26.000Z</time>
      </trkpt>
      <trkpt lat="45.89527" lon="4.48656">
        <ele>498.60000610352</ele>
        <time>2020-03-14T15:15:29.000Z</time>
      </trkpt>
      <trkpt lat="45.8953" lon="4.48652">
        <ele>499.20001220703</ele>
        <time>2020-03-14T15:15:32.000Z</time>
      </trkpt>
      <trkpt lat="45.89532" lon="4.48648">
        <ele>499.60000610352</ele>
        <time>2020-03-14T15:15:35.000Z</time>
      </trkpt>
      <trkpt lat="45.89534" lon="4.48643">
        <ele>500.20001220703</ele>
        <time>2020-03-14T15:15:38.000Z</time>
      </trkpt>
      <trkpt lat="45.89536" lon="4.48638">
        <ele>500.79998779297</ele>
        <time>2020-03-14T15:15:41.000Z</time>
      </trkpt>
      <trkpt lat="45.89539" lon="4.48633">
        <ele>501.39999389648</ele>
        <time>2020-03-14T15:15:44.000Z</time>
      </trkpt>
      <trkpt lat="45.89541" lon="4.48629">
        <ele>502</ele>
        <time>2020-03-14T15:15:47.000Z</time>
      </trkpt>
      <trkpt lat="45.89543" lon="4.48622">
        <ele>502.79998779297</ele>
        <time>2020-03-14T15:15:51.000Z</time>
      </trkpt>
      <trkpt lat="45.89545" lon="4.48617">
        <ele>503</ele>
        <time>2020-03-14T15:15:54.000Z</time>
      </trkpt>
      <trkpt lat="45.89547" lon="4.48611">
        <ele>503.39999389648</ele>
        <time>2020-03-14T15:15:57.000Z</time>
      </trkpt>
      <trkpt lat="45.89548" lon="4.48606">
        <ele>503.79998779297</ele>
        <time>2020-03-14T15:16:00.000Z</time>
      </trkpt>
      <trkpt lat="45.8955" lon="4.48601">
        <ele>504</ele>
        <time>2020-03-14T15:16:03.000Z</time>
      </trkpt>
      <trkpt lat="45.89552" lon="4.48595">
        <ele>504.20001220703</ele>
        <time>2020-03-14T15:16:06.000Z</time>
      </trkpt>
      <trkpt lat="45.89553" lon="4.48589">
        <ele>504.60000610352</ele>
        <time>2020-03-14T15:16:09.000Z</time>
      </trkpt>
      <trkpt lat="45.89554" lon="4.48583">
        <ele>504.79998779297</ele>
        <time>2020-03-14T15:16:12.000Z</time>
      </trkpt>
      <trkpt lat="45.89556" lon="4.48577">
        <ele>505.39999389648</ele>
        <time>2020-03-14T15:16:15.000Z</time>
      </trkpt>
      <trkpt lat="45.89559" lon="4.48576">
        <ele>506.39999389648</ele>
        <time>2020-03-14T15:16:18.000Z</time>
      </trkpt>
      <trkpt lat="45.89558" lon="4.48576">
        <ele>506.60000610352</ele>
        <time>2020-03-14T15:16:22.000Z</time>
      </trkpt>
      <trkpt lat="45.89557" lon="4.48575">
        <ele>506.79998779297</ele>
        <time>2020-03-14T15:16:25.000Z</time>
      </trkpt>
      <trkpt lat="45.89556" lon="4.48575">
        <ele>507</ele>
        <time>2020-03-14T15:16:28.000Z</time>
      </trkpt>
      <trkpt lat="45.89558" lon="4.48576">
        <ele>506.60000610352</ele>
        <time>2020-03-14T15:16:31.000Z</time>
      </trkpt>
      <trkpt lat="45.89558" lon="4.48576">
        <ele>506.60000610352</ele>
        <time>2020-03-14T15:16:34.000Z</time>
      </trkpt>
      <trkpt lat="45.89558" lon="4.48577">
        <ele>507.20001220703</ele>
        <time>2020-03-14T15:16:37.000Z</time>
      </trkpt>
      <trkpt lat="45.8956" lon="4.4858">
        <ele>507.39999389648</ele>
        <time>2020-03-14T15:16:40.000Z</time>
      </trkpt>
      <trkpt lat="45.89561" lon="4.48581">
        <ele>507.39999389648</ele>
        <time>2020-03-14T15:16:43.000Z</time>
      </trkpt>
      <trkpt lat="45.8956" lon="4.48581">
        <ele>507.39999389648</ele>
        <time>2020-03-14T15:16:46.000Z</time>
      </trkpt>
      <trkpt lat="45.8956" lon="4.4858">
        <ele>507.39999389648</ele>
        <time>2020-03-14T15:16:49.000Z</time>
      </trkpt>
      <trkpt lat="45.89561" lon="4.48581">
        <ele>507.79998779297</ele>
        <time>2020-03-14T15:16:53.000Z</time>
      </trkpt>
      <trkpt lat="45.89561" lon="4.48581">
        <ele>507.60000610352</ele>
        <time>2020-03-14T15:16:56.000Z</time>
      </trkpt>
      <trkpt lat="45.89562" lon="4.48581">
        <ele>507.39999389648</ele>
        <time>2020-03-14T15:16:59.000Z</time>
      </trkpt>
      <trkpt lat="45.89562" lon="4.48581">
        <ele>507</ele>
        <time>2020-03-14T15:17:02.000Z</time>
      </trkpt>
      <trkpt lat="45.89562" lon="4.48581">
        <ele>507</ele>
        <time>2020-03-14T15:17:05.000Z</time>
      </trkpt>
      <trkpt lat="45.89562" lon="4.48581">
        <ele>507.39999389648</ele>
        <time>2020-03-14T15:17:08.000Z</time>
      </trkpt>
      <trkpt lat="45.89562" lon="4.48581">
        <ele>507.60000610352</ele>
        <time>2020-03-14T15:17:11.000Z</time>
      </trkpt>
      <trkpt lat="45.89562" lon="4.4858">
        <ele>507.79998779297</ele>
        <time>2020-03-14T15:17:14.000Z</time>
      </trkpt>
      <trkpt lat="45.89562" lon="4.48581">
        <ele>507.79998779297</ele>
        <time>2020-03-14T15:17:17.000Z</time>
      </trkpt>
      <trkpt lat="45.89562" lon="4.48581">
        <ele>508</ele>
        <time>2020-03-14T15:17:21.000Z</time>
      </trkpt>
      <trkpt lat="45.89562" lon="4.48581">
        <ele>508</ele>
        <time>2020-03-14T15:17:24.000Z</time>
      </trkpt>
      <trkpt lat="45.89563" lon="4.48581">
        <ele>508</ele>
        <time>2020-03-14T15:17:27.000Z</time>
      </trkpt>
      <trkpt lat="45.89563" lon="4.48581">
        <ele>508.20001220703</ele>
        <time>2020-03-14T15:17:30.000Z</time>
      </trkpt>
      <trkpt lat="45.89563" lon="4.48581">
        <ele>508.39999389648</ele>
        <time>2020-03-14T15:17:33.000Z</time>
      </trkpt>
      <trkpt lat="45.89563" lon="4.48581">
        <ele>508.79998779297</ele>
        <time>2020-03-14T15:17:36.000Z</time>
      </trkpt>
      <trkpt lat="45.89562" lon="4.48581">
        <ele>509</ele>
        <time>2020-03-14T15:17:39.000Z</time>
      </trkpt>
      <trkpt lat="45.89559" lon="4.48579">
        <ele>509</ele>
        <time>2020-03-14T15:17:42.000Z</time>
      </trkpt>
      <trkpt lat="45.8956" lon="4.48578">
        <ele>508.79998779297</ele>
        <time>2020-03-14T15:17:45.000Z</time>
      </trkpt>
      <trkpt lat="45.8956" lon="4.48578">
        <ele>508.79998779297</ele>
        <time>2020-03-14T15:17:48.000Z</time>
      </trkpt>
      <trkpt lat="45.8956" lon="4.48578">
        <ele>508.60000610352</ele>
        <time>2020-03-14T15:17:52.000Z</time>
      </trkpt>
      <trkpt lat="45.89559" lon="4.48578">
        <ele>508.20001220703</ele>
        <time>2020-03-14T15:17:55.000Z</time>
      </trkpt>
      <trkpt lat="45.89558" lon="4.48578">
        <ele>507.79998779297</ele>
        <time>2020-03-14T15:17:58.000Z</time>
      </trkpt>
      <trkpt lat="45.89558" lon="4.48578">
        <ele>507.79998779297</ele>
        <time>2020-03-14T15:18:01.000Z</time>
      </trkpt>
      <trkpt lat="45.89558" lon="4.48578">
        <ele>508</ele>
        <time>2020-03-14T15:18:04.000Z</time>
      </trkpt>
      <trkpt lat="45.89558" lon="4.48578">
        <ele>508.39999389648</ele>
        <time>2020-03-14T15:18:07.000Z</time>
      </trkpt>
      <trkpt lat="45.8956" lon="4.48577">
        <ele>508.79998779297</ele>
        <time>2020-03-14T15:18:10.000Z</time>
      </trkpt>
      <trkpt lat="45.89561" lon="4.48574">
        <ele>508.60000610352</ele>
        <time>2020-03-14T15:18:13.000Z</time>
      </trkpt>
      <trkpt lat="45.89561" lon="4.48571">
        <ele>508</ele>
        <time>2020-03-14T15:18:16.000Z</time>
      </trkpt>
      <trkpt lat="45.89564" lon="4.48562">
        <ele>507.79998779297</ele>
        <time>2020-03-14T15:18:19.000Z</time>
      </trkpt>
      <trkpt lat="45.89567" lon="4.48545">
        <ele>507</ele>
        <time>2020-03-14T15:18:23.000Z</time>
      </trkpt>
      <trkpt lat="45.8957" lon="4.48528">
        <ele>506.60000610352</ele>
        <time>2020-03-14T15:18:26.000Z</time>
      </trkpt>
      <trkpt lat="45.89571" lon="4.48511">
        <ele>506.79998779297</ele>
        <time>2020-03-14T15:18:29.000Z</time>
      </trkpt>
      <trkpt lat="45.89568" lon="4.48491">
        <ele>506</ele>
        <time>2020-03-14T15:18:32.000Z</time>
      </trkpt>
      <trkpt lat="45.89564" lon="4.48468">
        <ele>505.60000610352</ele>
        <time>2020-03-14T15:18:35.000Z</time>
      </trkpt>
      <trkpt lat="45.8956" lon="4.48445">
        <ele>505.39999389648</ele>
        <time>2020-03-14T15:18:38.000Z</time>
      </trkpt>
      <trkpt lat="45.89556" lon="4.48421">
        <ele>504.39999389648</ele>
        <time>2020-03-14T15:18:41.000Z</time>
      </trkpt>
      <trkpt lat="45.89553" lon="4.48398">
        <ele>503.20001220703</ele>
        <time>2020-03-14T15:18:44.000Z</time>
      </trkpt>
      <trkpt lat="45.89551" lon="4.48375">
        <ele>502</ele>
        <time>2020-03-14T15:18:47.000Z</time>
      </trkpt>
      <trkpt lat="45.89551" lon="4.48354">
        <ele>501.39999389648</ele>
        <time>2020-03-14T15:18:50.000Z</time>
      </trkpt>
      <trkpt lat="45.89554" lon="4.48328">
        <ele>501</ele>
        <time>2020-03-14T15:18:54.000Z</time>
      </trkpt>
      <trkpt lat="45.8956" lon="4.48314">
        <ele>500.60000610352</ele>
        <time>2020-03-14T15:18:57.000Z</time>
      </trkpt>
      <trkpt lat="45.89564" lon="4.48305">
        <ele>501.20001220703</ele>
        <time>2020-03-14T15:19:00.000Z</time>
      </trkpt>
      <trkpt lat="45.89569" lon="4.48297">
        <ele>501.39999389648</ele>
        <time>2020-03-14T15:19:03.000Z</time>
      </trkpt>
      <trkpt lat="45.89573" lon="4.48288">
        <ele>501</ele>
        <time>2020-03-14T15:19:06.000Z</time>
      </trkpt>
      <trkpt lat="45.89578" lon="4.48279">
        <ele>500.79998779297</ele>
        <time>2020-03-14T15:19:09.000Z</time>
      </trkpt>
      <trkpt lat="45.89582" lon="4.48269">
        <ele>501.20001220703</ele>
        <time>2020-03-14T15:19:12.000Z</time>
      </trkpt>
      <trkpt lat="45.89587" lon="4.48258">
        <ele>501.60000610352</ele>
        <time>2020-03-14T15:19:15.000Z</time>
      </trkpt>
      <trkpt lat="45.89591" lon="4.48248">
        <ele>502</ele>
        <time>2020-03-14T15:19:18.000Z</time>
      </trkpt>
      <trkpt lat="45.89604" lon="4.48236">
        <ele>502.20001220703</ele>
        <time>2020-03-14T15:19:22.000Z</time>
      </trkpt>
      <trkpt lat="45.8961" lon="4.48226">
        <ele>502</ele>
        <time>2020-03-14T15:19:25.000Z</time>
      </trkpt>
      <trkpt lat="45.89616" lon="4.48217">
        <ele>502.20001220703</ele>
        <time>2020-03-14T15:19:28.000Z</time>
      </trkpt>
      <trkpt lat="45.89621" lon="4.48207">
        <ele>502.39999389648</ele>
        <time>2020-03-14T15:19:31.000Z</time>
      </trkpt>
      <trkpt lat="45.89626" lon="4.48197">
        <ele>502.79998779297</ele>
        <time>2020-03-14T15:19:34.000Z</time>
      </trkpt>
      <trkpt lat="45.89627" lon="4.48186">
        <ele>503</ele>
        <time>2020-03-14T15:19:37.000Z</time>
      </trkpt>
      <trkpt lat="45.89636" lon="4.48174">
        <ele>503</ele>
        <time>2020-03-14T15:19:40.000Z</time>
      </trkpt>
      <trkpt lat="45.89643" lon="4.4816">
        <ele>502.60000610352</ele>
        <time>2020-03-14T15:19:43.000Z</time>
      </trkpt>
      <trkpt lat="45.89649" lon="4.48147">
        <ele>502.20001220703</ele>
        <time>2020-03-14T15:19:46.000Z</time>
      </trkpt>
      <trkpt lat="45.89655" lon="4.48133">
        <ele>502.39999389648</ele>
        <time>2020-03-14T15:19:49.000Z</time>
      </trkpt>
      <trkpt lat="45.89663" lon="4.48118">
        <ele>503</ele>
        <time>2020-03-14T15:19:53.000Z</time>
      </trkpt>
      <trkpt lat="45.89666" lon="4.4811">
        <ele>503.60000610352</ele>
        <time>2020-03-14T15:19:56.000Z</time>
      </trkpt>
      <trkpt lat="45.89672" lon="4.48105">
        <ele>504.20001220703</ele>
        <time>2020-03-14T15:19:59.000Z</time>
      </trkpt>
      <trkpt lat="45.89658" lon="4.48085">
        <ele>505</ele>
        <time>2020-03-14T15:20:02.000Z</time>
      </trkpt>
      <trkpt lat="45.89657" lon="4.48077">
        <ele>506.20001220703</ele>
        <time>2020-03-14T15:20:05.000Z</time>
      </trkpt>
      <trkpt lat="45.89658" lon="4.4807">
        <ele>507</ele>
        <time>2020-03-14T15:20:08.000Z</time>
      </trkpt>
      <trkpt lat="45.89662" lon="4.48064">
        <ele>507.20001220703</ele>
        <time>2020-03-14T15:20:11.000Z</time>
      </trkpt>
      <trkpt lat="45.89667" lon="4.48059">
        <ele>507.39999389648</ele>
        <time>2020-03-14T15:20:14.000Z</time>
      </trkpt>
      <trkpt lat="45.8967" lon="4.4805">
        <ele>507.79998779297</ele>
        <time>2020-03-14T15:20:17.000Z</time>
      </trkpt>
      <trkpt lat="45.89674" lon="4.48043">
        <ele>508</ele>
        <time>2020-03-14T15:20:20.000Z</time>
      </trkpt>
      <trkpt lat="45.89679" lon="4.48036">
        <ele>508.20001220703</ele>
        <time>2020-03-14T15:20:24.000Z</time>
      </trkpt>
      <trkpt lat="45.89685" lon="4.4803">
        <ele>508.60000610352</ele>
        <time>2020-03-14T15:20:27.000Z</time>
      </trkpt>
      <trkpt lat="45.89693" lon="4.48022">
        <ele>508.79998779297</ele>
        <time>2020-03-14T15:20:30.000Z</time>
      </trkpt>
      <trkpt lat="45.89701" lon="4.48016">
        <ele>508.39999389648</ele>
        <time>2020-03-14T15:20:33.000Z</time>
      </trkpt>
      <trkpt lat="45.8971" lon="4.48007">
        <ele>508</ele>
        <time>2020-03-14T15:20:36.000Z</time>
      </trkpt>
      <trkpt lat="45.89719" lon="4.48">
        <ele>507.20001220703</ele>
        <time>2020-03-14T15:20:39.000Z</time>
      </trkpt>
      <trkpt lat="45.8973" lon="4.47997">
        <ele>506.60000610352</ele>
        <time>2020-03-14T15:20:42.000Z</time>
      </trkpt>
      <trkpt lat="45.89743" lon="4.47998">
        <ele>506</ele>
        <time>2020-03-14T15:20:45.000Z</time>
      </trkpt>
      <trkpt lat="45.89758" lon="4.48">
        <ele>506</ele>
        <time>2020-03-14T15:20:48.000Z</time>
      </trkpt>
      <trkpt lat="45.89774" lon="4.4801">
        <ele>507</ele>
        <time>2020-03-14T15:20:52.000Z</time>
      </trkpt>
      <trkpt lat="45.89783" lon="4.48017">
        <ele>507.60000610352</ele>
        <time>2020-03-14T15:20:55.000Z</time>
      </trkpt>
      <trkpt lat="45.89793" lon="4.48027">
        <ele>508.39999389648</ele>
        <time>2020-03-14T15:20:58.000Z</time>
      </trkpt>
      <trkpt lat="45.89802" lon="4.48034">
        <ele>509.39999389648</ele>
        <time>2020-03-14T15:21:01.000Z</time>
      </trkpt>
      <trkpt lat="45.89811" lon="4.48038">
        <ele>509.79998779297</ele>
        <time>2020-03-14T15:21:04.000Z</time>
      </trkpt>
      <trkpt lat="45.89819" lon="4.4804">
        <ele>510.60000610352</ele>
        <time>2020-03-14T15:21:07.000Z</time>
      </trkpt>
      <trkpt lat="45.89824" lon="4.48041">
        <ele>510.60000610352</ele>
        <time>2020-03-14T15:21:10.000Z</time>
      </trkpt>
      <trkpt lat="45.89826" lon="4.48041">
        <ele>510.39999389648</ele>
        <time>2020-03-14T15:21:13.000Z</time>
      </trkpt>
      <trkpt lat="45.89826" lon="4.48041">
        <ele>510.20001220703</ele>
        <time>2020-03-14T15:21:16.000Z</time>
      </trkpt>
      <trkpt lat="45.89826" lon="4.48041">
        <ele>510</ele>
        <time>2020-03-14T15:21:19.000Z</time>
      </trkpt>
      <trkpt lat="45.89826" lon="4.48041">
        <ele>509.60000610352</ele>
        <time>2020-03-14T15:21:23.000Z</time>
      </trkpt>
      <trkpt lat="45.89826" lon="4.48041">
        <ele>509.60000610352</ele>
        <time>2020-03-14T15:21:26.000Z</time>
      </trkpt>
      <trkpt lat="45.89827" lon="4.48041">
        <ele>509.79998779297</ele>
        <time>2020-03-14T15:21:29.000Z</time>
      </trkpt>
      <trkpt lat="45.89827" lon="4.48041">
        <ele>509.79998779297</ele>
        <time>2020-03-14T15:21:32.000Z</time>
      </trkpt>
      <trkpt lat="45.89827" lon="4.48041">
        <ele>509.79998779297</ele>
        <time>2020-03-14T15:21:35.000Z</time>
      </trkpt>
      <trkpt lat="45.89829" lon="4.48039">
        <ele>509.60000610352</ele>
        <time>2020-03-14T15:21:38.000Z</time>
      </trkpt>
      <trkpt lat="45.89836" lon="4.48038">
        <ele>510</ele>
        <time>2020-03-14T15:21:41.000Z</time>
      </trkpt>
      <trkpt lat="45.89844" lon="4.48036">
        <ele>510</ele>
        <time>2020-03-14T15:21:44.000Z</time>
      </trkpt>
      <trkpt lat="45.89851" lon="4.48031">
        <ele>509.39999389648</ele>
        <time>2020-03-14T15:21:47.000Z</time>
      </trkpt>
      <trkpt lat="45.89858" lon="4.48024">
        <ele>509.39999389648</ele>
        <time>2020-03-14T15:21:50.000Z</time>
      </trkpt>
      <trkpt lat="45.89867" lon="4.48016">
        <ele>510.39999389648</ele>
        <time>2020-03-14T15:21:54.000Z</time>
      </trkpt>
      <trkpt lat="45.89873" lon="4.48008">
        <ele>510.20001220703</ele>
        <time>2020-03-14T15:21:57.000Z</time>
      </trkpt>
      <trkpt lat="45.89879" lon="4.47995">
        <ele>510.20001220703</ele>
        <time>2020-03-14T15:22:00.000Z</time>
      </trkpt>
      <trkpt lat="45.89887" lon="4.47982">
        <ele>510.20001220703</ele>
        <time>2020-03-14T15:22:03.000Z</time>
      </trkpt>
      <trkpt lat="45.89893" lon="4.47969">
        <ele>510.20001220703</ele>
        <time>2020-03-14T15:22:06.000Z</time>
      </trkpt>
      <trkpt lat="45.89899" lon="4.47958">
        <ele>510.60000610352</ele>
        <time>2020-03-14T15:22:09.000Z</time>
      </trkpt>
      <trkpt lat="45.89903" lon="4.47947">
        <ele>511</ele>
        <time>2020-03-14T15:22:12.000Z</time>
      </trkpt>
      <trkpt lat="45.89909" lon="4.47936">
        <ele>511.39999389648</ele>
        <time>2020-03-14T15:22:15.000Z</time>
      </trkpt>
      <trkpt lat="45.89915" lon="4.47924">
        <ele>511.79998779297</ele>
        <time>2020-03-14T15:22:18.000Z</time>
      </trkpt>
      <trkpt lat="45.89923" lon="4.47909">
        <ele>511.60000610352</ele>
        <time>2020-03-14T15:22:22.000Z</time>
      </trkpt>
      <trkpt lat="45.8993" lon="4.47898">
        <ele>511.39999389648</ele>
        <time>2020-03-14T15:22:25.000Z</time>
      </trkpt>
      <trkpt lat="45.89934" lon="4.47889">
        <ele>512.20001220703</ele>
        <time>2020-03-14T15:22:28.000Z</time>
      </trkpt>
      <trkpt lat="45.89938" lon="4.47882">
        <ele>512.59997558594</ele>
        <time>2020-03-14T15:22:31.000Z</time>
      </trkpt>
      <trkpt lat="45.89942" lon="4.47874">
        <ele>513</ele>
        <time>2020-03-14T15:22:34.000Z</time>
      </trkpt>
      <trkpt lat="45.89946" lon="4.47867">
        <ele>513.40002441406</ele>
        <time>2020-03-14T15:22:37.000Z</time>
      </trkpt>
      <trkpt lat="45.89949" lon="4.4786">
        <ele>514</ele>
        <time>2020-03-14T15:22:40.000Z</time>
      </trkpt>
      <trkpt lat="45.89953" lon="4.47853">
        <ele>514.40002441406</ele>
        <time>2020-03-14T15:22:43.000Z</time>
      </trkpt>
      <trkpt lat="45.89956" lon="4.47848">
        <ele>514.59997558594</ele>
        <time>2020-03-14T15:22:46.000Z</time>
      </trkpt>
      <trkpt lat="45.89961" lon="4.47842">
        <ele>514.79998779297</ele>
        <time>2020-03-14T15:22:49.000Z</time>
      </trkpt>
      <trkpt lat="45.89966" lon="4.47837">
        <ele>515.20001220703</ele>
        <time>2020-03-14T15:22:53.000Z</time>
      </trkpt>
      <trkpt lat="45.89971" lon="4.47835">
        <ele>515.79998779297</ele>
        <time>2020-03-14T15:22:56.000Z</time>
      </trkpt>
      <trkpt lat="45.89975" lon="4.47834">
        <ele>516</ele>
        <time>2020-03-14T15:22:59.000Z</time>
      </trkpt>
      <trkpt lat="45.89981" lon="4.47832">
        <ele>516.40002441406</ele>
        <time>2020-03-14T15:23:02.000Z</time>
      </trkpt>
      <trkpt lat="45.89986" lon="4.47831">
        <ele>517</ele>
        <time>2020-03-14T15:23:05.000Z</time>
      </trkpt>
      <trkpt lat="45.8999" lon="4.47829">
        <ele>517.59997558594</ele>
        <time>2020-03-14T15:23:08.000Z</time>
      </trkpt>
      <trkpt lat="45.89995" lon="4.47827">
        <ele>518</ele>
        <time>2020-03-14T15:23:11.000Z</time>
      </trkpt>
      <trkpt lat="45.89999" lon="4.47825">
        <ele>518.59997558594</ele>
        <time>2020-03-14T15:23:14.000Z</time>
      </trkpt>
      <trkpt lat="45.90003" lon="4.47825">
        <ele>519</ele>
        <time>2020-03-14T15:23:17.000Z</time>
      </trkpt>
      <trkpt lat="45.90006" lon="4.47824">
        <ele>519.40002441406</ele>
        <time>2020-03-14T15:23:20.000Z</time>
      </trkpt>
      <trkpt lat="45.9001" lon="4.47824">
        <ele>520.20001220703</ele>
        <time>2020-03-14T15:23:24.000Z</time>
      </trkpt>
      <trkpt lat="45.90013" lon="4.47823">
        <ele>520.79998779297</ele>
        <time>2020-03-14T15:23:27.000Z</time>
      </trkpt>
      <trkpt lat="45.90016" lon="4.47822">
        <ele>521.59997558594</ele>
        <time>2020-03-14T15:23:30.000Z</time>
      </trkpt>
      <trkpt lat="45.90019" lon="4.47822">
        <ele>522</ele>
        <time>2020-03-14T15:23:33.000Z</time>
      </trkpt>
      <trkpt lat="45.90022" lon="4.4782">
        <ele>522.59997558594</ele>
        <time>2020-03-14T15:23:36.000Z</time>
      </trkpt>
      <trkpt lat="45.90025" lon="4.47819">
        <ele>523.40002441406</ele>
        <time>2020-03-14T15:23:39.000Z</time>
      </trkpt>
      <trkpt lat="45.90028" lon="4.47817">
        <ele>524.40002441406</ele>
        <time>2020-03-14T15:23:42.000Z</time>
      </trkpt>
      <trkpt lat="45.90032" lon="4.47817">
        <ele>525</ele>
        <time>2020-03-14T15:23:45.000Z</time>
      </trkpt>
      <trkpt lat="45.90035" lon="4.47816">
        <ele>525.20001220703</ele>
        <time>2020-03-14T15:23:48.000Z</time>
      </trkpt>
      <trkpt lat="45.90038" lon="4.47816">
        <ele>525.59997558594</ele>
        <time>2020-03-14T15:23:51.000Z</time>
      </trkpt>
      <trkpt lat="45.90041" lon="4.4781">
        <ele>526</ele>
        <time>2020-03-14T15:23:55.000Z</time>
      </trkpt>
      <trkpt lat="45.90043" lon="4.47806">
        <ele>526.59997558594</ele>
        <time>2020-03-14T15:23:58.000Z</time>
      </trkpt>
      <trkpt lat="45.90045" lon="4.47801">
        <ele>527</ele>
        <time>2020-03-14T15:24:01.000Z</time>
      </trkpt>
      <trkpt lat="45.90046" lon="4.47796">
        <ele>527.79998779297</ele>
        <time>2020-03-14T15:24:04.000Z</time>
      </trkpt>
      <trkpt lat="45.90046" lon="4.47792">
        <ele>529.20001220703</ele>
        <time>2020-03-14T15:24:07.000Z</time>
      </trkpt>
      <trkpt lat="45.90048" lon="4.47787">
        <ele>529.40002441406</ele>
        <time>2020-03-14T15:24:10.000Z</time>
      </trkpt>
      <trkpt lat="45.90049" lon="4.47782">
        <ele>529.40002441406</ele>
        <time>2020-03-14T15:24:13.000Z</time>
      </trkpt>
      <trkpt lat="45.9005" lon="4.47777">
        <ele>529.59997558594</ele>
        <time>2020-03-14T15:24:16.000Z</time>
      </trkpt>
      <trkpt lat="45.90051" lon="4.47772">
        <ele>530</ele>
        <time>2020-03-14T15:24:19.000Z</time>
      </trkpt>
      <trkpt lat="45.90052" lon="4.47766">
        <ele>530.59997558594</ele>
        <time>2020-03-14T15:24:23.000Z</time>
      </trkpt>
      <trkpt lat="45.90052" lon="4.4776">
        <ele>530.79998779297</ele>
        <time>2020-03-14T15:24:26.000Z</time>
      </trkpt>
      <trkpt lat="45.90053" lon="4.47755">
        <ele>530.79998779297</ele>
        <time>2020-03-14T15:24:29.000Z</time>
      </trkpt>
      <trkpt lat="45.90054" lon="4.47749">
        <ele>530.79998779297</ele>
        <time>2020-03-14T15:24:32.000Z</time>
      </trkpt>
      <trkpt lat="45.90053" lon="4.47742">
        <ele>531.40002441406</ele>
        <time>2020-03-14T15:24:35.000Z</time>
      </trkpt>
      <trkpt lat="45.90053" lon="4.47735">
        <ele>532.20001220703</ele>
        <time>2020-03-14T15:24:38.000Z</time>
      </trkpt>
      <trkpt lat="45.90054" lon="4.47729">
        <ele>532.59997558594</ele>
        <time>2020-03-14T15:24:41.000Z</time>
      </trkpt>
      <trkpt lat="45.90056" lon="4.47724">
        <ele>532.79998779297</ele>
        <time>2020-03-14T15:24:44.000Z</time>
      </trkpt>
      <trkpt lat="45.90056" lon="4.47717">
        <ele>533.20001220703</ele>
        <time>2020-03-14T15:24:47.000Z</time>
      </trkpt>
      <trkpt lat="45.90057" lon="4.47711">
        <ele>533.59997558594</ele>
        <time>2020-03-14T15:24:50.000Z</time>
      </trkpt>
      <trkpt lat="45.90056" lon="4.47702">
        <ele>533.40002441406</ele>
        <time>2020-03-14T15:24:54.000Z</time>
      </trkpt>
      <trkpt lat="45.90056" lon="4.47695">
        <ele>533</ele>
        <time>2020-03-14T15:24:57.000Z</time>
      </trkpt>
      <trkpt lat="45.90056" lon="4.47691">
        <ele>533</ele>
        <time>2020-03-14T15:25:00.000Z</time>
      </trkpt>
      <trkpt lat="45.90056" lon="4.47685">
        <ele>533</ele>
        <time>2020-03-14T15:25:03.000Z</time>
      </trkpt>
      <trkpt lat="45.90056" lon="4.47678">
        <ele>533.20001220703</ele>
        <time>2020-03-14T15:25:06.000Z</time>
      </trkpt>
      <trkpt lat="45.90056" lon="4.47671">
        <ele>533.40002441406</ele>
        <time>2020-03-14T15:25:09.000Z</time>
      </trkpt>
      <trkpt lat="45.90056" lon="4.47665">
        <ele>533.59997558594</ele>
        <time>2020-03-14T15:25:12.000Z</time>
      </trkpt>
      <trkpt lat="45.90056" lon="4.47659">
        <ele>534</ele>
        <time>2020-03-14T15:25:15.000Z</time>
      </trkpt>
      <trkpt lat="45.90056" lon="4.47653">
        <ele>534.40002441406</ele>
        <time>2020-03-14T15:25:18.000Z</time>
      </trkpt>
      <trkpt lat="45.90056" lon="4.47645">
        <ele>534.40002441406</ele>
        <time>2020-03-14T15:25:21.000Z</time>
      </trkpt>
      <trkpt lat="45.90055" lon="4.47635">
        <ele>534.40002441406</ele>
        <time>2020-03-14T15:25:25.000Z</time>
      </trkpt>
      <trkpt lat="45.90055" lon="4.47629">
        <ele>534.79998779297</ele>
        <time>2020-03-14T15:25:28.000Z</time>
      </trkpt>
      <trkpt lat="45.90054" lon="4.47623">
        <ele>535.20001220703</ele>
        <time>2020-03-14T15:25:31.000Z</time>
      </trkpt>
      <trkpt lat="45.90053" lon="4.47616">
        <ele>535.59997558594</ele>
        <time>2020-03-14T15:25:34.000Z</time>
      </trkpt>
      <trkpt lat="45.90052" lon="4.4761">
        <ele>536</ele>
        <time>2020-03-14T15:25:37.000Z</time>
      </trkpt>
      <trkpt lat="45.9005" lon="4.47604">
        <ele>536.20001220703</ele>
        <time>2020-03-14T15:25:40.000Z</time>
      </trkpt>
      <trkpt lat="45.90049" lon="4.47599">
        <ele>536.40002441406</ele>
        <time>2020-03-14T15:25:43.000Z</time>
      </trkpt>
      <trkpt lat="45.90047" lon="4.47593">
        <ele>536.79998779297</ele>
        <time>2020-03-14T15:25:46.000Z</time>
      </trkpt>
      <trkpt lat="45.90046" lon="4.47587">
        <ele>537.40002441406</ele>
        <time>2020-03-14T15:25:49.000Z</time>
      </trkpt>
      <trkpt lat="45.90043" lon="4.47579">
        <ele>538.40002441406</ele>
        <time>2020-03-14T15:25:53.000Z</time>
      </trkpt>
      <trkpt lat="45.90042" lon="4.47574">
        <ele>539.20001220703</ele>
        <time>2020-03-14T15:25:56.000Z</time>
      </trkpt>
      <trkpt lat="45.90041" lon="4.47568">
        <ele>539.59997558594</ele>
        <time>2020-03-14T15:25:59.000Z</time>
      </trkpt>
      <trkpt lat="45.90039" lon="4.47562">
        <ele>540</ele>
        <time>2020-03-14T15:26:02.000Z</time>
      </trkpt>
      <trkpt lat="45.90037" lon="4.47555">
        <ele>540.59997558594</ele>
        <time>2020-03-14T15:26:05.000Z</time>
      </trkpt>
      <trkpt lat="45.90036" lon="4.47549">
        <ele>540.79998779297</ele>
        <time>2020-03-14T15:26:08.000Z</time>
      </trkpt>
      <trkpt lat="45.90035" lon="4.47544">
        <ele>541.59997558594</ele>
        <time>2020-03-14T15:26:11.000Z</time>
      </trkpt>
      <trkpt lat="45.90033" lon="4.47539">
        <ele>542</ele>
        <time>2020-03-14T15:26:14.000Z</time>
      </trkpt>
      <trkpt lat="45.90032" lon="4.47534">
        <ele>542.20001220703</ele>
        <time>2020-03-14T15:26:17.000Z</time>
      </trkpt>
      <trkpt lat="45.90033" lon="4.47529">
        <ele>542.59997558594</ele>
        <time>2020-03-14T15:26:20.000Z</time>
      </trkpt>
      <trkpt lat="45.90033" lon="4.47521">
        <ele>543</ele>
        <time>2020-03-14T15:26:24.000Z</time>
      </trkpt>
      <trkpt lat="45.90033" lon="4.47513">
        <ele>543.20001220703</ele>
        <time>2020-03-14T15:26:27.000Z</time>
      </trkpt>
      <trkpt lat="45.90034" lon="4.47507">
        <ele>543.40002441406</ele>
        <time>2020-03-14T15:26:30.000Z</time>
      </trkpt>
      <trkpt lat="45.90034" lon="4.47501">
        <ele>543.79998779297</ele>
        <time>2020-03-14T15:26:33.000Z</time>
      </trkpt>
      <trkpt lat="45.90034" lon="4.47495">
        <ele>544.20001220703</ele>
        <time>2020-03-14T15:26:36.000Z</time>
      </trkpt>
      <trkpt lat="45.90035" lon="4.47488">
        <ele>544.40002441406</ele>
        <time>2020-03-14T15:26:39.000Z</time>
      </trkpt>
      <trkpt lat="45.90035" lon="4.47482">
        <ele>544.79998779297</ele>
        <time>2020-03-14T15:26:42.000Z</time>
      </trkpt>
      <trkpt lat="45.90034" lon="4.47476">
        <ele>545.59997558594</ele>
        <time>2020-03-14T15:26:45.000Z</time>
      </trkpt>
      <trkpt lat="45.90034" lon="4.47469">
        <ele>546.20001220703</ele>
        <time>2020-03-14T15:26:48.000Z</time>
      </trkpt>
      <trkpt lat="45.90034" lon="4.47462">
        <ele>546.59997558594</ele>
        <time>2020-03-14T15:26:51.000Z</time>
      </trkpt>
      <trkpt lat="45.90037" lon="4.47456">
        <ele>547.40002441406</ele>
        <time>2020-03-14T15:26:55.000Z</time>
      </trkpt>
      <trkpt lat="45.90039" lon="4.47451">
        <ele>547.79998779297</ele>
        <time>2020-03-14T15:26:58.000Z</time>
      </trkpt>
      <trkpt lat="45.90042" lon="4.47445">
        <ele>548</ele>
        <time>2020-03-14T15:27:01.000Z</time>
      </trkpt>
      <trkpt lat="45.90043" lon="4.4744">
        <ele>548</ele>
        <time>2020-03-14T15:27:04.000Z</time>
      </trkpt>
      <trkpt lat="45.90044" lon="4.47434">
        <ele>548.20001220703</ele>
        <time>2020-03-14T15:27:07.000Z</time>
      </trkpt>
      <trkpt lat="45.90045" lon="4.47428">
        <ele>548.40002441406</ele>
        <time>2020-03-14T15:27:10.000Z</time>
      </trkpt>
      <trkpt lat="45.90047" lon="4.47423">
        <ele>548.79998779297</ele>
        <time>2020-03-14T15:27:13.000Z</time>
      </trkpt>
      <trkpt lat="45.90048" lon="4.47416">
        <ele>549</ele>
        <time>2020-03-14T15:27:16.000Z</time>
      </trkpt>
      <trkpt lat="45.90049" lon="4.47411">
        <ele>549.40002441406</ele>
        <time>2020-03-14T15:27:19.000Z</time>
      </trkpt>
      <trkpt lat="45.90052" lon="4.47403">
        <ele>549.59997558594</ele>
        <time>2020-03-14T15:27:23.000Z</time>
      </trkpt>
      <trkpt lat="45.90053" lon="4.47397">
        <ele>549.79998779297</ele>
        <time>2020-03-14T15:27:26.000Z</time>
      </trkpt>
      <trkpt lat="45.90054" lon="4.4739">
        <ele>550.20001220703</ele>
        <time>2020-03-14T15:27:29.000Z</time>
      </trkpt>
      <trkpt lat="45.90055" lon="4.47385">
        <ele>550.40002441406</ele>
        <time>2020-03-14T15:27:32.000Z</time>
      </trkpt>
      <trkpt lat="45.90055" lon="4.47379">
        <ele>550.40002441406</ele>
        <time>2020-03-14T15:27:35.000Z</time>
      </trkpt>
      <trkpt lat="45.90056" lon="4.47374">
        <ele>550.79998779297</ele>
        <time>2020-03-14T15:27:38.000Z</time>
      </trkpt>
      <trkpt lat="45.90057" lon="4.47368">
        <ele>551.20001220703</ele>
        <time>2020-03-14T15:27:41.000Z</time>
      </trkpt>
      <trkpt lat="45.90057" lon="4.47362">
        <ele>551.79998779297</ele>
        <time>2020-03-14T15:27:44.000Z</time>
      </trkpt>
      <trkpt lat="45.90059" lon="4.47357">
        <ele>552.40002441406</ele>
        <time>2020-03-14T15:27:47.000Z</time>
      </trkpt>
      <trkpt lat="45.90059" lon="4.47351">
        <ele>553.20001220703</ele>
        <time>2020-03-14T15:27:50.000Z</time>
      </trkpt>
      <trkpt lat="45.90059" lon="4.47343">
        <ele>553.79998779297</ele>
        <time>2020-03-14T15:27:54.000Z</time>
      </trkpt>
      <trkpt lat="45.90058" lon="4.47337">
        <ele>554.40002441406</ele>
        <time>2020-03-14T15:27:57.000Z</time>
      </trkpt>
      <trkpt lat="45.90057" lon="4.47331">
        <ele>555.79998779297</ele>
        <time>2020-03-14T15:28:00.000Z</time>
      </trkpt>
      <trkpt lat="45.90057" lon="4.47326">
        <ele>557</ele>
        <time>2020-03-14T15:28:03.000Z</time>
      </trkpt>
      <trkpt lat="45.90056" lon="4.47321">
        <ele>558</ele>
        <time>2020-03-14T15:28:06.000Z</time>
      </trkpt>
      <trkpt lat="45.90057" lon="4.47316">
        <ele>558.40002441406</ele>
        <time>2020-03-14T15:28:09.000Z</time>
      </trkpt>
      <trkpt lat="45.90056" lon="4.47309">
        <ele>558.79998779297</ele>
        <time>2020-03-14T15:28:12.000Z</time>
      </trkpt>
      <trkpt lat="45.90056" lon="4.47303">
        <ele>559</ele>
        <time>2020-03-14T15:28:15.000Z</time>
      </trkpt>
      <trkpt lat="45.90053" lon="4.47298">
        <ele>559.40002441406</ele>
        <time>2020-03-14T15:28:18.000Z</time>
      </trkpt>
      <trkpt lat="45.90051" lon="4.47292">
        <ele>559.59997558594</ele>
        <time>2020-03-14T15:28:21.000Z</time>
      </trkpt>
      <trkpt lat="45.90049" lon="4.47283">
        <ele>559.79998779297</ele>
        <time>2020-03-14T15:28:25.000Z</time>
      </trkpt>
      <trkpt lat="45.90047" lon="4.47278">
        <ele>560</ele>
        <time>2020-03-14T15:28:28.000Z</time>
      </trkpt>
      <trkpt lat="45.90044" lon="4.47271">
        <ele>560.59997558594</ele>
        <time>2020-03-14T15:28:31.000Z</time>
      </trkpt>
      <trkpt lat="45.90042" lon="4.47264">
        <ele>560.79998779297</ele>
        <time>2020-03-14T15:28:34.000Z</time>
      </trkpt>
      <trkpt lat="45.90041" lon="4.47258">
        <ele>561.20001220703</ele>
        <time>2020-03-14T15:28:37.000Z</time>
      </trkpt>
      <trkpt lat="45.9004" lon="4.47256">
        <ele>561.40002441406</ele>
        <time>2020-03-14T15:28:40.000Z</time>
      </trkpt>
      <trkpt lat="45.90038" lon="4.47251">
        <ele>561.20001220703</ele>
        <time>2020-03-14T15:28:43.000Z</time>
      </trkpt>
      <trkpt lat="45.90034" lon="4.4724">
        <ele>561</ele>
        <time>2020-03-14T15:28:46.000Z</time>
      </trkpt>
      <trkpt lat="45.90029" lon="4.47229">
        <ele>560.20001220703</ele>
        <time>2020-03-14T15:28:49.000Z</time>
      </trkpt>
      <trkpt lat="45.90023" lon="4.47219">
        <ele>559</ele>
        <time>2020-03-14T15:28:52.000Z</time>
      </trkpt>
      <trkpt lat="45.90014" lon="4.4721">
        <ele>557.40002441406</ele>
        <time>2020-03-14T15:28:56.000Z</time>
      </trkpt>
      <trkpt lat="45.90009" lon="4.47204">
        <ele>555.79998779297</ele>
        <time>2020-03-14T15:28:59.000Z</time>
      </trkpt>
      <trkpt lat="45.90007" lon="4.47192">
        <ele>555.20001220703</ele>
        <time>2020-03-14T15:29:02.000Z</time>
      </trkpt>
      <trkpt lat="45.90008" lon="4.47177">
        <ele>553</ele>
        <time>2020-03-14T15:29:05.000Z</time>
      </trkpt>
      <trkpt lat="45.90009" lon="4.47161">
        <ele>551.40002441406</ele>
        <time>2020-03-14T15:29:08.000Z</time>
      </trkpt>
      <trkpt lat="45.90011" lon="4.47144">
        <ele>549.40002441406</ele>
        <time>2020-03-14T15:29:11.000Z</time>
      </trkpt>
      <trkpt lat="45.90016" lon="4.47121">
        <ele>547.20001220703</ele>
        <time>2020-03-14T15:29:14.000Z</time>
      </trkpt>
      <trkpt lat="45.9002" lon="4.47101">
        <ele>545.40002441406</ele>
        <time>2020-03-14T15:29:17.000Z</time>
      </trkpt>
      <trkpt lat="45.90024" lon="4.47082">
        <ele>544.40002441406</ele>
        <time>2020-03-14T15:29:20.000Z</time>
      </trkpt>
      <trkpt lat="45.90028" lon="4.47052">
        <ele>543</ele>
        <time>2020-03-14T15:29:24.000Z</time>
      </trkpt>
      <trkpt lat="45.9003" lon="4.47026">
        <ele>542.40002441406</ele>
        <time>2020-03-14T15:29:27.000Z</time>
      </trkpt>
      <trkpt lat="45.90032" lon="4.47002">
        <ele>541.79998779297</ele>
        <time>2020-03-14T15:29:30.000Z</time>
      </trkpt>
      <trkpt lat="45.90032" lon="4.46984">
        <ele>541.40002441406</ele>
        <time>2020-03-14T15:29:33.000Z</time>
      </trkpt>
      <trkpt lat="45.90033" lon="4.46966">
        <ele>540.79998779297</ele>
        <time>2020-03-14T15:29:36.000Z</time>
      </trkpt>
      <trkpt lat="45.90035" lon="4.46956">
        <ele>538.79998779297</ele>
        <time>2020-03-14T15:29:39.000Z</time>
      </trkpt>
      <trkpt lat="45.90038" lon="4.46948">
        <ele>538</ele>
        <time>2020-03-14T15:29:42.000Z</time>
      </trkpt>
      <trkpt lat="45.90043" lon="4.4694">
        <ele>537.40002441406</ele>
        <time>2020-03-14T15:29:45.000Z</time>
      </trkpt>
      <trkpt lat="45.9005" lon="4.46926">
        <ele>536.40002441406</ele>
        <time>2020-03-14T15:29:48.000Z</time>
      </trkpt>
      <trkpt lat="45.90058" lon="4.4691">
        <ele>534.40002441406</ele>
        <time>2020-03-14T15:29:51.000Z</time>
      </trkpt>
      <trkpt lat="45.90068" lon="4.46893">
        <ele>532.20001220703</ele>
        <time>2020-03-14T15:29:55.000Z</time>
      </trkpt>
      <trkpt lat="45.90075" lon="4.46878">
        <ele>531.20001220703</ele>
        <time>2020-03-14T15:29:58.000Z</time>
      </trkpt>
      <trkpt lat="45.90081" lon="4.46863">
        <ele>529.79998779297</ele>
        <time>2020-03-14T15:30:01.000Z</time>
      </trkpt>
      <trkpt lat="45.90089" lon="4.46851">
        <ele>528.59997558594</ele>
        <time>2020-03-14T15:30:04.000Z</time>
      </trkpt>
      <trkpt lat="45.90098" lon="4.46842">
        <ele>527.40002441406</ele>
        <time>2020-03-14T15:30:07.000Z</time>
      </trkpt>
      <trkpt lat="45.90108" lon="4.46835">
        <ele>525.79998779297</ele>
        <time>2020-03-14T15:30:10.000Z</time>
      </trkpt>
      <trkpt lat="45.90113" lon="4.46826">
        <ele>524.79998779297</ele>
        <time>2020-03-14T15:30:13.000Z</time>
      </trkpt>
      <trkpt lat="45.9012" lon="4.4682">
        <ele>523.40002441406</ele>
        <time>2020-03-14T15:30:16.000Z</time>
      </trkpt>
      <trkpt lat="45.90126" lon="4.46811">
        <ele>522.59997558594</ele>
        <time>2020-03-14T15:30:19.000Z</time>
      </trkpt>
      <trkpt lat="45.90131" lon="4.468">
        <ele>522</ele>
        <time>2020-03-14T15:30:22.000Z</time>
      </trkpt>
      <trkpt lat="45.9015" lon="4.46785">
        <ele>520.40002441406</ele>
        <time>2020-03-14T15:30:26.000Z</time>
      </trkpt>
      <trkpt lat="45.9016" lon="4.46775">
        <ele>518.40002441406</ele>
        <time>2020-03-14T15:30:29.000Z</time>
      </trkpt>
      <trkpt lat="45.90171" lon="4.46766">
        <ele>517.59997558594</ele>
        <time>2020-03-14T15:30:32.000Z</time>
      </trkpt>
      <trkpt lat="45.90185" lon="4.46753">
        <ele>516.40002441406</ele>
        <time>2020-03-14T15:30:35.000Z</time>
      </trkpt>
      <trkpt lat="45.90201" lon="4.46741">
        <ele>514.59997558594</ele>
        <time>2020-03-14T15:30:38.000Z</time>
      </trkpt>
      <trkpt lat="45.90211" lon="4.46731">
        <ele>512.79998779297</ele>
        <time>2020-03-14T15:30:41.000Z</time>
      </trkpt>
      <trkpt lat="45.90218" lon="4.46722">
        <ele>511.60000610352</ele>
        <time>2020-03-14T15:30:44.000Z</time>
      </trkpt>
      <trkpt lat="45.90225" lon="4.46715">
        <ele>511.60000610352</ele>
        <time>2020-03-14T15:30:47.000Z</time>
      </trkpt>
      <trkpt lat="45.90235" lon="4.46706">
        <ele>511.39999389648</ele>
        <time>2020-03-14T15:30:50.000Z</time>
      </trkpt>
      <trkpt lat="45.90252" lon="4.46691">
        <ele>510.39999389648</ele>
        <time>2020-03-14T15:30:54.000Z</time>
      </trkpt>
      <trkpt lat="45.90263" lon="4.46676">
        <ele>508.39999389648</ele>
        <time>2020-03-14T15:30:57.000Z</time>
      </trkpt>
      <trkpt lat="45.9027" lon="4.46664">
        <ele>506.39999389648</ele>
        <time>2020-03-14T15:31:00.000Z</time>
      </trkpt>
      <trkpt lat="45.90277" lon="4.46653">
        <ele>505.60000610352</ele>
        <time>2020-03-14T15:31:03.000Z</time>
      </trkpt>
      <trkpt lat="45.90287" lon="4.46644">
        <ele>504</ele>
        <time>2020-03-14T15:31:06.000Z</time>
      </trkpt>
      <trkpt lat="45.90297" lon="4.46632">
        <ele>503.20001220703</ele>
        <time>2020-03-14T15:31:09.000Z</time>
      </trkpt>
      <trkpt lat="45.90306" lon="4.46611">
        <ele>502.39999389648</ele>
        <time>2020-03-14T15:31:12.000Z</time>
      </trkpt>
      <trkpt lat="45.90317" lon="4.46591">
        <ele>501.79998779297</ele>
        <time>2020-03-14T15:31:15.000Z</time>
      </trkpt>
      <trkpt lat="45.90328" lon="4.46575">
        <ele>500.39999389648</ele>
        <time>2020-03-14T15:31:18.000Z</time>
      </trkpt>
      <trkpt lat="45.9034" lon="4.46564">
        <ele>499.79998779297</ele>
        <time>2020-03-14T15:31:21.000Z</time>
      </trkpt>
      <trkpt lat="45.90352" lon="4.46552">
        <ele>498.20001220703</ele>
        <time>2020-03-14T15:31:25.000Z</time>
      </trkpt>
      <trkpt lat="45.90356" lon="4.46539">
        <ele>497.60000610352</ele>
        <time>2020-03-14T15:31:28.000Z</time>
      </trkpt>
      <trkpt lat="45.90359" lon="4.46528">
        <ele>498</ele>
        <time>2020-03-14T15:31:31.000Z</time>
      </trkpt>
      <trkpt lat="45.90361" lon="4.46516">
        <ele>498.39999389648</ele>
        <time>2020-03-14T15:31:34.000Z</time>
      </trkpt>
      <trkpt lat="45.90362" lon="4.46504">
        <ele>498.39999389648</ele>
        <time>2020-03-14T15:31:37.000Z</time>
      </trkpt>
      <trkpt lat="45.90363" lon="4.46495">
        <ele>498.39999389648</ele>
        <time>2020-03-14T15:31:40.000Z</time>
      </trkpt>
      <trkpt lat="45.90362" lon="4.46486">
        <ele>498.39999389648</ele>
        <time>2020-03-14T15:31:43.000Z</time>
      </trkpt>
      <trkpt lat="45.9036" lon="4.46477">
        <ele>499.20001220703</ele>
        <time>2020-03-14T15:31:46.000Z</time>
      </trkpt>
      <trkpt lat="45.90359" lon="4.4647">
        <ele>499.39999389648</ele>
        <time>2020-03-14T15:31:49.000Z</time>
      </trkpt>
      <trkpt lat="45.90357" lon="4.4646">
        <ele>500</ele>
        <time>2020-03-14T15:31:52.000Z</time>
      </trkpt>
      <trkpt lat="45.90357" lon="4.46449">
        <ele>500.60000610352</ele>
        <time>2020-03-14T15:31:56.000Z</time>
      </trkpt>
      <trkpt lat="45.90353" lon="4.46442">
        <ele>501.39999389648</ele>
        <time>2020-03-14T15:31:59.000Z</time>
      </trkpt>
      <trkpt lat="45.9035" lon="4.46436">
        <ele>502.20001220703</ele>
        <time>2020-03-14T15:32:02.000Z</time>
      </trkpt>
      <trkpt lat="45.9035" lon="4.46428">
        <ele>502.39999389648</ele>
        <time>2020-03-14T15:32:05.000Z</time>
      </trkpt>
      <trkpt lat="45.90349" lon="4.46419">
        <ele>502.39999389648</ele>
        <time>2020-03-14T15:32:08.000Z</time>
      </trkpt>
      <trkpt lat="45.90348" lon="4.46415">
        <ele>502</ele>
        <time>2020-03-14T15:32:11.000Z</time>
      </trkpt>
      <trkpt lat="45.90344" lon="4.46406">
        <ele>501.79998779297</ele>
        <time>2020-03-14T15:32:14.000Z</time>
      </trkpt>
      <trkpt lat="45.90338" lon="4.46394">
        <ele>501.39999389648</ele>
        <time>2020-03-14T15:32:17.000Z</time>
      </trkpt>
      <trkpt lat="45.90334" lon="4.46388">
        <ele>501.39999389648</ele>
        <time>2020-03-14T15:32:20.000Z</time>
      </trkpt>
      <trkpt lat="45.90331" lon="4.46383">
        <ele>501.39999389648</ele>
        <time>2020-03-14T15:32:24.000Z</time>
      </trkpt>
      <trkpt lat="45.90326" lon="4.46378">
        <ele>502</ele>
        <time>2020-03-14T15:32:27.000Z</time>
      </trkpt>
      <trkpt lat="45.9032" lon="4.46374">
        <ele>502.79998779297</ele>
        <time>2020-03-14T15:32:30.000Z</time>
      </trkpt>
      <trkpt lat="45.90317" lon="4.46371">
        <ele>503</ele>
        <time>2020-03-14T15:32:33.000Z</time>
      </trkpt>
      <trkpt lat="45.90314" lon="4.46368">
        <ele>503.20001220703</ele>
        <time>2020-03-14T15:32:36.000Z</time>
      </trkpt>
      <trkpt lat="45.90311" lon="4.46367">
        <ele>503.20001220703</ele>
        <time>2020-03-14T15:32:39.000Z</time>
      </trkpt>
      <trkpt lat="45.90308" lon="4.46369">
        <ele>503.60000610352</ele>
        <time>2020-03-14T15:32:42.000Z</time>
      </trkpt>
      <trkpt lat="45.90307" lon="4.46372">
        <ele>504.39999389648</ele>
        <time>2020-03-14T15:32:45.000Z</time>
      </trkpt>
      <trkpt lat="45.90305" lon="4.46373">
        <ele>505.20001220703</ele>
        <time>2020-03-14T15:32:48.000Z</time>
      </trkpt>
      <trkpt lat="45.90303" lon="4.46376">
        <ele>505.79998779297</ele>
        <time>2020-03-14T15:32:51.000Z</time>
      </trkpt>
      <trkpt lat="45.90299" lon="4.46379">
        <ele>506.20001220703</ele>
        <time>2020-03-14T15:32:55.000Z</time>
      </trkpt>
      <trkpt lat="45.90296" lon="4.46382">
        <ele>507</ele>
        <time>2020-03-14T15:32:58.000Z</time>
      </trkpt>
      <trkpt lat="45.90293" lon="4.46388">
        <ele>507.20001220703</ele>
        <time>2020-03-14T15:33:01.000Z</time>
      </trkpt>
      <trkpt lat="45.90289" lon="4.46391">
        <ele>507.20001220703</ele>
        <time>2020-03-14T15:33:04.000Z</time>
      </trkpt>
      <trkpt lat="45.90287" lon="4.46395">
        <ele>507</ele>
        <time>2020-03-14T15:33:07.000Z</time>
      </trkpt>
      <trkpt lat="45.90284" lon="4.46401">
        <ele>507</ele>
        <time>2020-03-14T15:33:10.000Z</time>
      </trkpt>
      <trkpt lat="45.90282" lon="4.46405">
        <ele>507.20001220703</ele>
        <time>2020-03-14T15:33:13.000Z</time>
      </trkpt>
      <trkpt lat="45.90278" lon="4.4641">
        <ele>507.39999389648</ele>
        <time>2020-03-14T15:33:16.000Z</time>
      </trkpt>
      <trkpt lat="45.90275" lon="4.46414">
        <ele>507.60000610352</ele>
        <time>2020-03-14T15:33:19.000Z</time>
      </trkpt>
      <trkpt lat="45.90271" lon="4.46418">
        <ele>507.60000610352</ele>
        <time>2020-03-14T15:33:22.000Z</time>
      </trkpt>
      <trkpt lat="45.90264" lon="4.46423">
        <ele>507.79998779297</ele>
        <time>2020-03-14T15:33:26.000Z</time>
      </trkpt>
      <trkpt lat="45.90258" lon="4.46426">
        <ele>508</ele>
        <time>2020-03-14T15:33:29.000Z</time>
      </trkpt>
      <trkpt lat="45.90252" lon="4.46428">
        <ele>508</ele>
        <time>2020-03-14T15:33:32.000Z</time>
      </trkpt>
      <trkpt lat="45.90247" lon="4.4643">
        <ele>508</ele>
        <time>2020-03-14T15:33:35.000Z</time>
      </trkpt>
      <trkpt lat="45.90242" lon="4.46429">
        <ele>508.79998779297</ele>
        <time>2020-03-14T15:33:38.000Z</time>
      </trkpt>
      <trkpt lat="45.90237" lon="4.46428">
        <ele>509.39999389648</ele>
        <time>2020-03-14T15:33:41.000Z</time>
      </trkpt>
      <trkpt lat="45.90231" lon="4.46429">
        <ele>509.39999389648</ele>
        <time>2020-03-14T15:33:44.000Z</time>
      </trkpt>
      <trkpt lat="45.90226" lon="4.46429">
        <ele>509.20001220703</ele>
        <time>2020-03-14T15:33:47.000Z</time>
      </trkpt>
      <trkpt lat="45.90221" lon="4.46428">
        <ele>509</ele>
        <time>2020-03-14T15:33:50.000Z</time>
      </trkpt>
      <trkpt lat="45.90213" lon="4.4643">
        <ele>509.60000610352</ele>
        <time>2020-03-14T15:33:54.000Z</time>
      </trkpt>
      <trkpt lat="45.90209" lon="4.46429">
        <ele>509.79998779297</ele>
        <time>2020-03-14T15:33:57.000Z</time>
      </trkpt>
      <trkpt lat="45.90203" lon="4.46431">
        <ele>510</ele>
        <time>2020-03-14T15:34:00.000Z</time>
      </trkpt>
      <trkpt lat="45.90194" lon="4.46433">
        <ele>509.79998779297</ele>
        <time>2020-03-14T15:34:03.000Z</time>
      </trkpt>
      <trkpt lat="45.90182" lon="4.46434">
        <ele>508.79998779297</ele>
        <time>2020-03-14T15:34:06.000Z</time>
      </trkpt>
      <trkpt lat="45.9017" lon="4.46437">
        <ele>507.60000610352</ele>
        <time>2020-03-14T15:34:09.000Z</time>
      </trkpt>
      <trkpt lat="45.90158" lon="4.46443">
        <ele>507.20001220703</ele>
        <time>2020-03-14T15:34:12.000Z</time>
      </trkpt>
      <trkpt lat="45.90147" lon="4.46441">
        <ele>507.39999389648</ele>
        <time>2020-03-14T15:34:15.000Z</time>
      </trkpt>
      <trkpt lat="45.90134" lon="4.46441">
        <ele>507.60000610352</ele>
        <time>2020-03-14T15:34:18.000Z</time>
      </trkpt>
      <trkpt lat="45.90121" lon="4.46438">
        <ele>508.39999389648</ele>
        <time>2020-03-14T15:34:21.000Z</time>
      </trkpt>
      <trkpt lat="45.90104" lon="4.46435">
        <ele>509</ele>
        <time>2020-03-14T15:34:25.000Z</time>
      </trkpt>
      <trkpt lat="45.90089" lon="4.46436">
        <ele>509.20001220703</ele>
        <time>2020-03-14T15:34:28.000Z</time>
      </trkpt>
      <trkpt lat="45.90076" lon="4.46433">
        <ele>509.39999389648</ele>
        <time>2020-03-14T15:34:31.000Z</time>
      </trkpt>
      <trkpt lat="45.90066" lon="4.4643">
        <ele>509.39999389648</ele>
        <time>2020-03-14T15:34:34.000Z</time>
      </trkpt>
      <trkpt lat="45.90058" lon="4.46423">
        <ele>509.79998779297</ele>
        <time>2020-03-14T15:34:37.000Z</time>
      </trkpt>
      <trkpt lat="45.9005" lon="4.46414">
        <ele>510.39999389648</ele>
        <time>2020-03-14T15:34:40.000Z</time>
      </trkpt>
      <trkpt lat="45.90042" lon="4.46401">
        <ele>511.20001220703</ele>
        <time>2020-03-14T15:34:43.000Z</time>
      </trkpt>
      <trkpt lat="45.90036" lon="4.46391">
        <ele>511.39999389648</ele>
        <time>2020-03-14T15:34:46.000Z</time>
      </trkpt>
      <trkpt lat="45.9003" lon="4.46378">
        <ele>511.39999389648</ele>
        <time>2020-03-14T15:34:49.000Z</time>
      </trkpt>
      <trkpt lat="45.90022" lon="4.4636">
        <ele>510.60000610352</ele>
        <time>2020-03-14T15:34:52.000Z</time>
      </trkpt>
      <trkpt lat="45.90017" lon="4.46342">
        <ele>509.79998779297</ele>
        <time>2020-03-14T15:34:56.000Z</time>
      </trkpt>
      <trkpt lat="45.90013" lon="4.46333">
        <ele>509.79998779297</ele>
        <time>2020-03-14T15:34:59.000Z</time>
      </trkpt>
      <trkpt lat="45.9001" lon="4.46321">
        <ele>510</ele>
        <time>2020-03-14T15:35:02.000Z</time>
      </trkpt>
      <trkpt lat="45.90008" lon="4.46307">
        <ele>510</ele>
        <time>2020-03-14T15:35:05.000Z</time>
      </trkpt>
      <trkpt lat="45.90005" lon="4.46294">
        <ele>510</ele>
        <time>2020-03-14T15:35:08.000Z</time>
      </trkpt>
      <trkpt lat="45.90001" lon="4.46283">
        <ele>510.20001220703</ele>
        <time>2020-03-14T15:35:11.000Z</time>
      </trkpt>
      <trkpt lat="45.89996" lon="4.46272">
        <ele>510.79998779297</ele>
        <time>2020-03-14T15:35:14.000Z</time>
      </trkpt>
      <trkpt lat="45.89991" lon="4.46262">
        <ele>511.79998779297</ele>
        <time>2020-03-14T15:35:17.000Z</time>
      </trkpt>
      <trkpt lat="45.89989" lon="4.46255">
        <ele>512.20001220703</ele>
        <time>2020-03-14T15:35:20.000Z</time>
      </trkpt>
      <trkpt lat="45.89987" lon="4.46248">
        <ele>512.79998779297</ele>
        <time>2020-03-14T15:35:23.000Z</time>
      </trkpt>
      <trkpt lat="45.89984" lon="4.46239">
        <ele>513.20001220703</ele>
        <time>2020-03-14T15:35:27.000Z</time>
      </trkpt>
      <trkpt lat="45.89985" lon="4.46234">
        <ele>513.79998779297</ele>
        <time>2020-03-14T15:35:30.000Z</time>
      </trkpt>
      <trkpt lat="45.89984" lon="4.46229">
        <ele>514.40002441406</ele>
        <time>2020-03-14T15:35:33.000Z</time>
      </trkpt>
      <trkpt lat="45.89983" lon="4.46223">
        <ele>515</ele>
        <time>2020-03-14T15:35:36.000Z</time>
      </trkpt>
      <trkpt lat="45.89982" lon="4.46219">
        <ele>516.20001220703</ele>
        <time>2020-03-14T15:35:39.000Z</time>
      </trkpt>
      <trkpt lat="45.8998" lon="4.46214">
        <ele>518</ele>
        <time>2020-03-14T15:35:42.000Z</time>
      </trkpt>
      <trkpt lat="45.89979" lon="4.46213">
        <ele>518.59997558594</ele>
        <time>2020-03-14T15:35:45.000Z</time>
      </trkpt>
      <trkpt lat="45.89976" lon="4.4621">
        <ele>519</ele>
        <time>2020-03-14T15:35:48.000Z</time>
      </trkpt>
      <trkpt lat="45.89973" lon="4.46207">
        <ele>519.79998779297</ele>
        <time>2020-03-14T15:35:51.000Z</time>
      </trkpt>
      <trkpt lat="45.89971" lon="4.46203">
        <ele>520.59997558594</ele>
        <time>2020-03-14T15:35:55.000Z</time>
      </trkpt>
      <trkpt lat="45.89967" lon="4.46202">
        <ele>521.20001220703</ele>
        <time>2020-03-14T15:35:58.000Z</time>
      </trkpt>
      <trkpt lat="45.89962" lon="4.46201">
        <ele>521.40002441406</ele>
        <time>2020-03-14T15:36:01.000Z</time>
      </trkpt>
      <trkpt lat="45.89958" lon="4.462">
        <ele>522.20001220703</ele>
        <time>2020-03-14T15:36:04.000Z</time>
      </trkpt>
      <trkpt lat="45.89956" lon="4.46198">
        <ele>522.40002441406</ele>
        <time>2020-03-14T15:36:07.000Z</time>
      </trkpt>
      <trkpt lat="45.89952" lon="4.46197">
        <ele>522.59997558594</ele>
        <time>2020-03-14T15:36:10.000Z</time>
      </trkpt>
      <trkpt lat="45.89948" lon="4.46196">
        <ele>523</ele>
        <time>2020-03-14T15:36:13.000Z</time>
      </trkpt>
      <trkpt lat="45.89944" lon="4.46192">
        <ele>523.20001220703</ele>
        <time>2020-03-14T15:36:16.000Z</time>
      </trkpt>
      <trkpt lat="45.8994" lon="4.46189">
        <ele>523.20001220703</ele>
        <time>2020-03-14T15:36:19.000Z</time>
      </trkpt>
      <trkpt lat="45.89936" lon="4.46188">
        <ele>523.20001220703</ele>
        <time>2020-03-14T15:36:22.000Z</time>
      </trkpt>
      <trkpt lat="45.8993" lon="4.46183">
        <ele>523.59997558594</ele>
        <time>2020-03-14T15:36:26.000Z</time>
      </trkpt>
      <trkpt lat="45.89926" lon="4.46182">
        <ele>523.79998779297</ele>
        <time>2020-03-14T15:36:29.000Z</time>
      </trkpt>
      <trkpt lat="45.89922" lon="4.46181">
        <ele>524.20001220703</ele>
        <time>2020-03-14T15:36:32.000Z</time>
      </trkpt>
      <trkpt lat="45.89919" lon="4.46179">
        <ele>524.79998779297</ele>
        <time>2020-03-14T15:36:35.000Z</time>
      </trkpt>
      <trkpt lat="45.89915" lon="4.46179">
        <ele>525</ele>
        <time>2020-03-14T15:36:38.000Z</time>
      </trkpt>
      <trkpt lat="45.89912" lon="4.46176">
        <ele>525.40002441406</ele>
        <time>2020-03-14T15:36:41.000Z</time>
      </trkpt>
      <trkpt lat="45.89909" lon="4.46172">
        <ele>526</ele>
        <time>2020-03-14T15:36:44.000Z</time>
      </trkpt>
      <trkpt lat="45.89904" lon="4.46168">
        <ele>526.20001220703</ele>
        <time>2020-03-14T15:36:47.000Z</time>
      </trkpt>
      <trkpt lat="45.89901" lon="4.46166">
        <ele>526.59997558594</ele>
        <time>2020-03-14T15:36:50.000Z</time>
      </trkpt>
      <trkpt lat="45.89896" lon="4.46164">
        <ele>526.79998779297</ele>
        <time>2020-03-14T15:36:53.000Z</time>
      </trkpt>
      <trkpt lat="45.89891" lon="4.46161">
        <ele>527.20001220703</ele>
        <time>2020-03-14T15:36:57.000Z</time>
      </trkpt>
      <trkpt lat="45.89888" lon="4.46158">
        <ele>527.59997558594</ele>
        <time>2020-03-14T15:37:00.000Z</time>
      </trkpt>
      <trkpt lat="45.89885" lon="4.46155">
        <ele>527.79998779297</ele>
        <time>2020-03-14T15:37:03.000Z</time>
      </trkpt>
      <trkpt lat="45.89882" lon="4.46152">
        <ele>528</ele>
        <time>2020-03-14T15:37:06.000Z</time>
      </trkpt>
      <trkpt lat="45.89879" lon="4.46153">
        <ele>528.20001220703</ele>
        <time>2020-03-14T15:37:09.000Z</time>
      </trkpt>
      <trkpt lat="45.89877" lon="4.46156">
        <ele>528.20001220703</ele>
        <time>2020-03-14T15:37:12.000Z</time>
      </trkpt>
      <trkpt lat="45.89878" lon="4.46157">
        <ele>528.40002441406</ele>
        <time>2020-03-14T15:37:15.000Z</time>
      </trkpt>
      <trkpt lat="45.89879" lon="4.46157">
        <ele>528.20001220703</ele>
        <time>2020-03-14T15:37:18.000Z</time>
      </trkpt>
      <trkpt lat="45.89878" lon="4.46158">
        <ele>528.20001220703</ele>
        <time>2020-03-14T15:37:21.000Z</time>
      </trkpt>
      <trkpt lat="45.89874" lon="4.4616">
        <ele>528.20001220703</ele>
        <time>2020-03-14T15:37:25.000Z</time>
      </trkpt>
      <trkpt lat="45.8987" lon="4.46159">
        <ele>528.20001220703</ele>
        <time>2020-03-14T15:37:28.000Z</time>
      </trkpt>
      <trkpt lat="45.89866" lon="4.46154">
        <ele>527.79998779297</ele>
        <time>2020-03-14T15:37:31.000Z</time>
      </trkpt>
      <trkpt lat="45.89858" lon="4.46149">
        <ele>526.79998779297</ele>
        <time>2020-03-14T15:37:34.000Z</time>
      </trkpt>
      <trkpt lat="45.89852" lon="4.46142">
        <ele>526.40002441406</ele>
        <time>2020-03-14T15:37:37.000Z</time>
      </trkpt>
      <trkpt lat="45.89848" lon="4.46137">
        <ele>526</ele>
        <time>2020-03-14T15:37:40.000Z</time>
      </trkpt>
      <trkpt lat="45.89844" lon="4.46132">
        <ele>525.79998779297</ele>
        <time>2020-03-14T15:37:43.000Z</time>
      </trkpt>
      <trkpt lat="45.8984" lon="4.46128">
        <ele>525.79998779297</ele>
        <time>2020-03-14T15:37:46.000Z</time>
      </trkpt>
      <trkpt lat="45.89834" lon="4.46125">
        <ele>525.59997558594</ele>
        <time>2020-03-14T15:37:49.000Z</time>
      </trkpt>
      <trkpt lat="45.89829" lon="4.4612">
        <ele>525.20001220703</ele>
        <time>2020-03-14T15:37:52.000Z</time>
      </trkpt>
      <trkpt lat="45.89822" lon="4.46115">
        <ele>525.20001220703</ele>
        <time>2020-03-14T15:37:56.000Z</time>
      </trkpt>
      <trkpt lat="45.89816" lon="4.46115">
        <ele>525.20001220703</ele>
        <time>2020-03-14T15:37:59.000Z</time>
      </trkpt>
      <trkpt lat="45.89808" lon="4.46114">
        <ele>525.40002441406</ele>
        <time>2020-03-14T15:38:02.000Z</time>
      </trkpt>
      <trkpt lat="45.89799" lon="4.46106">
        <ele>526.20001220703</ele>
        <time>2020-03-14T15:38:05.000Z</time>
      </trkpt>
      <trkpt lat="45.89787" lon="4.461">
        <ele>526.79998779297</ele>
        <time>2020-03-14T15:38:08.000Z</time>
      </trkpt>
      <trkpt lat="45.89779" lon="4.46096">
        <ele>527.20001220703</ele>
        <time>2020-03-14T15:38:11.000Z</time>
      </trkpt>
      <trkpt lat="45.89773" lon="4.46097">
        <ele>527.59997558594</ele>
        <time>2020-03-14T15:38:14.000Z</time>
      </trkpt>
      <trkpt lat="45.89767" lon="4.46101">
        <ele>527.59997558594</ele>
        <time>2020-03-14T15:38:17.000Z</time>
      </trkpt>
      <trkpt lat="45.89765" lon="4.461">
        <ele>527.40002441406</ele>
        <time>2020-03-14T15:38:20.000Z</time>
      </trkpt>
      <trkpt lat="45.89762" lon="4.46101">
        <ele>527.40002441406</ele>
        <time>2020-03-14T15:38:23.000Z</time>
      </trkpt>
      <trkpt lat="45.89759" lon="4.46098">
        <ele>527.40002441406</ele>
        <time>2020-03-14T15:38:27.000Z</time>
      </trkpt>
      <trkpt lat="45.89759" lon="4.46098">
        <ele>527.20001220703</ele>
        <time>2020-03-14T15:38:30.000Z</time>
      </trkpt>
      <trkpt lat="45.8976" lon="4.46098">
        <ele>527.20001220703</ele>
        <time>2020-03-14T15:38:33.000Z</time>
      </trkpt>
      <trkpt lat="45.89758" lon="4.46098">
        <ele>527</ele>
        <time>2020-03-14T15:38:36.000Z</time>
      </trkpt>
      <trkpt lat="45.89753" lon="4.46101">
        <ele>527</ele>
        <time>2020-03-14T15:38:39.000Z</time>
      </trkpt>
      <trkpt lat="45.89749" lon="4.46102">
        <ele>525.40002441406</ele>
        <time>2020-03-14T15:38:42.000Z</time>
      </trkpt>
      <trkpt lat="45.89747" lon="4.46104">
        <ele>523</ele>
        <time>2020-03-14T15:38:45.000Z</time>
      </trkpt>
      <trkpt lat="45.89744" lon="4.46105">
        <ele>522</ele>
        <time>2020-03-14T15:38:48.000Z</time>
      </trkpt>
      <trkpt lat="45.89742" lon="4.46108">
        <ele>521.59997558594</ele>
        <time>2020-03-14T15:38:51.000Z</time>
      </trkpt>
      <trkpt lat="45.89741" lon="4.46112">
        <ele>521.20001220703</ele>
        <time>2020-03-14T15:38:55.000Z</time>
      </trkpt>
      <trkpt lat="45.89743" lon="4.46111">
        <ele>521</ele>
        <time>2020-03-14T15:38:58.000Z</time>
      </trkpt>
      <trkpt lat="45.89745" lon="4.4611">
        <ele>521.40002441406</ele>
        <time>2020-03-14T15:39:01.000Z</time>
      </trkpt>
      <trkpt lat="45.89746" lon="4.4611">
        <ele>522.20001220703</ele>
        <time>2020-03-14T15:39:04.000Z</time>
      </trkpt>
      <trkpt lat="45.89747" lon="4.46108">
        <ele>522.79998779297</ele>
        <time>2020-03-14T15:39:07.000Z</time>
      </trkpt>
      <trkpt lat="45.89749" lon="4.46107">
        <ele>523.20001220703</ele>
        <time>2020-03-14T15:39:10.000Z</time>
      </trkpt>
      <trkpt lat="45.8975" lon="4.46105">
        <ele>524.20001220703</ele>
        <time>2020-03-14T15:39:13.000Z</time>
      </trkpt>
      <trkpt lat="45.89752" lon="4.46103">
        <ele>525</ele>
        <time>2020-03-14T15:39:16.000Z</time>
      </trkpt>
      <trkpt lat="45.89753" lon="4.46101">
        <ele>525.59997558594</ele>
        <time>2020-03-14T15:39:19.000Z</time>
      </trkpt>
      <trkpt lat="45.89752" lon="4.461">
        <ele>526.20001220703</ele>
        <time>2020-03-14T15:39:22.000Z</time>
      </trkpt>
      <trkpt lat="45.89752" lon="4.46098">
        <ele>526.79998779297</ele>
        <time>2020-03-14T15:39:26.000Z</time>
      </trkpt>
      <trkpt lat="45.8975" lon="4.46098">
        <ele>527.20001220703</ele>
        <time>2020-03-14T15:39:29.000Z</time>
      </trkpt>
      <trkpt lat="45.8975" lon="4.46096">
        <ele>527.40002441406</ele>
        <time>2020-03-14T15:39:32.000Z</time>
      </trkpt>
      <trkpt lat="45.89749" lon="4.46094">
        <ele>527.59997558594</ele>
        <time>2020-03-14T15:39:35.000Z</time>
      </trkpt>
      <trkpt lat="45.89748" lon="4.46093">
        <ele>528.20001220703</ele>
        <time>2020-03-14T15:39:38.000Z</time>
      </trkpt>
      <trkpt lat="45.89746" lon="4.46091">
        <ele>528.79998779297</ele>
        <time>2020-03-14T15:39:41.000Z</time>
      </trkpt>
      <trkpt lat="45.89746" lon="4.46089">
        <ele>529.79998779297</ele>
        <time>2020-03-14T15:39:44.000Z</time>
      </trkpt>
      <trkpt lat="45.89744" lon="4.46088">
        <ele>530.40002441406</ele>
        <time>2020-03-14T15:39:47.000Z</time>
      </trkpt>
      <trkpt lat="45.89742" lon="4.46084">
        <ele>530.79998779297</ele>
        <time>2020-03-14T15:39:50.000Z</time>
      </trkpt>
      <trkpt lat="45.89739" lon="4.46083">
        <ele>531</ele>
        <time>2020-03-14T15:39:53.000Z</time>
      </trkpt>
      <trkpt lat="45.89736" lon="4.4608">
        <ele>530.79998779297</ele>
        <time>2020-03-14T15:39:57.000Z</time>
      </trkpt>
      <trkpt lat="45.89735" lon="4.46077">
        <ele>531</ele>
        <time>2020-03-14T15:40:00.000Z</time>
      </trkpt>
      <trkpt lat="45.89732" lon="4.46076">
        <ele>531.20001220703</ele>
        <time>2020-03-14T15:40:03.000Z</time>
      </trkpt>
      <trkpt lat="45.8973" lon="4.46077">
        <ele>531.79998779297</ele>
        <time>2020-03-14T15:40:06.000Z</time>
      </trkpt>
      <trkpt lat="45.89728" lon="4.46077">
        <ele>532.20001220703</ele>
        <time>2020-03-14T15:40:09.000Z</time>
      </trkpt>
      <trkpt lat="45.89726" lon="4.46073">
        <ele>532.20001220703</ele>
        <time>2020-03-14T15:40:12.000Z</time>
      </trkpt>
      <trkpt lat="45.89724" lon="4.46071">
        <ele>532.79998779297</ele>
        <time>2020-03-14T15:40:15.000Z</time>
      </trkpt>
      <trkpt lat="45.89722" lon="4.4607">
        <ele>533.20001220703</ele>
        <time>2020-03-14T15:40:18.000Z</time>
      </trkpt>
      <trkpt lat="45.89722" lon="4.46067">
        <ele>533.40002441406</ele>
        <time>2020-03-14T15:40:21.000Z</time>
      </trkpt>
      <trkpt lat="45.89721" lon="4.46065">
        <ele>533.59997558594</ele>
        <time>2020-03-14T15:40:24.000Z</time>
      </trkpt>
      <trkpt lat="45.89719" lon="4.46062">
        <ele>534.20001220703</ele>
        <time>2020-03-14T15:40:28.000Z</time>
      </trkpt>
      <trkpt lat="45.89718" lon="4.46059">
        <ele>534.59997558594</ele>
        <time>2020-03-14T15:40:31.000Z</time>
      </trkpt>
      <trkpt lat="45.89717" lon="4.46055">
        <ele>535.20001220703</ele>
        <time>2020-03-14T15:40:34.000Z</time>
      </trkpt>
      <trkpt lat="45.89714" lon="4.46054">
        <ele>535.79998779297</ele>
        <time>2020-03-14T15:40:37.000Z</time>
      </trkpt>
      <trkpt lat="45.89712" lon="4.46052">
        <ele>536.40002441406</ele>
        <time>2020-03-14T15:40:40.000Z</time>
      </trkpt>
      <trkpt lat="45.8971" lon="4.46049">
        <ele>537</ele>
        <time>2020-03-14T15:40:43.000Z</time>
      </trkpt>
      <trkpt lat="45.89709" lon="4.46047">
        <ele>537.20001220703</ele>
        <time>2020-03-14T15:40:46.000Z</time>
      </trkpt>
      <trkpt lat="45.89707" lon="4.46045">
        <ele>537.59997558594</ele>
        <time>2020-03-14T15:40:49.000Z</time>
      </trkpt>
      <trkpt lat="45.89706" lon="4.46043">
        <ele>538</ele>
        <time>2020-03-14T15:40:52.000Z</time>
      </trkpt>
      <trkpt lat="45.89705" lon="4.46041">
        <ele>538.79998779297</ele>
        <time>2020-03-14T15:40:56.000Z</time>
      </trkpt>
      <trkpt lat="45.89704" lon="4.46039">
        <ele>539.40002441406</ele>
        <time>2020-03-14T15:40:59.000Z</time>
      </trkpt>
      <trkpt lat="45.89704" lon="4.46038">
        <ele>539.79998779297</ele>
        <time>2020-03-14T15:41:02.000Z</time>
      </trkpt>
      <trkpt lat="45.89704" lon="4.46035">
        <ele>540.79998779297</ele>
        <time>2020-03-14T15:41:05.000Z</time>
      </trkpt>
      <trkpt lat="45.89704" lon="4.46034">
        <ele>541.20001220703</ele>
        <time>2020-03-14T15:41:08.000Z</time>
      </trkpt>
      <trkpt lat="45.89703" lon="4.46033">
        <ele>541.40002441406</ele>
        <time>2020-03-14T15:41:11.000Z</time>
      </trkpt>
      <trkpt lat="45.89701" lon="4.46033">
        <ele>541.40002441406</ele>
        <time>2020-03-14T15:41:14.000Z</time>
      </trkpt>
      <trkpt lat="45.897" lon="4.46032">
        <ele>541.20001220703</ele>
        <time>2020-03-14T15:41:17.000Z</time>
      </trkpt>
      <trkpt lat="45.89696" lon="4.4603">
        <ele>541.20001220703</ele>
        <time>2020-03-14T15:41:20.000Z</time>
      </trkpt>
      <trkpt lat="45.89693" lon="4.46028">
        <ele>541.40002441406</ele>
        <time>2020-03-14T15:41:23.000Z</time>
      </trkpt>
      <trkpt lat="45.8969" lon="4.46025">
        <ele>541.59997558594</ele>
        <time>2020-03-14T15:41:27.000Z</time>
      </trkpt>
      <trkpt lat="45.89688" lon="4.46021">
        <ele>542.40002441406</ele>
        <time>2020-03-14T15:41:30.000Z</time>
      </trkpt>
      <trkpt lat="45.89686" lon="4.46019">
        <ele>543.20001220703</ele>
        <time>2020-03-14T15:41:33.000Z</time>
      </trkpt>
      <trkpt lat="45.89681" lon="4.46016">
        <ele>543.40002441406</ele>
        <time>2020-03-14T15:41:36.000Z</time>
      </trkpt>
      <trkpt lat="45.89678" lon="4.46013">
        <ele>543.40002441406</ele>
        <time>2020-03-14T15:41:39.000Z</time>
      </trkpt>
      <trkpt lat="45.89674" lon="4.46007">
        <ele>543.59997558594</ele>
        <time>2020-03-14T15:41:42.000Z</time>
      </trkpt>
      <trkpt lat="45.89669" lon="4.46002">
        <ele>543.20001220703</ele>
        <time>2020-03-14T15:41:45.000Z</time>
      </trkpt>
      <trkpt lat="45.89663" lon="4.45999">
        <ele>542.40002441406</ele>
        <time>2020-03-14T15:41:48.000Z</time>
      </trkpt>
      <trkpt lat="45.89658" lon="4.45995">
        <ele>542</ele>
        <time>2020-03-14T15:41:51.000Z</time>
      </trkpt>
      <trkpt lat="45.89652" lon="4.45993">
        <ele>541.79998779297</ele>
        <time>2020-03-14T15:41:54.000Z</time>
      </trkpt>
      <trkpt lat="45.89645" lon="4.4599">
        <ele>542.59997558594</ele>
        <time>2020-03-14T15:41:58.000Z</time>
      </trkpt>
      <trkpt lat="45.89636" lon="4.45986">
        <ele>542.79998779297</ele>
        <time>2020-03-14T15:42:01.000Z</time>
      </trkpt>
      <trkpt lat="45.89627" lon="4.45985">
        <ele>542.40002441406</ele>
        <time>2020-03-14T15:42:04.000Z</time>
      </trkpt>
      <trkpt lat="45.89617" lon="4.45981">
        <ele>542.20001220703</ele>
        <time>2020-03-14T15:42:07.000Z</time>
      </trkpt>
      <trkpt lat="45.89605" lon="4.45979">
        <ele>542.20001220703</ele>
        <time>2020-03-14T15:42:10.000Z</time>
      </trkpt>
      <trkpt lat="45.89593" lon="4.45982">
        <ele>541.59997558594</ele>
        <time>2020-03-14T15:42:13.000Z</time>
      </trkpt>
      <trkpt lat="45.89582" lon="4.45984">
        <ele>540.40002441406</ele>
        <time>2020-03-14T15:42:16.000Z</time>
      </trkpt>
      <trkpt lat="45.89573" lon="4.45987">
        <ele>540.40002441406</ele>
        <time>2020-03-14T15:42:19.000Z</time>
      </trkpt>
      <trkpt lat="45.89566" lon="4.45986">
        <ele>541.40002441406</ele>
        <time>2020-03-14T15:42:22.000Z</time>
      </trkpt>
      <trkpt lat="45.89557" lon="4.45984">
        <ele>542.20001220703</ele>
        <time>2020-03-14T15:42:26.000Z</time>
      </trkpt>
      <trkpt lat="45.89548" lon="4.45985">
        <ele>542</ele>
        <time>2020-03-14T15:42:29.000Z</time>
      </trkpt>
      <trkpt lat="45.89536" lon="4.45988">
        <ele>541.79998779297</ele>
        <time>2020-03-14T15:42:32.000Z</time>
      </trkpt>
      <trkpt lat="45.89526" lon="4.45987">
        <ele>541.20001220703</ele>
        <time>2020-03-14T15:42:35.000Z</time>
      </trkpt>
      <trkpt lat="45.89519" lon="4.45985">
        <ele>540.59997558594</ele>
        <time>2020-03-14T15:42:38.000Z</time>
      </trkpt>
      <trkpt lat="45.8951" lon="4.45987">
        <ele>540</ele>
        <time>2020-03-14T15:42:41.000Z</time>
      </trkpt>
      <trkpt lat="45.89501" lon="4.45994">
        <ele>538</ele>
        <time>2020-03-14T15:42:44.000Z</time>
      </trkpt>
      <trkpt lat="45.89492" lon="4.46003">
        <ele>536</ele>
        <time>2020-03-14T15:42:47.000Z</time>
      </trkpt>
      <trkpt lat="45.89485" lon="4.46009">
        <ele>534</ele>
        <time>2020-03-14T15:42:50.000Z</time>
      </trkpt>
      <trkpt lat="45.89476" lon="4.46015">
        <ele>531.59997558594</ele>
        <time>2020-03-14T15:42:53.000Z</time>
      </trkpt>
      <trkpt lat="45.89464" lon="4.46019">
        <ele>531.20001220703</ele>
        <time>2020-03-14T15:42:57.000Z</time>
      </trkpt>
      <trkpt lat="45.89458" lon="4.46021">
        <ele>531.59997558594</ele>
        <time>2020-03-14T15:43:00.000Z</time>
      </trkpt>
      <trkpt lat="45.89449" lon="4.4602">
        <ele>531.40002441406</ele>
        <time>2020-03-14T15:43:03.000Z</time>
      </trkpt>
      <trkpt lat="45.89443" lon="4.46014">
        <ele>531.20001220703</ele>
        <time>2020-03-14T15:43:06.000Z</time>
      </trkpt>
      <trkpt lat="45.89437" lon="4.46008">
        <ele>530.79998779297</ele>
        <time>2020-03-14T15:43:09.000Z</time>
      </trkpt>
      <trkpt lat="45.89428" lon="4.46001">
        <ele>530.59997558594</ele>
        <time>2020-03-14T15:43:12.000Z</time>
      </trkpt>
      <trkpt lat="45.89422" lon="4.46001">
        <ele>529.20001220703</ele>
        <time>2020-03-14T15:43:15.000Z</time>
      </trkpt>
      <trkpt lat="45.89416" lon="4.46008">
        <ele>527.59997558594</ele>
        <time>2020-03-14T15:43:18.000Z</time>
      </trkpt>
      <trkpt lat="45.89411" lon="4.46018">
        <ele>525.20001220703</ele>
        <time>2020-03-14T15:43:21.000Z</time>
      </trkpt>
      <trkpt lat="45.89406" lon="4.46028">
        <ele>523.59997558594</ele>
        <time>2020-03-14T15:43:24.000Z</time>
      </trkpt>
      <trkpt lat="45.89399" lon="4.46038">
        <ele>521.20001220703</ele>
        <time>2020-03-14T15:43:28.000Z</time>
      </trkpt>
      <trkpt lat="45.89393" lon="4.46045">
        <ele>519.40002441406</ele>
        <time>2020-03-14T15:43:31.000Z</time>
      </trkpt>
      <trkpt lat="45.89387" lon="4.4605">
        <ele>518.59997558594</ele>
        <time>2020-03-14T15:43:34.000Z</time>
      </trkpt>
      <trkpt lat="45.89383" lon="4.46056">
        <ele>517.40002441406</ele>
        <time>2020-03-14T15:43:37.000Z</time>
      </trkpt>
      <trkpt lat="45.89379" lon="4.46062">
        <ele>516.20001220703</ele>
        <time>2020-03-14T15:43:40.000Z</time>
      </trkpt>
      <trkpt lat="45.89376" lon="4.4607">
        <ele>515.59997558594</ele>
        <time>2020-03-14T15:43:43.000Z</time>
      </trkpt>
      <trkpt lat="45.89374" lon="4.46076">
        <ele>514.59997558594</ele>
        <time>2020-03-14T15:43:46.000Z</time>
      </trkpt>
      <trkpt lat="45.89372" lon="4.46081">
        <ele>512.79998779297</ele>
        <time>2020-03-14T15:43:49.000Z</time>
      </trkpt>
      <trkpt lat="45.89367" lon="4.46084">
        <ele>511.20001220703</ele>
        <time>2020-03-14T15:43:52.000Z</time>
      </trkpt>
      <trkpt lat="45.8936" lon="4.46086">
        <ele>509.39999389648</ele>
        <time>2020-03-14T15:43:56.000Z</time>
      </trkpt>
      <trkpt lat="45.89356" lon="4.46087">
        <ele>507.79998779297</ele>
        <time>2020-03-14T15:43:59.000Z</time>
      </trkpt>
      <trkpt lat="45.89349" lon="4.46091">
        <ele>507</ele>
        <time>2020-03-14T15:44:02.000Z</time>
      </trkpt>
      <trkpt lat="45.89346" lon="4.46095">
        <ele>505.79998779297</ele>
        <time>2020-03-14T15:44:05.000Z</time>
      </trkpt>
      <trkpt lat="45.8934" lon="4.46103">
        <ele>504.20001220703</ele>
        <time>2020-03-14T15:44:08.000Z</time>
      </trkpt>
      <trkpt lat="45.89335" lon="4.46106">
        <ele>502.39999389648</ele>
        <time>2020-03-14T15:44:11.000Z</time>
      </trkpt>
      <trkpt lat="45.89327" lon="4.4611">
        <ele>501</ele>
        <time>2020-03-14T15:44:14.000Z</time>
      </trkpt>
      <trkpt lat="45.89317" lon="4.46116">
        <ele>499</ele>
        <time>2020-03-14T15:44:17.000Z</time>
      </trkpt>
      <trkpt lat="45.89311" lon="4.46125">
        <ele>497.39999389648</ele>
        <time>2020-03-14T15:44:20.000Z</time>
      </trkpt>
      <trkpt lat="45.89309" lon="4.46135">
        <ele>496</ele>
        <time>2020-03-14T15:44:23.000Z</time>
      </trkpt>
      <trkpt lat="45.89307" lon="4.46149">
        <ele>493.60000610352</ele>
        <time>2020-03-14T15:44:27.000Z</time>
      </trkpt>
      <trkpt lat="45.89306" lon="4.46158">
        <ele>492.60000610352</ele>
        <time>2020-03-14T15:44:30.000Z</time>
      </trkpt>
      <trkpt lat="45.89305" lon="4.46166">
        <ele>491.39999389648</ele>
        <time>2020-03-14T15:44:33.000Z</time>
      </trkpt>
      <trkpt lat="45.89302" lon="4.46175">
        <ele>490</ele>
        <time>2020-03-14T15:44:36.000Z</time>
      </trkpt>
      <trkpt lat="45.89296" lon="4.46179">
        <ele>488.20001220703</ele>
        <time>2020-03-14T15:44:39.000Z</time>
      </trkpt>
      <trkpt lat="45.89289" lon="4.46179">
        <ele>486</ele>
        <time>2020-03-14T15:44:42.000Z</time>
      </trkpt>
      <trkpt lat="45.89282" lon="4.46176">
        <ele>484.79998779297</ele>
        <time>2020-03-14T15:44:45.000Z</time>
      </trkpt>
      <trkpt lat="45.89276" lon="4.46173">
        <ele>483.79998779297</ele>
        <time>2020-03-14T15:44:48.000Z</time>
      </trkpt>
      <trkpt lat="45.89269" lon="4.46171">
        <ele>481.39999389648</ele>
        <time>2020-03-14T15:44:51.000Z</time>
      </trkpt>
      <trkpt lat="45.89259" lon="4.46171">
        <ele>479.79998779297</ele>
        <time>2020-03-14T15:44:54.000Z</time>
      </trkpt>
      <trkpt lat="45.89245" lon="4.46169">
        <ele>478</ele>
        <time>2020-03-14T15:44:58.000Z</time>
      </trkpt>
      <trkpt lat="45.89235" lon="4.46168">
        <ele>476.39999389648</ele>
        <time>2020-03-14T15:45:01.000Z</time>
      </trkpt>
      <trkpt lat="45.89225" lon="4.46167">
        <ele>474.79998779297</ele>
        <time>2020-03-14T15:45:04.000Z</time>
      </trkpt>
      <trkpt lat="45.89211" lon="4.46173">
        <ele>473.60000610352</ele>
        <time>2020-03-14T15:45:07.000Z</time>
      </trkpt>
      <trkpt lat="45.89201" lon="4.46177">
        <ele>471.20001220703</ele>
        <time>2020-03-14T15:45:10.000Z</time>
      </trkpt>
      <trkpt lat="45.89194" lon="4.46185">
        <ele>469.39999389648</ele>
        <time>2020-03-14T15:45:13.000Z</time>
      </trkpt>
      <trkpt lat="45.89187" lon="4.46191">
        <ele>468.20001220703</ele>
        <time>2020-03-14T15:45:16.000Z</time>
      </trkpt>
      <trkpt lat="45.89178" lon="4.46197">
        <ele>466.79998779297</ele>
        <time>2020-03-14T15:45:19.000Z</time>
      </trkpt>
      <trkpt lat="45.89171" lon="4.46211">
        <ele>465.39999389648</ele>
        <time>2020-03-14T15:45:22.000Z</time>
      </trkpt>
      <trkpt lat="45.89165" lon="4.46224">
        <ele>464.20001220703</ele>
        <time>2020-03-14T15:45:25.000Z</time>
      </trkpt>
      <trkpt lat="45.89159" lon="4.46244">
        <ele>461</ele>
        <time>2020-03-14T15:45:29.000Z</time>
      </trkpt>
      <trkpt lat="45.89157" lon="4.46261">
        <ele>458.79998779297</ele>
        <time>2020-03-14T15:45:32.000Z</time>
      </trkpt>
      <trkpt lat="45.89154" lon="4.46272">
        <ele>457</ele>
        <time>2020-03-14T15:45:35.000Z</time>
      </trkpt>
      <trkpt lat="45.89153" lon="4.46285">
        <ele>455.20001220703</ele>
        <time>2020-03-14T15:45:38.000Z</time>
      </trkpt>
      <trkpt lat="45.89152" lon="4.46301">
        <ele>453</ele>
        <time>2020-03-14T15:45:41.000Z</time>
      </trkpt>
      <trkpt lat="45.89151" lon="4.46315">
        <ele>451.60000610352</ele>
        <time>2020-03-14T15:45:44.000Z</time>
      </trkpt>
      <trkpt lat="45.89152" lon="4.46327">
        <ele>449.79998779297</ele>
        <time>2020-03-14T15:45:47.000Z</time>
      </trkpt>
      <trkpt lat="45.89154" lon="4.46338">
        <ele>448.20001220703</ele>
        <time>2020-03-14T15:45:50.000Z</time>
      </trkpt>
      <trkpt lat="45.8916" lon="4.46355">
        <ele>446.39999389648</ele>
        <time>2020-03-14T15:45:53.000Z</time>
      </trkpt>
      <trkpt lat="45.89173" lon="4.46378">
        <ele>441.60000610352</ele>
        <time>2020-03-14T15:45:57.000Z</time>
      </trkpt>
      <trkpt lat="45.89184" lon="4.46399">
        <ele>439.60000610352</ele>
        <time>2020-03-14T15:46:00.000Z</time>
      </trkpt>
      <trkpt lat="45.89193" lon="4.46414">
        <ele>437.79998779297</ele>
        <time>2020-03-14T15:46:03.000Z</time>
      </trkpt>
      <trkpt lat="45.89202" lon="4.46429">
        <ele>436.60000610352</ele>
        <time>2020-03-14T15:46:06.000Z</time>
      </trkpt>
      <trkpt lat="45.8921" lon="4.46446">
        <ele>434.60000610352</ele>
        <time>2020-03-14T15:46:09.000Z</time>
      </trkpt>
      <trkpt lat="45.8922" lon="4.46462">
        <ele>433.39999389648</ele>
        <time>2020-03-14T15:46:12.000Z</time>
      </trkpt>
      <trkpt lat="45.89227" lon="4.46472">
        <ele>431.79998779297</ele>
        <time>2020-03-14T15:46:15.000Z</time>
      </trkpt>
      <trkpt lat="45.89235" lon="4.46482">
        <ele>429.79998779297</ele>
        <time>2020-03-14T15:46:18.000Z</time>
      </trkpt>
      <trkpt lat="45.89245" lon="4.46494">
        <ele>428.60000610352</ele>
        <time>2020-03-14T15:46:21.000Z</time>
      </trkpt>
      <trkpt lat="45.89253" lon="4.46507">
        <ele>426.60000610352</ele>
        <time>2020-03-14T15:46:24.000Z</time>
      </trkpt>
      <trkpt lat="45.89263" lon="4.46516">
        <ele>424.79998779297</ele>
        <time>2020-03-14T15:46:28.000Z</time>
      </trkpt>
      <trkpt lat="45.89275" lon="4.46521">
        <ele>422.39999389648</ele>
        <time>2020-03-14T15:46:31.000Z</time>
      </trkpt>
      <trkpt lat="45.89284" lon="4.46523">
        <ele>420</ele>
        <time>2020-03-14T15:46:34.000Z</time>
      </trkpt>
      <trkpt lat="45.89292" lon="4.46524">
        <ele>418.39999389648</ele>
        <time>2020-03-14T15:46:37.000Z</time>
      </trkpt>
      <trkpt lat="45.89304" lon="4.46528">
        <ele>416.20001220703</ele>
        <time>2020-03-14T15:46:40.000Z</time>
      </trkpt>
      <trkpt lat="45.89315" lon="4.4653">
        <ele>412.60000610352</ele>
        <time>2020-03-14T15:46:43.000Z</time>
      </trkpt>
      <trkpt lat="45.89329" lon="4.4653">
        <ele>409.79998779297</ele>
        <time>2020-03-14T15:46:46.000Z</time>
      </trkpt>
      <trkpt lat="45.89345" lon="4.46533">
        <ele>408.20001220703</ele>
        <time>2020-03-14T15:46:49.000Z</time>
      </trkpt>
      <trkpt lat="45.89368" lon="4.46542">
        <ele>407.39999389648</ele>
        <time>2020-03-14T15:46:52.000Z</time>
      </trkpt>
      <trkpt lat="45.89379" lon="4.4656">
        <ele>406.60000610352</ele>
        <time>2020-03-14T15:46:55.000Z</time>
      </trkpt>
      <trkpt lat="45.89384" lon="4.46581">
        <ele>407</ele>
        <time>2020-03-14T15:46:59.000Z</time>
      </trkpt>
      <trkpt lat="45.89381" lon="4.46588">
        <ele>407.39999389648</ele>
        <time>2020-03-14T15:47:02.000Z</time>
      </trkpt>
      <trkpt lat="45.89376" lon="4.46594">
        <ele>407.39999389648</ele>
        <time>2020-03-14T15:47:05.000Z</time>
      </trkpt>
      <trkpt lat="45.89368" lon="4.46602">
        <ele>407.39999389648</ele>
        <time>2020-03-14T15:47:08.000Z</time>
      </trkpt>
      <trkpt lat="45.8936" lon="4.46611">
        <ele>406.60000610352</ele>
        <time>2020-03-14T15:47:11.000Z</time>
      </trkpt>
      <trkpt lat="45.89353" lon="4.4662">
        <ele>406.20001220703</ele>
        <time>2020-03-14T15:47:14.000Z</time>
      </trkpt>
      <trkpt lat="45.89346" lon="4.46629">
        <ele>405.79998779297</ele>
        <time>2020-03-14T15:47:17.000Z</time>
      </trkpt>
      <trkpt lat="45.89341" lon="4.46636">
        <ele>405.79998779297</ele>
        <time>2020-03-14T15:47:20.000Z</time>
      </trkpt>
      <trkpt lat="45.89336" lon="4.46644">
        <ele>405.60000610352</ele>
        <time>2020-03-14T15:47:23.000Z</time>
      </trkpt>
      <trkpt lat="45.89331" lon="4.46653">
        <ele>405.60000610352</ele>
        <time>2020-03-14T15:47:27.000Z</time>
      </trkpt>
      <trkpt lat="45.89326" lon="4.46665">
        <ele>405.60000610352</ele>
        <time>2020-03-14T15:47:30.000Z</time>
      </trkpt>
      <trkpt lat="45.89321" lon="4.46674">
        <ele>405.20001220703</ele>
        <time>2020-03-14T15:47:33.000Z</time>
      </trkpt>
      <trkpt lat="45.89316" lon="4.4668">
        <ele>405</ele>
        <time>2020-03-14T15:47:36.000Z</time>
      </trkpt>
      <trkpt lat="45.89312" lon="4.46687">
        <ele>405</ele>
        <time>2020-03-14T15:47:39.000Z</time>
      </trkpt>
      <trkpt lat="45.89307" lon="4.46692">
        <ele>404.60000610352</ele>
        <time>2020-03-14T15:47:42.000Z</time>
      </trkpt>
      <trkpt lat="45.89305" lon="4.46697">
        <ele>404.20001220703</ele>
        <time>2020-03-14T15:47:45.000Z</time>
      </trkpt>
      <trkpt lat="45.893" lon="4.46701">
        <ele>404.39999389648</ele>
        <time>2020-03-14T15:47:48.000Z</time>
      </trkpt>
      <trkpt lat="45.89293" lon="4.46706">
        <ele>404.79998779297</ele>
        <time>2020-03-14T15:47:51.000Z</time>
      </trkpt>
      <trkpt lat="45.89286" lon="4.46707">
        <ele>405</ele>
        <time>2020-03-14T15:47:54.000Z</time>
      </trkpt>
      <trkpt lat="45.89277" lon="4.46708">
        <ele>405</ele>
        <time>2020-03-14T15:47:58.000Z</time>
      </trkpt>
      <trkpt lat="45.89271" lon="4.46709">
        <ele>404.79998779297</ele>
        <time>2020-03-14T15:48:01.000Z</time>
      </trkpt>
      <trkpt lat="45.89264" lon="4.46712">
        <ele>405.20001220703</ele>
        <time>2020-03-14T15:48:04.000Z</time>
      </trkpt>
      <trkpt lat="45.89259" lon="4.46715">
        <ele>406</ele>
        <time>2020-03-14T15:48:07.000Z</time>
      </trkpt>
      <trkpt lat="45.89254" lon="4.46718">
        <ele>406.20001220703</ele>
        <time>2020-03-14T15:48:10.000Z</time>
      </trkpt>
      <trkpt lat="45.8925" lon="4.46719">
        <ele>406.79998779297</ele>
        <time>2020-03-14T15:48:13.000Z</time>
      </trkpt>
      <trkpt lat="45.89245" lon="4.46722">
        <ele>407</ele>
        <time>2020-03-14T15:48:16.000Z</time>
      </trkpt>
      <trkpt lat="45.89241" lon="4.46725">
        <ele>407.39999389648</ele>
        <time>2020-03-14T15:48:19.000Z</time>
      </trkpt>
      <trkpt lat="45.89237" lon="4.46729">
        <ele>408</ele>
        <time>2020-03-14T15:48:22.000Z</time>
      </trkpt>
      <trkpt lat="45.89233" lon="4.46732">
        <ele>408.79998779297</ele>
        <time>2020-03-14T15:48:25.000Z</time>
      </trkpt>
      <trkpt lat="45.89227" lon="4.46735">
        <ele>409.60000610352</ele>
        <time>2020-03-14T15:48:29.000Z</time>
      </trkpt>
      <trkpt lat="45.89222" lon="4.46739">
        <ele>409.79998779297</ele>
        <time>2020-03-14T15:48:32.000Z</time>
      </trkpt>
      <trkpt lat="45.89217" lon="4.4674">
        <ele>409.60000610352</ele>
        <time>2020-03-14T15:48:35.000Z</time>
      </trkpt>
      <trkpt lat="45.89213" lon="4.46742">
        <ele>409.79998779297</ele>
        <time>2020-03-14T15:48:38.000Z</time>
      </trkpt>
      <trkpt lat="45.89208" lon="4.46745">
        <ele>410.20001220703</ele>
        <time>2020-03-14T15:48:41.000Z</time>
      </trkpt>
      <trkpt lat="45.89204" lon="4.46747">
        <ele>410.39999389648</ele>
        <time>2020-03-14T15:48:44.000Z</time>
      </trkpt>
      <trkpt lat="45.892" lon="4.46749">
        <ele>410.60000610352</ele>
        <time>2020-03-14T15:48:47.000Z</time>
      </trkpt>
      <trkpt lat="45.89196" lon="4.46751">
        <ele>411</ele>
        <time>2020-03-14T15:48:50.000Z</time>
      </trkpt>
      <trkpt lat="45.89192" lon="4.46752">
        <ele>411.60000610352</ele>
        <time>2020-03-14T15:48:53.000Z</time>
      </trkpt>
      <trkpt lat="45.89187" lon="4.46754">
        <ele>412.79998779297</ele>
        <time>2020-03-14T15:48:57.000Z</time>
      </trkpt>
      <trkpt lat="45.89183" lon="4.46756">
        <ele>413</ele>
        <time>2020-03-14T15:49:00.000Z</time>
      </trkpt>
      <trkpt lat="45.89181" lon="4.46757">
        <ele>413</ele>
        <time>2020-03-14T15:49:03.000Z</time>
      </trkpt>
      <trkpt lat="45.89178" lon="4.4676">
        <ele>413.20001220703</ele>
        <time>2020-03-14T15:49:06.000Z</time>
      </trkpt>
      <trkpt lat="45.89175" lon="4.46763">
        <ele>413.79998779297</ele>
        <time>2020-03-14T15:49:09.000Z</time>
      </trkpt>
      <trkpt lat="45.89173" lon="4.46765">
        <ele>414.20001220703</ele>
        <time>2020-03-14T15:49:12.000Z</time>
      </trkpt>
      <trkpt lat="45.8917" lon="4.46767">
        <ele>414.60000610352</ele>
        <time>2020-03-14T15:49:15.000Z</time>
      </trkpt>
      <trkpt lat="45.89167" lon="4.4677">
        <ele>414.79998779297</ele>
        <time>2020-03-14T15:49:18.000Z</time>
      </trkpt>
      <trkpt lat="45.89165" lon="4.46772">
        <ele>414.79998779297</ele>
        <time>2020-03-14T15:49:21.000Z</time>
      </trkpt>
      <trkpt lat="45.89162" lon="4.46775">
        <ele>415.39999389648</ele>
        <time>2020-03-14T15:49:24.000Z</time>
      </trkpt>
      <trkpt lat="45.89158" lon="4.46779">
        <ele>416.20001220703</ele>
        <time>2020-03-14T15:49:28.000Z</time>
      </trkpt>
      <trkpt lat="45.89155" lon="4.46783">
        <ele>416.39999389648</ele>
        <time>2020-03-14T15:49:31.000Z</time>
      </trkpt>
      <trkpt lat="45.89152" lon="4.46786">
        <ele>417.39999389648</ele>
        <time>2020-03-14T15:49:34.000Z</time>
      </trkpt>
      <trkpt lat="45.89149" lon="4.46789">
        <ele>417.60000610352</ele>
        <time>2020-03-14T15:49:37.000Z</time>
      </trkpt>
      <trkpt lat="45.89146" lon="4.46791">
        <ele>417.60000610352</ele>
        <time>2020-03-14T15:49:40.000Z</time>
      </trkpt>
      <trkpt lat="45.89143" lon="4.46794">
        <ele>417.79998779297</ele>
        <time>2020-03-14T15:49:43.000Z</time>
      </trkpt>
      <trkpt lat="45.89141" lon="4.46795">
        <ele>417.79998779297</ele>
        <time>2020-03-14T15:49:46.000Z</time>
      </trkpt>
      <trkpt lat="45.89138" lon="4.46797">
        <ele>417.79998779297</ele>
        <time>2020-03-14T15:49:49.000Z</time>
      </trkpt>
      <trkpt lat="45.89134" lon="4.468">
        <ele>418.20001220703</ele>
        <time>2020-03-14T15:49:52.000Z</time>
      </trkpt>
      <trkpt lat="45.8913" lon="4.46802">
        <ele>418.79998779297</ele>
        <time>2020-03-14T15:49:55.000Z</time>
      </trkpt>
      <trkpt lat="45.89128" lon="4.46808">
        <ele>419.60000610352</ele>
        <time>2020-03-14T15:49:59.000Z</time>
      </trkpt>
      <trkpt lat="45.89126" lon="4.46811">
        <ele>419.79998779297</ele>
        <time>2020-03-14T15:50:02.000Z</time>
      </trkpt>
      <trkpt lat="45.89123" lon="4.46813">
        <ele>420.39999389648</ele>
        <time>2020-03-14T15:50:05.000Z</time>
      </trkpt>
      <trkpt lat="45.89121" lon="4.46816">
        <ele>421.20001220703</ele>
        <time>2020-03-14T15:50:08.000Z</time>
      </trkpt>
      <trkpt lat="45.89118" lon="4.46818">
        <ele>421.20001220703</ele>
        <time>2020-03-14T15:50:11.000Z</time>
      </trkpt>
      <trkpt lat="45.89116" lon="4.4682">
        <ele>422.20001220703</ele>
        <time>2020-03-14T15:50:14.000Z</time>
      </trkpt>
      <trkpt lat="45.89114" lon="4.46821">
        <ele>423</ele>
        <time>2020-03-14T15:50:17.000Z</time>
      </trkpt>
      <trkpt lat="45.89112" lon="4.46822">
        <ele>423</ele>
        <time>2020-03-14T15:50:20.000Z</time>
      </trkpt>
      <trkpt lat="45.89109" lon="4.46822">
        <ele>423.20001220703</ele>
        <time>2020-03-14T15:50:23.000Z</time>
      </trkpt>
      <trkpt lat="45.89106" lon="4.46825">
        <ele>423.79998779297</ele>
        <time>2020-03-14T15:50:26.000Z</time>
      </trkpt>
      <trkpt lat="45.89101" lon="4.46828">
        <ele>424.39999389648</ele>
        <time>2020-03-14T15:50:30.000Z</time>
      </trkpt>
      <trkpt lat="45.89099" lon="4.4683">
        <ele>424.79998779297</ele>
        <time>2020-03-14T15:50:33.000Z</time>
      </trkpt>
      <trkpt lat="45.89097" lon="4.46832">
        <ele>425.20001220703</ele>
        <time>2020-03-14T15:50:36.000Z</time>
      </trkpt>
      <trkpt lat="45.89094" lon="4.46834">
        <ele>425.60000610352</ele>
        <time>2020-03-14T15:50:39.000Z</time>
      </trkpt>
      <trkpt lat="45.89091" lon="4.46835">
        <ele>425.79998779297</ele>
        <time>2020-03-14T15:50:42.000Z</time>
      </trkpt>
      <trkpt lat="45.89088" lon="4.46837">
        <ele>426</ele>
        <time>2020-03-14T15:50:45.000Z</time>
      </trkpt>
      <trkpt lat="45.89085" lon="4.46841">
        <ele>426.20001220703</ele>
        <time>2020-03-14T15:50:48.000Z</time>
      </trkpt>
      <trkpt lat="45.89085" lon="4.46844">
        <ele>426.60000610352</ele>
        <time>2020-03-14T15:50:51.000Z</time>
      </trkpt>
      <trkpt lat="45.89082" lon="4.46847">
        <ele>426.79998779297</ele>
        <time>2020-03-14T15:50:54.000Z</time>
      </trkpt>
      <trkpt lat="45.89079" lon="4.4685">
        <ele>427.60000610352</ele>
        <time>2020-03-14T15:50:58.000Z</time>
      </trkpt>
      <trkpt lat="45.89076" lon="4.46852">
        <ele>427.79998779297</ele>
        <time>2020-03-14T15:51:01.000Z</time>
      </trkpt>
      <trkpt lat="45.89074" lon="4.46855">
        <ele>428.20001220703</ele>
        <time>2020-03-14T15:51:04.000Z</time>
      </trkpt>
      <trkpt lat="45.89071" lon="4.46857">
        <ele>428.60000610352</ele>
        <time>2020-03-14T15:51:07.000Z</time>
      </trkpt>
      <trkpt lat="45.89068" lon="4.46859">
        <ele>429</ele>
        <time>2020-03-14T15:51:10.000Z</time>
      </trkpt>
      <trkpt lat="45.89065" lon="4.46861">
        <ele>429.39999389648</ele>
        <time>2020-03-14T15:51:13.000Z</time>
      </trkpt>
      <trkpt lat="45.89062" lon="4.46863">
        <ele>429.79998779297</ele>
        <time>2020-03-14T15:51:16.000Z</time>
      </trkpt>
      <trkpt lat="45.89059" lon="4.46864">
        <ele>430.20001220703</ele>
        <time>2020-03-14T15:51:19.000Z</time>
      </trkpt>
      <trkpt lat="45.89056" lon="4.46867">
        <ele>430.60000610352</ele>
        <time>2020-03-14T15:51:22.000Z</time>
      </trkpt>
      <trkpt lat="45.89053" lon="4.46869">
        <ele>431</ele>
        <time>2020-03-14T15:51:25.000Z</time>
      </trkpt>
      <trkpt lat="45.89049" lon="4.46871">
        <ele>431.60000610352</ele>
        <time>2020-03-14T15:51:29.000Z</time>
      </trkpt>
      <trkpt lat="45.89045" lon="4.46873">
        <ele>432.20001220703</ele>
        <time>2020-03-14T15:51:32.000Z</time>
      </trkpt>
      <trkpt lat="45.89042" lon="4.46874">
        <ele>432.60000610352</ele>
        <time>2020-03-14T15:51:35.000Z</time>
      </trkpt>
      <trkpt lat="45.89039" lon="4.46875">
        <ele>432.79998779297</ele>
        <time>2020-03-14T15:51:38.000Z</time>
      </trkpt>
      <trkpt lat="45.89038" lon="4.46876">
        <ele>433</ele>
        <time>2020-03-14T15:51:41.000Z</time>
      </trkpt>
      <trkpt lat="45.89035" lon="4.46878">
        <ele>433.20001220703</ele>
        <time>2020-03-14T15:51:44.000Z</time>
      </trkpt>
      <trkpt lat="45.89033" lon="4.4688">
        <ele>433.60000610352</ele>
        <time>2020-03-14T15:51:47.000Z</time>
      </trkpt>
      <trkpt lat="45.8903" lon="4.46882">
        <ele>433.79998779297</ele>
        <time>2020-03-14T15:51:50.000Z</time>
      </trkpt>
      <trkpt lat="45.89027" lon="4.46883">
        <ele>434.20001220703</ele>
        <time>2020-03-14T15:51:53.000Z</time>
      </trkpt>
      <trkpt lat="45.89024" lon="4.46884">
        <ele>434.79998779297</ele>
        <time>2020-03-14T15:51:56.000Z</time>
      </trkpt>
      <trkpt lat="45.89021" lon="4.46886">
        <ele>435</ele>
        <time>2020-03-14T15:52:00.000Z</time>
      </trkpt>
      <trkpt lat="45.89019" lon="4.46888">
        <ele>435.60000610352</ele>
        <time>2020-03-14T15:52:03.000Z</time>
      </trkpt>
      <trkpt lat="45.89017" lon="4.4689">
        <ele>436.39999389648</ele>
        <time>2020-03-14T15:52:06.000Z</time>
      </trkpt>
      <trkpt lat="45.89014" lon="4.46892">
        <ele>436.79998779297</ele>
        <time>2020-03-14T15:52:09.000Z</time>
      </trkpt>
      <trkpt lat="45.8901" lon="4.46895">
        <ele>437</ele>
        <time>2020-03-14T15:52:12.000Z</time>
      </trkpt>
      <trkpt lat="45.89007" lon="4.46897">
        <ele>437.39999389648</ele>
        <time>2020-03-14T15:52:15.000Z</time>
      </trkpt>
      <trkpt lat="45.89004" lon="4.46899">
        <ele>437.79998779297</ele>
        <time>2020-03-14T15:52:18.000Z</time>
      </trkpt>
      <trkpt lat="45.89" lon="4.46903">
        <ele>438</ele>
        <time>2020-03-14T15:52:21.000Z</time>
      </trkpt>
      <trkpt lat="45.88995" lon="4.46906">
        <ele>438.20001220703</ele>
        <time>2020-03-14T15:52:24.000Z</time>
      </trkpt>
      <trkpt lat="45.8899" lon="4.46907">
        <ele>438.39999389648</ele>
        <time>2020-03-14T15:52:28.000Z</time>
      </trkpt>
      <trkpt lat="45.88986" lon="4.46909">
        <ele>439</ele>
        <time>2020-03-14T15:52:31.000Z</time>
      </trkpt>
      <trkpt lat="45.88983" lon="4.46911">
        <ele>439.20001220703</ele>
        <time>2020-03-14T15:52:34.000Z</time>
      </trkpt>
      <trkpt lat="45.8898" lon="4.46915">
        <ele>439.60000610352</ele>
        <time>2020-03-14T15:52:37.000Z</time>
      </trkpt>
      <trkpt lat="45.88976" lon="4.46919">
        <ele>440</ele>
        <time>2020-03-14T15:52:40.000Z</time>
      </trkpt>
      <trkpt lat="45.88972" lon="4.46921">
        <ele>440.20001220703</ele>
        <time>2020-03-14T15:52:43.000Z</time>
      </trkpt>
      <trkpt lat="45.88968" lon="4.46923">
        <ele>440.20001220703</ele>
        <time>2020-03-14T15:52:46.000Z</time>
      </trkpt>
      <trkpt lat="45.88965" lon="4.46926">
        <ele>440.60000610352</ele>
        <time>2020-03-14T15:52:49.000Z</time>
      </trkpt>
      <trkpt lat="45.88961" lon="4.46929">
        <ele>441</ele>
        <time>2020-03-14T15:52:52.000Z</time>
      </trkpt>
      <trkpt lat="45.88958" lon="4.46932">
        <ele>441.39999389648</ele>
        <time>2020-03-14T15:52:55.000Z</time>
      </trkpt>
      <trkpt lat="45.88954" lon="4.46938">
        <ele>441.79998779297</ele>
        <time>2020-03-14T15:52:59.000Z</time>
      </trkpt>
      <trkpt lat="45.8895" lon="4.46941">
        <ele>442.20001220703</ele>
        <time>2020-03-14T15:53:02.000Z</time>
      </trkpt>
      <trkpt lat="45.88947" lon="4.46946">
        <ele>442.60000610352</ele>
        <time>2020-03-14T15:53:05.000Z</time>
      </trkpt>
      <trkpt lat="45.88942" lon="4.46952">
        <ele>442.60000610352</ele>
        <time>2020-03-14T15:53:08.000Z</time>
      </trkpt>
      <trkpt lat="45.88939" lon="4.46955">
        <ele>443</ele>
        <time>2020-03-14T15:53:11.000Z</time>
      </trkpt>
      <trkpt lat="45.88936" lon="4.4696">
        <ele>443.39999389648</ele>
        <time>2020-03-14T15:53:14.000Z</time>
      </trkpt>
      <trkpt lat="45.88934" lon="4.46965">
        <ele>444</ele>
        <time>2020-03-14T15:53:17.000Z</time>
      </trkpt>
      <trkpt lat="45.8893" lon="4.46971">
        <ele>444</ele>
        <time>2020-03-14T15:53:20.000Z</time>
      </trkpt>
      <trkpt lat="45.88931" lon="4.46979">
        <ele>444.20001220703</ele>
        <time>2020-03-14T15:53:23.000Z</time>
      </trkpt>
      <trkpt lat="45.88933" lon="4.46978">
        <ele>444.60000610352</ele>
        <time>2020-03-14T15:53:26.000Z</time>
      </trkpt>
      <trkpt lat="45.88937" lon="4.46973">
        <ele>445.60000610352</ele>
        <time>2020-03-14T15:53:30.000Z</time>
      </trkpt>
      <trkpt lat="45.88941" lon="4.4697">
        <ele>446.20001220703</ele>
        <time>2020-03-14T15:53:33.000Z</time>
      </trkpt>
      <trkpt lat="45.88946" lon="4.46967">
        <ele>446.39999389648</ele>
        <time>2020-03-14T15:53:36.000Z</time>
      </trkpt>
      <trkpt lat="45.88951" lon="4.46965">
        <ele>446.79998779297</ele>
        <time>2020-03-14T15:53:39.000Z</time>
      </trkpt>
      <trkpt lat="45.88957" lon="4.46964">
        <ele>447</ele>
        <time>2020-03-14T15:53:42.000Z</time>
      </trkpt>
      <trkpt lat="45.88961" lon="4.46966">
        <ele>447.20001220703</ele>
        <time>2020-03-14T15:53:45.000Z</time>
      </trkpt>
      <trkpt lat="45.88964" lon="4.4697">
        <ele>447.60000610352</ele>
        <time>2020-03-14T15:53:48.000Z</time>
      </trkpt>
      <trkpt lat="45.88967" lon="4.46974">
        <ele>448.20001220703</ele>
        <time>2020-03-14T15:53:51.000Z</time>
      </trkpt>
      <trkpt lat="45.88969" lon="4.46978">
        <ele>449</ele>
        <time>2020-03-14T15:53:54.000Z</time>
      </trkpt>
      <trkpt lat="45.88973" lon="4.46982">
        <ele>450.20001220703</ele>
        <time>2020-03-14T15:53:58.000Z</time>
      </trkpt>
      <trkpt lat="45.88975" lon="4.46986">
        <ele>451.39999389648</ele>
        <time>2020-03-14T15:54:01.000Z</time>
      </trkpt>
      <trkpt lat="45.88977" lon="4.46989">
        <ele>452.39999389648</ele>
        <time>2020-03-14T15:54:04.000Z</time>
      </trkpt>
      <trkpt lat="45.8898" lon="4.46993">
        <ele>453</ele>
        <time>2020-03-14T15:54:07.000Z</time>
      </trkpt>
      <trkpt lat="45.88982" lon="4.46996">
        <ele>453.79998779297</ele>
        <time>2020-03-14T15:54:10.000Z</time>
      </trkpt>
      <trkpt lat="45.88984" lon="4.46999">
        <ele>454.39999389648</ele>
        <time>2020-03-14T15:54:13.000Z</time>
      </trkpt>
      <trkpt lat="45.88986" lon="4.47002">
        <ele>455.39999389648</ele>
        <time>2020-03-14T15:54:16.000Z</time>
      </trkpt>
      <trkpt lat="45.88988" lon="4.47005">
        <ele>456</ele>
        <time>2020-03-14T15:54:19.000Z</time>
      </trkpt>
      <trkpt lat="45.8899" lon="4.47008">
        <ele>457.20001220703</ele>
        <time>2020-03-14T15:54:22.000Z</time>
      </trkpt>
      <trkpt lat="45.88992" lon="4.47011">
        <ele>458.60000610352</ele>
        <time>2020-03-14T15:54:25.000Z</time>
      </trkpt>
      <trkpt lat="45.88995" lon="4.47014">
        <ele>459.39999389648</ele>
        <time>2020-03-14T15:54:29.000Z</time>
      </trkpt>
      <trkpt lat="45.88997" lon="4.47016">
        <ele>459.79998779297</ele>
        <time>2020-03-14T15:54:32.000Z</time>
      </trkpt>
      <trkpt lat="45.88999" lon="4.4702">
        <ele>460.79998779297</ele>
        <time>2020-03-14T15:54:35.000Z</time>
      </trkpt>
      <trkpt lat="45.89001" lon="4.47022">
        <ele>461.39999389648</ele>
        <time>2020-03-14T15:54:38.000Z</time>
      </trkpt>
      <trkpt lat="45.89004" lon="4.47026">
        <ele>462.39999389648</ele>
        <time>2020-03-14T15:54:41.000Z</time>
      </trkpt>
      <trkpt lat="45.89006" lon="4.47029">
        <ele>463.39999389648</ele>
        <time>2020-03-14T15:54:44.000Z</time>
      </trkpt>
      <trkpt lat="45.89008" lon="4.47032">
        <ele>464</ele>
        <time>2020-03-14T15:54:47.000Z</time>
      </trkpt>
      <trkpt lat="45.8901" lon="4.47035">
        <ele>465</ele>
        <time>2020-03-14T15:54:50.000Z</time>
      </trkpt>
      <trkpt lat="45.89013" lon="4.47038">
        <ele>466</ele>
        <time>2020-03-14T15:54:53.000Z</time>
      </trkpt>
      <trkpt lat="45.89014" lon="4.47041">
        <ele>466.20001220703</ele>
        <time>2020-03-14T15:54:56.000Z</time>
      </trkpt>
      <trkpt lat="45.89018" lon="4.47044">
        <ele>466.39999389648</ele>
        <time>2020-03-14T15:55:00.000Z</time>
      </trkpt>
      <trkpt lat="45.89019" lon="4.47047">
        <ele>467</ele>
        <time>2020-03-14T15:55:03.000Z</time>
      </trkpt>
      <trkpt lat="45.89021" lon="4.4705">
        <ele>467.79998779297</ele>
        <time>2020-03-14T15:55:06.000Z</time>
      </trkpt>
      <trkpt lat="45.89023" lon="4.47053">
        <ele>467.79998779297</ele>
        <time>2020-03-14T15:55:09.000Z</time>
      </trkpt>
      <trkpt lat="45.89026" lon="4.47055">
        <ele>468.39999389648</ele>
        <time>2020-03-14T15:55:12.000Z</time>
      </trkpt>
      <trkpt lat="45.89028" lon="4.47057">
        <ele>468.60000610352</ele>
        <time>2020-03-14T15:55:15.000Z</time>
      </trkpt>
      <trkpt lat="45.89029" lon="4.47059">
        <ele>469.39999389648</ele>
        <time>2020-03-14T15:55:18.000Z</time>
      </trkpt>
      <trkpt lat="45.89032" lon="4.47061">
        <ele>470</ele>
        <time>2020-03-14T15:55:21.000Z</time>
      </trkpt>
      <trkpt lat="45.89032" lon="4.47062">
        <ele>470.79998779297</ele>
        <time>2020-03-14T15:55:24.000Z</time>
      </trkpt>
      <trkpt lat="45.89031" lon="4.47062">
        <ele>470.79998779297</ele>
        <time>2020-03-14T15:55:27.000Z</time>
      </trkpt>
      <trkpt lat="45.89032" lon="4.47063">
        <ele>470.60000610352</ele>
        <time>2020-03-14T15:55:31.000Z</time>
      </trkpt>
      <trkpt lat="45.89033" lon="4.47065">
        <ele>471</ele>
        <time>2020-03-14T15:55:34.000Z</time>
      </trkpt>
      <trkpt lat="45.89034" lon="4.47065">
        <ele>471.20001220703</ele>
        <time>2020-03-14T15:55:37.000Z</time>
      </trkpt>
      <trkpt lat="45.89034" lon="4.47066">
        <ele>470.79998779297</ele>
        <time>2020-03-14T15:55:40.000Z</time>
      </trkpt>
      <trkpt lat="45.89034" lon="4.47066">
        <ele>470.20001220703</ele>
        <time>2020-03-14T15:55:43.000Z</time>
      </trkpt>
      <trkpt lat="45.89034" lon="4.47066">
        <ele>470</ele>
        <time>2020-03-14T15:55:46.000Z</time>
      </trkpt>
      <trkpt lat="45.89033" lon="4.47066">
        <ele>470</ele>
        <time>2020-03-14T15:55:49.000Z</time>
      </trkpt>
      <trkpt lat="45.89033" lon="4.47066">
        <ele>470</ele>
        <time>2020-03-14T15:55:52.000Z</time>
      </trkpt>
      <trkpt lat="45.89033" lon="4.47066">
        <ele>469.79998779297</ele>
        <time>2020-03-14T15:55:55.000Z</time>
      </trkpt>
      <trkpt lat="45.89033" lon="4.47066">
        <ele>469.39999389648</ele>
        <time>2020-03-14T15:55:59.000Z</time>
      </trkpt>
      <trkpt lat="45.89033" lon="4.47066">
        <ele>469.20001220703</ele>
        <time>2020-03-14T15:56:02.000Z</time>
      </trkpt>
      <trkpt lat="45.89032" lon="4.47066">
        <ele>469.20001220703</ele>
        <time>2020-03-14T15:56:05.000Z</time>
      </trkpt>
      <trkpt lat="45.89032" lon="4.47066">
        <ele>469.20001220703</ele>
        <time>2020-03-14T15:56:08.000Z</time>
      </trkpt>
      <trkpt lat="45.89032" lon="4.47065">
        <ele>469.20001220703</ele>
        <time>2020-03-14T15:56:11.000Z</time>
      </trkpt>
      <trkpt lat="45.89031" lon="4.47063">
        <ele>469.60000610352</ele>
        <time>2020-03-14T15:56:14.000Z</time>
      </trkpt>
      <trkpt lat="45.89032" lon="4.47062">
        <ele>469.60000610352</ele>
        <time>2020-03-14T15:56:17.000Z</time>
      </trkpt>
      <trkpt lat="45.89033" lon="4.47064">
        <ele>469.60000610352</ele>
        <time>2020-03-14T15:56:20.000Z</time>
      </trkpt>
      <trkpt lat="45.89035" lon="4.47062">
        <ele>469.39999389648</ele>
        <time>2020-03-14T15:56:23.000Z</time>
      </trkpt>
      <trkpt lat="45.89041" lon="4.47063">
        <ele>469.60000610352</ele>
        <time>2020-03-14T15:56:26.000Z</time>
      </trkpt>
      <trkpt lat="45.89048" lon="4.47064">
        <ele>469.79998779297</ele>
        <time>2020-03-14T15:56:30.000Z</time>
      </trkpt>
      <trkpt lat="45.89053" lon="4.47066">
        <ele>469.79998779297</ele>
        <time>2020-03-14T15:56:33.000Z</time>
      </trkpt>
      <trkpt lat="45.89057" lon="4.47068">
        <ele>470.39999389648</ele>
        <time>2020-03-14T15:56:36.000Z</time>
      </trkpt>
      <trkpt lat="45.89062" lon="4.47069">
        <ele>471</ele>
        <time>2020-03-14T15:56:39.000Z</time>
      </trkpt>
      <trkpt lat="45.89067" lon="4.47069">
        <ele>471.60000610352</ele>
        <time>2020-03-14T15:56:42.000Z</time>
      </trkpt>
      <trkpt lat="45.89071" lon="4.47071">
        <ele>472.20001220703</ele>
        <time>2020-03-14T15:56:45.000Z</time>
      </trkpt>
      <trkpt lat="45.89076" lon="4.47072">
        <ele>472.39999389648</ele>
        <time>2020-03-14T15:56:48.000Z</time>
      </trkpt>
      <trkpt lat="45.89079" lon="4.47074">
        <ele>473.20001220703</ele>
        <time>2020-03-14T15:56:51.000Z</time>
      </trkpt>
      <trkpt lat="45.89083" lon="4.47076">
        <ele>473.60000610352</ele>
        <time>2020-03-14T15:56:54.000Z</time>
      </trkpt>
      <trkpt lat="45.89087" lon="4.47079">
        <ele>473.60000610352</ele>
        <time>2020-03-14T15:56:57.000Z</time>
      </trkpt>
      <trkpt lat="45.89091" lon="4.47084">
        <ele>474.39999389648</ele>
        <time>2020-03-14T15:57:01.000Z</time>
      </trkpt>
      <trkpt lat="45.89093" lon="4.47087">
        <ele>474.79998779297</ele>
        <time>2020-03-14T15:57:04.000Z</time>
      </trkpt>
      <trkpt lat="45.89095" lon="4.47091">
        <ele>475.20001220703</ele>
        <time>2020-03-14T15:57:07.000Z</time>
      </trkpt>
      <trkpt lat="45.89097" lon="4.47095">
        <ele>475.60000610352</ele>
        <time>2020-03-14T15:57:10.000Z</time>
      </trkpt>
      <trkpt lat="45.89098" lon="4.471">
        <ele>476.20001220703</ele>
        <time>2020-03-14T15:57:13.000Z</time>
      </trkpt>
      <trkpt lat="45.89099" lon="4.47104">
        <ele>476.79998779297</ele>
        <time>2020-03-14T15:57:16.000Z</time>
      </trkpt>
      <trkpt lat="45.891" lon="4.47109">
        <ele>477.39999389648</ele>
        <time>2020-03-14T15:57:19.000Z</time>
      </trkpt>
      <trkpt lat="45.89101" lon="4.47113">
        <ele>477.60000610352</ele>
        <time>2020-03-14T15:57:22.000Z</time>
      </trkpt>
      <trkpt lat="45.89102" lon="4.47118">
        <ele>478.20001220703</ele>
        <time>2020-03-14T15:57:25.000Z</time>
      </trkpt>
      <trkpt lat="45.89103" lon="4.47123">
        <ele>478.79998779297</ele>
        <time>2020-03-14T15:57:29.000Z</time>
      </trkpt>
      <trkpt lat="45.89104" lon="4.47128">
        <ele>479.60000610352</ele>
        <time>2020-03-14T15:57:32.000Z</time>
      </trkpt>
      <trkpt lat="45.89104" lon="4.47133">
        <ele>480</ele>
        <time>2020-03-14T15:57:35.000Z</time>
      </trkpt>
      <trkpt lat="45.89103" lon="4.47138">
        <ele>480.39999389648</ele>
        <time>2020-03-14T15:57:38.000Z</time>
      </trkpt>
      <trkpt lat="45.89103" lon="4.47143">
        <ele>480.79998779297</ele>
        <time>2020-03-14T15:57:41.000Z</time>
      </trkpt>
      <trkpt lat="45.89101" lon="4.47149">
        <ele>481</ele>
        <time>2020-03-14T15:57:44.000Z</time>
      </trkpt>
      <trkpt lat="45.891" lon="4.47154">
        <ele>481</ele>
        <time>2020-03-14T15:57:47.000Z</time>
      </trkpt>
      <trkpt lat="45.89099" lon="4.47159">
        <ele>481</ele>
        <time>2020-03-14T15:57:50.000Z</time>
      </trkpt>
      <trkpt lat="45.89098" lon="4.47165">
        <ele>481</ele>
        <time>2020-03-14T15:57:53.000Z</time>
      </trkpt>
      <trkpt lat="45.89097" lon="4.47171">
        <ele>481</ele>
        <time>2020-03-14T15:57:56.000Z</time>
      </trkpt>
      <trkpt lat="45.89095" lon="4.47178">
        <ele>481.20001220703</ele>
        <time>2020-03-14T15:58:00.000Z</time>
      </trkpt>
      <trkpt lat="45.89094" lon="4.47184">
        <ele>481.20001220703</ele>
        <time>2020-03-14T15:58:03.000Z</time>
      </trkpt>
      <trkpt lat="45.89093" lon="4.4719">
        <ele>481</ele>
        <time>2020-03-14T15:58:06.000Z</time>
      </trkpt>
      <trkpt lat="45.89091" lon="4.47198">
        <ele>480.79998779297</ele>
        <time>2020-03-14T15:58:09.000Z</time>
      </trkpt>
      <trkpt lat="45.8909" lon="4.47206">
        <ele>480.79998779297</ele>
        <time>2020-03-14T15:58:12.000Z</time>
      </trkpt>
      <trkpt lat="45.8909" lon="4.47212">
        <ele>481</ele>
        <time>2020-03-14T15:58:15.000Z</time>
      </trkpt>
      <trkpt lat="45.89089" lon="4.47219">
        <ele>481.20001220703</ele>
        <time>2020-03-14T15:58:18.000Z</time>
      </trkpt>
      <trkpt lat="45.89092" lon="4.47223">
        <ele>481.20001220703</ele>
        <time>2020-03-14T15:58:21.000Z</time>
      </trkpt>
      <trkpt lat="45.89095" lon="4.47226">
        <ele>481</ele>
        <time>2020-03-14T15:58:24.000Z</time>
      </trkpt>
      <trkpt lat="45.89098" lon="4.47228">
        <ele>481.60000610352</ele>
        <time>2020-03-14T15:58:27.000Z</time>
      </trkpt>
      <trkpt lat="45.89103" lon="4.4723">
        <ele>482.79998779297</ele>
        <time>2020-03-14T15:58:31.000Z</time>
      </trkpt>
      <trkpt lat="45.89106" lon="4.47232">
        <ele>484</ele>
        <time>2020-03-14T15:58:34.000Z</time>
      </trkpt>
      <trkpt lat="45.89109" lon="4.47234">
        <ele>484.79998779297</ele>
        <time>2020-03-14T15:58:37.000Z</time>
      </trkpt>
      <trkpt lat="45.89112" lon="4.47236">
        <ele>485.39999389648</ele>
        <time>2020-03-14T15:58:40.000Z</time>
      </trkpt>
      <trkpt lat="45.89115" lon="4.47237">
        <ele>486</ele>
        <time>2020-03-14T15:58:43.000Z</time>
      </trkpt>
      <trkpt lat="45.89119" lon="4.47239">
        <ele>486.39999389648</ele>
        <time>2020-03-14T15:58:46.000Z</time>
      </trkpt>
      <trkpt lat="45.89122" lon="4.4724">
        <ele>486.79998779297</ele>
        <time>2020-03-14T15:58:49.000Z</time>
      </trkpt>
      <trkpt lat="45.89125" lon="4.47242">
        <ele>487.20001220703</ele>
        <time>2020-03-14T15:58:52.000Z</time>
      </trkpt>
      <trkpt lat="45.89128" lon="4.47244">
        <ele>487.39999389648</ele>
        <time>2020-03-14T15:58:55.000Z</time>
      </trkpt>
      <trkpt lat="45.89133" lon="4.47248">
        <ele>487.79998779297</ele>
        <time>2020-03-14T15:58:59.000Z</time>
      </trkpt>
      <trkpt lat="45.89136" lon="4.47249">
        <ele>488.39999389648</ele>
        <time>2020-03-14T15:59:02.000Z</time>
      </trkpt>
      <trkpt lat="45.89139" lon="4.47251">
        <ele>489.20001220703</ele>
        <time>2020-03-14T15:59:05.000Z</time>
      </trkpt>
      <trkpt lat="45.89143" lon="4.47253">
        <ele>489.20001220703</ele>
        <time>2020-03-14T15:59:08.000Z</time>
      </trkpt>
      <trkpt lat="45.89146" lon="4.47254">
        <ele>489.60000610352</ele>
        <time>2020-03-14T15:59:11.000Z</time>
      </trkpt>
      <trkpt lat="45.89149" lon="4.47256">
        <ele>490.39999389648</ele>
        <time>2020-03-14T15:59:14.000Z</time>
      </trkpt>
      <trkpt lat="45.89153" lon="4.47257">
        <ele>491</ele>
        <time>2020-03-14T15:59:17.000Z</time>
      </trkpt>
      <trkpt lat="45.89156" lon="4.47259">
        <ele>491.39999389648</ele>
        <time>2020-03-14T15:59:20.000Z</time>
      </trkpt>
      <trkpt lat="45.89159" lon="4.47261">
        <ele>491.79998779297</ele>
        <time>2020-03-14T15:59:23.000Z</time>
      </trkpt>
      <trkpt lat="45.89163" lon="4.47262">
        <ele>492</ele>
        <time>2020-03-14T15:59:26.000Z</time>
      </trkpt>
      <trkpt lat="45.89167" lon="4.47264">
        <ele>492</ele>
        <time>2020-03-14T15:59:30.000Z</time>
      </trkpt>
      <trkpt lat="45.89169" lon="4.47265">
        <ele>492</ele>
        <time>2020-03-14T15:59:33.000Z</time>
      </trkpt>
      <trkpt lat="45.89172" lon="4.47267">
        <ele>492.60000610352</ele>
        <time>2020-03-14T15:59:36.000Z</time>
      </trkpt>
      <trkpt lat="45.89174" lon="4.47268">
        <ele>493.20001220703</ele>
        <time>2020-03-14T15:59:39.000Z</time>
      </trkpt>
      <trkpt lat="45.89177" lon="4.47269">
        <ele>493.60000610352</ele>
        <time>2020-03-14T15:59:42.000Z</time>
      </trkpt>
      <trkpt lat="45.8918" lon="4.47271">
        <ele>494</ele>
        <time>2020-03-14T15:59:45.000Z</time>
      </trkpt>
      <trkpt lat="45.89183" lon="4.47272">
        <ele>494.60000610352</ele>
        <time>2020-03-14T15:59:48.000Z</time>
      </trkpt>
      <trkpt lat="45.89186" lon="4.47273">
        <ele>495</ele>
        <time>2020-03-14T15:59:51.000Z</time>
      </trkpt>
      <trkpt lat="45.89189" lon="4.47273">
        <ele>495.20001220703</ele>
        <time>2020-03-14T15:59:54.000Z</time>
      </trkpt>
      <trkpt lat="45.89193" lon="4.47274">
        <ele>495.79998779297</ele>
        <time>2020-03-14T15:59:57.000Z</time>
      </trkpt>
      <trkpt lat="45.89197" lon="4.47276">
        <ele>496.39999389648</ele>
        <time>2020-03-14T16:00:01.000Z</time>
      </trkpt>
      <trkpt lat="45.892" lon="4.47277">
        <ele>497</ele>
        <time>2020-03-14T16:00:04.000Z</time>
      </trkpt>
      <trkpt lat="45.89203" lon="4.47278">
        <ele>497.39999389648</ele>
        <time>2020-03-14T16:00:07.000Z</time>
      </trkpt>
      <trkpt lat="45.89205" lon="4.47279">
        <ele>498</ele>
        <time>2020-03-14T16:00:10.000Z</time>
      </trkpt>
      <trkpt lat="45.89207" lon="4.4728">
        <ele>498.20001220703</ele>
        <time>2020-03-14T16:00:13.000Z</time>
      </trkpt>
      <trkpt lat="45.8921" lon="4.47281">
        <ele>498.79998779297</ele>
        <time>2020-03-14T16:00:16.000Z</time>
      </trkpt>
      <trkpt lat="45.89214" lon="4.47283">
        <ele>499.60000610352</ele>
        <time>2020-03-14T16:00:19.000Z</time>
      </trkpt>
      <trkpt lat="45.89217" lon="4.47284">
        <ele>500.60000610352</ele>
        <time>2020-03-14T16:00:22.000Z</time>
      </trkpt>
      <trkpt lat="45.8922" lon="4.47285">
        <ele>500.79998779297</ele>
        <time>2020-03-14T16:00:25.000Z</time>
      </trkpt>
      <trkpt lat="45.89222" lon="4.47288">
        <ele>501.39999389648</ele>
        <time>2020-03-14T16:00:28.000Z</time>
      </trkpt>
      <trkpt lat="45.89226" lon="4.4729">
        <ele>501.79998779297</ele>
        <time>2020-03-14T16:00:32.000Z</time>
      </trkpt>
      <trkpt lat="45.89229" lon="4.47292">
        <ele>502</ele>
        <time>2020-03-14T16:00:35.000Z</time>
      </trkpt>
      <trkpt lat="45.89232" lon="4.47294">
        <ele>502.39999389648</ele>
        <time>2020-03-14T16:00:38.000Z</time>
      </trkpt>
      <trkpt lat="45.89234" lon="4.47294">
        <ele>502.60000610352</ele>
        <time>2020-03-14T16:00:41.000Z</time>
      </trkpt>
      <trkpt lat="45.89233" lon="4.47293">
        <ele>502.79998779297</ele>
        <time>2020-03-14T16:00:44.000Z</time>
      </trkpt>
      <trkpt lat="45.89233" lon="4.47294">
        <ele>502.60000610352</ele>
        <time>2020-03-14T16:00:47.000Z</time>
      </trkpt>
      <trkpt lat="45.89232" lon="4.47293">
        <ele>501.60000610352</ele>
        <time>2020-03-14T16:00:50.000Z</time>
      </trkpt>
      <trkpt lat="45.89232" lon="4.47293">
        <ele>501.39999389648</ele>
        <time>2020-03-14T16:00:53.000Z</time>
      </trkpt>
      <trkpt lat="45.89232" lon="4.47293">
        <ele>501.20001220703</ele>
        <time>2020-03-14T16:00:56.000Z</time>
      </trkpt>
      <trkpt lat="45.89232" lon="4.47292">
        <ele>501.20001220703</ele>
        <time>2020-03-14T16:01:00.000Z</time>
      </trkpt>
      <trkpt lat="45.89232" lon="4.47293">
        <ele>501.60000610352</ele>
        <time>2020-03-14T16:01:03.000Z</time>
      </trkpt>
      <trkpt lat="45.89232" lon="4.47293">
        <ele>501.79998779297</ele>
        <time>2020-03-14T16:01:06.000Z</time>
      </trkpt>
      <trkpt lat="45.89232" lon="4.47293">
        <ele>501.79998779297</ele>
        <time>2020-03-14T16:01:09.000Z</time>
      </trkpt>
      <trkpt lat="45.89232" lon="4.47293">
        <ele>501.79998779297</ele>
        <time>2020-03-14T16:01:12.000Z</time>
      </trkpt>
      <trkpt lat="45.89232" lon="4.47293">
        <ele>501.39999389648</ele>
        <time>2020-03-14T16:01:15.000Z</time>
      </trkpt>
      <trkpt lat="45.89232" lon="4.47294">
        <ele>500.79998779297</ele>
        <time>2020-03-14T16:01:18.000Z</time>
      </trkpt>
      <trkpt lat="45.89232" lon="4.47293">
        <ele>500.60000610352</ele>
        <time>2020-03-14T16:01:21.000Z</time>
      </trkpt>
      <trkpt lat="45.89232" lon="4.47293">
        <ele>501</ele>
        <time>2020-03-14T16:01:24.000Z</time>
      </trkpt>
      <trkpt lat="45.89232" lon="4.47293">
        <ele>501.39999389648</ele>
        <time>2020-03-14T16:01:27.000Z</time>
      </trkpt>
      <trkpt lat="45.89232" lon="4.47294">
        <ele>501.79998779297</ele>
        <time>2020-03-14T16:01:31.000Z</time>
      </trkpt>
      <trkpt lat="45.89233" lon="4.47295">
        <ele>502.60000610352</ele>
        <time>2020-03-14T16:01:34.000Z</time>
      </trkpt>
      <trkpt lat="45.89233" lon="4.47294">
        <ele>502.60000610352</ele>
        <time>2020-03-14T16:01:37.000Z</time>
      </trkpt>
      <trkpt lat="45.89233" lon="4.47294">
        <ele>502.20001220703</ele>
        <time>2020-03-14T16:01:40.000Z</time>
      </trkpt>
      <trkpt lat="45.89233" lon="4.47295">
        <ele>501.79998779297</ele>
        <time>2020-03-14T16:01:43.000Z</time>
      </trkpt>
      <trkpt lat="45.89233" lon="4.47294">
        <ele>501.20001220703</ele>
        <time>2020-03-14T16:01:46.000Z</time>
      </trkpt>
      <trkpt lat="45.89233" lon="4.47295">
        <ele>501.20001220703</ele>
        <time>2020-03-14T16:01:49.000Z</time>
      </trkpt>
      <trkpt lat="45.89233" lon="4.47294">
        <ele>501.60000610352</ele>
        <time>2020-03-14T16:01:52.000Z</time>
      </trkpt>
      <trkpt lat="45.89233" lon="4.47294">
        <ele>502</ele>
        <time>2020-03-14T16:01:55.000Z</time>
      </trkpt>
      <trkpt lat="45.89233" lon="4.47294">
        <ele>502.39999389648</ele>
        <time>2020-03-14T16:01:58.000Z</time>
      </trkpt>
      <trkpt lat="45.89233" lon="4.47294">
        <ele>502.60000610352</ele>
        <time>2020-03-14T16:02:02.000Z</time>
      </trkpt>
      <trkpt lat="45.89233" lon="4.47294">
        <ele>502.60000610352</ele>
        <time>2020-03-14T16:02:05.000Z</time>
      </trkpt>
      <trkpt lat="45.89233" lon="4.47294">
        <ele>502.39999389648</ele>
        <time>2020-03-14T16:02:08.000Z</time>
      </trkpt>
      <trkpt lat="45.89233" lon="4.47293">
        <ele>502</ele>
        <time>2020-03-14T16:02:11.000Z</time>
      </trkpt>
      <trkpt lat="45.89233" lon="4.47293">
        <ele>501.79998779297</ele>
        <time>2020-03-14T16:02:14.000Z</time>
      </trkpt>
      <trkpt lat="45.89232" lon="4.47294">
        <ele>501.79998779297</ele>
        <time>2020-03-14T16:02:17.000Z</time>
      </trkpt>
      <trkpt lat="45.89232" lon="4.47293">
        <ele>501.79998779297</ele>
        <time>2020-03-14T16:02:20.000Z</time>
      </trkpt>
      <trkpt lat="45.89232" lon="4.47294">
        <ele>502.20001220703</ele>
        <time>2020-03-14T16:02:23.000Z</time>
      </trkpt>
      <trkpt lat="45.89232" lon="4.47294">
        <ele>502.60000610352</ele>
        <time>2020-03-14T16:02:26.000Z</time>
      </trkpt>
      <trkpt lat="45.89233" lon="4.47294">
        <ele>502.20001220703</ele>
        <time>2020-03-14T16:02:30.000Z</time>
      </trkpt>
      <trkpt lat="45.89233" lon="4.47295">
        <ele>501.79998779297</ele>
        <time>2020-03-14T16:02:33.000Z</time>
      </trkpt>
      <trkpt lat="45.89233" lon="4.47295">
        <ele>501.60000610352</ele>
        <time>2020-03-14T16:02:36.000Z</time>
      </trkpt>
      <trkpt lat="45.89233" lon="4.47295">
        <ele>501.39999389648</ele>
        <time>2020-03-14T16:02:39.000Z</time>
      </trkpt>
      <trkpt lat="45.89233" lon="4.47294">
        <ele>501.39999389648</ele>
        <time>2020-03-14T16:02:42.000Z</time>
      </trkpt>
      <trkpt lat="45.89233" lon="4.47294">
        <ele>501.79998779297</ele>
        <time>2020-03-14T16:02:45.000Z</time>
      </trkpt>
      <trkpt lat="45.89233" lon="4.47294">
        <ele>502.20001220703</ele>
        <time>2020-03-14T16:02:48.000Z</time>
      </trkpt>
      <trkpt lat="45.89233" lon="4.47294">
        <ele>502.39999389648</ele>
        <time>2020-03-14T16:02:51.000Z</time>
      </trkpt>
      <trkpt lat="45.89233" lon="4.47294">
        <ele>502.60000610352</ele>
        <time>2020-03-14T16:02:54.000Z</time>
      </trkpt>
      <trkpt lat="45.89233" lon="4.47294">
        <ele>502.60000610352</ele>
        <time>2020-03-14T16:02:57.000Z</time>
      </trkpt>
      <trkpt lat="45.89234" lon="4.47294">
        <ele>502.39999389648</ele>
        <time>2020-03-14T16:03:01.000Z</time>
      </trkpt>
      <trkpt lat="45.89234" lon="4.47295">
        <ele>502.39999389648</ele>
        <time>2020-03-14T16:03:04.000Z</time>
      </trkpt>
      <trkpt lat="45.89234" lon="4.47295">
        <ele>502.60000610352</ele>
        <time>2020-03-14T16:03:07.000Z</time>
      </trkpt>
      <trkpt lat="45.89234" lon="4.47294">
        <ele>502.60000610352</ele>
        <time>2020-03-14T16:03:10.000Z</time>
      </trkpt>
      <trkpt lat="45.89234" lon="4.47294">
        <ele>502.60000610352</ele>
        <time>2020-03-14T16:03:13.000Z</time>
      </trkpt>
      <trkpt lat="45.89234" lon="4.47294">
        <ele>502.60000610352</ele>
        <time>2020-03-14T16:03:16.000Z</time>
      </trkpt>
      <trkpt lat="45.89234" lon="4.47294">
        <ele>502.39999389648</ele>
        <time>2020-03-14T16:03:19.000Z</time>
      </trkpt>
      <trkpt lat="45.89234" lon="4.47294">
        <ele>502</ele>
        <time>2020-03-14T16:03:22.000Z</time>
      </trkpt>
      <trkpt lat="45.89234" lon="4.47294">
        <ele>501.60000610352</ele>
        <time>2020-03-14T16:03:25.000Z</time>
      </trkpt>
      <trkpt lat="45.89234" lon="4.47294">
        <ele>501.60000610352</ele>
        <time>2020-03-14T16:03:28.000Z</time>
      </trkpt>
      <trkpt lat="45.89235" lon="4.47295">
        <ele>501.60000610352</ele>
        <time>2020-03-14T16:03:32.000Z</time>
      </trkpt>
      <trkpt lat="45.89235" lon="4.47295">
        <ele>501.60000610352</ele>
        <time>2020-03-14T16:03:35.000Z</time>
      </trkpt>
      <trkpt lat="45.89235" lon="4.47295">
        <ele>501.60000610352</ele>
        <time>2020-03-14T16:03:38.000Z</time>
      </trkpt>
      <trkpt lat="45.89235" lon="4.47295">
        <ele>501.60000610352</ele>
        <time>2020-03-14T16:03:41.000Z</time>
      </trkpt>
      <trkpt lat="45.89235" lon="4.47296">
        <ele>501.39999389648</ele>
        <time>2020-03-14T16:03:44.000Z</time>
      </trkpt>
      <trkpt lat="45.89235" lon="4.47295">
        <ele>501.20001220703</ele>
        <time>2020-03-14T16:03:47.000Z</time>
      </trkpt>
      <trkpt lat="45.89236" lon="4.47296">
        <ele>501.20001220703</ele>
        <time>2020-03-14T16:03:50.000Z</time>
      </trkpt>
      <trkpt lat="45.89236" lon="4.47296">
        <ele>501.20001220703</ele>
        <time>2020-03-14T16:03:53.000Z</time>
      </trkpt>
      <trkpt lat="45.89236" lon="4.47296">
        <ele>501.20001220703</ele>
        <time>2020-03-14T16:03:56.000Z</time>
      </trkpt>
      <trkpt lat="45.89236" lon="4.47296">
        <ele>501</ele>
        <time>2020-03-14T16:04:00.000Z</time>
      </trkpt>
      <trkpt lat="45.89236" lon="4.47295">
        <ele>501</ele>
        <time>2020-03-14T16:04:03.000Z</time>
      </trkpt>
      <trkpt lat="45.89235" lon="4.47295">
        <ele>501</ele>
        <time>2020-03-14T16:04:06.000Z</time>
      </trkpt>
      <trkpt lat="45.89235" lon="4.47295">
        <ele>501.20001220703</ele>
        <time>2020-03-14T16:04:09.000Z</time>
      </trkpt>
      <trkpt lat="45.89235" lon="4.47296">
        <ele>501.20001220703</ele>
        <time>2020-03-14T16:04:12.000Z</time>
      </trkpt>
      <trkpt lat="45.89234" lon="4.47296">
        <ele>501.20001220703</ele>
        <time>2020-03-14T16:04:15.000Z</time>
      </trkpt>
      <trkpt lat="45.89234" lon="4.47296">
        <ele>501.60000610352</ele>
        <time>2020-03-14T16:04:18.000Z</time>
      </trkpt>
      <trkpt lat="45.89234" lon="4.47296">
        <ele>501.79998779297</ele>
        <time>2020-03-14T16:04:21.000Z</time>
      </trkpt>
      <trkpt lat="45.89233" lon="4.47296">
        <ele>501.79998779297</ele>
        <time>2020-03-14T16:04:24.000Z</time>
      </trkpt>
      <trkpt lat="45.89234" lon="4.47297">
        <ele>502</ele>
        <time>2020-03-14T16:04:27.000Z</time>
      </trkpt>
      <trkpt lat="45.89233" lon="4.47296">
        <ele>501.79998779297</ele>
        <time>2020-03-14T16:04:31.000Z</time>
      </trkpt>
      <trkpt lat="45.89233" lon="4.47296">
        <ele>501.79998779297</ele>
        <time>2020-03-14T16:04:34.000Z</time>
      </trkpt>
      <trkpt lat="45.89234" lon="4.47295">
        <ele>501.60000610352</ele>
        <time>2020-03-14T16:04:37.000Z</time>
      </trkpt>
      <trkpt lat="45.89234" lon="4.47296">
        <ele>501.60000610352</ele>
        <time>2020-03-14T16:04:40.000Z</time>
      </trkpt>
      <trkpt lat="45.89234" lon="4.47296">
        <ele>501.20001220703</ele>
        <time>2020-03-14T16:04:43.000Z</time>
      </trkpt>
      <trkpt lat="45.89234" lon="4.47296">
        <ele>501</ele>
        <time>2020-03-14T16:04:46.000Z</time>
      </trkpt>
      <trkpt lat="45.89234" lon="4.47296">
        <ele>501.20001220703</ele>
        <time>2020-03-14T16:04:49.000Z</time>
      </trkpt>
      <trkpt lat="45.89234" lon="4.47296">
        <ele>501</ele>
        <time>2020-03-14T16:04:52.000Z</time>
      </trkpt>
      <trkpt lat="45.89234" lon="4.47296">
        <ele>501</ele>
        <time>2020-03-14T16:04:55.000Z</time>
      </trkpt>
      <trkpt lat="45.89234" lon="4.47296">
        <ele>501.39999389648</ele>
        <time>2020-03-14T16:04:58.000Z</time>
      </trkpt>
      <trkpt lat="45.89234" lon="4.47297">
        <ele>501.60000610352</ele>
        <time>2020-03-14T16:05:02.000Z</time>
      </trkpt>
      <trkpt lat="45.89234" lon="4.47296">
        <ele>501.60000610352</ele>
        <time>2020-03-14T16:05:05.000Z</time>
      </trkpt>
      <trkpt lat="45.89234" lon="4.47296">
        <ele>501.60000610352</ele>
        <time>2020-03-14T16:05:08.000Z</time>
      </trkpt>
      <trkpt lat="45.89234" lon="4.47296">
        <ele>501.79998779297</ele>
        <time>2020-03-14T16:05:11.000Z</time>
      </trkpt>
      <trkpt lat="45.89234" lon="4.47297">
        <ele>502.20001220703</ele>
        <time>2020-03-14T16:05:14.000Z</time>
      </trkpt>
      <trkpt lat="45.89234" lon="4.47297">
        <ele>502.39999389648</ele>
        <time>2020-03-14T16:05:17.000Z</time>
      </trkpt>
      <trkpt lat="45.89234" lon="4.47297">
        <ele>502.39999389648</ele>
        <time>2020-03-14T16:05:20.000Z</time>
      </trkpt>
      <trkpt lat="45.89234" lon="4.47296">
        <ele>502.20001220703</ele>
        <time>2020-03-14T16:05:23.000Z</time>
      </trkpt>
      <trkpt lat="45.89233" lon="4.47294">
        <ele>502.20001220703</ele>
        <time>2020-03-14T16:05:26.000Z</time>
      </trkpt>
      <trkpt lat="45.89233" lon="4.47293">
        <ele>502.20001220703</ele>
        <time>2020-03-14T16:05:29.000Z</time>
      </trkpt>
      <trkpt lat="45.89234" lon="4.47293">
        <ele>503</ele>
        <time>2020-03-14T16:05:33.000Z</time>
      </trkpt>
      <trkpt lat="45.89235" lon="4.47293">
        <ele>502.79998779297</ele>
        <time>2020-03-14T16:05:36.000Z</time>
      </trkpt>
      <trkpt lat="45.89235" lon="4.47294">
        <ele>502.60000610352</ele>
        <time>2020-03-14T16:05:39.000Z</time>
      </trkpt>
      <trkpt lat="45.89235" lon="4.47294">
        <ele>502.60000610352</ele>
        <time>2020-03-14T16:05:42.000Z</time>
      </trkpt>
      <trkpt lat="45.89234" lon="4.47295">
        <ele>502.20001220703</ele>
        <time>2020-03-14T16:05:45.000Z</time>
      </trkpt>
      <trkpt lat="45.89234" lon="4.47295">
        <ele>502.20001220703</ele>
        <time>2020-03-14T16:05:48.000Z</time>
      </trkpt>
      <trkpt lat="45.89234" lon="4.47295">
        <ele>502.39999389648</ele>
        <time>2020-03-14T16:05:51.000Z</time>
      </trkpt>
      <trkpt lat="45.89234" lon="4.47295">
        <ele>502.20001220703</ele>
        <time>2020-03-14T16:05:54.000Z</time>
      </trkpt>
      <trkpt lat="45.89233" lon="4.47295">
        <ele>502.20001220703</ele>
        <time>2020-03-14T16:05:57.000Z</time>
      </trkpt>
      <trkpt lat="45.89233" lon="4.47294">
        <ele>502.39999389648</ele>
        <time>2020-03-14T16:06:01.000Z</time>
      </trkpt>
      <trkpt lat="45.89233" lon="4.47294">
        <ele>502.20001220703</ele>
        <time>2020-03-14T16:06:04.000Z</time>
      </trkpt>
      <trkpt lat="45.89234" lon="4.47295">
        <ele>502.20001220703</ele>
        <time>2020-03-14T16:06:07.000Z</time>
      </trkpt>
      <trkpt lat="45.89235" lon="4.47294">
        <ele>501.79998779297</ele>
        <time>2020-03-14T16:06:10.000Z</time>
      </trkpt>
      <trkpt lat="45.89235" lon="4.47294">
        <ele>501.79998779297</ele>
        <time>2020-03-14T16:06:13.000Z</time>
      </trkpt>
      <trkpt lat="45.89236" lon="4.47294">
        <ele>501.79998779297</ele>
        <time>2020-03-14T16:06:16.000Z</time>
      </trkpt>
      <trkpt lat="45.89234" lon="4.47294">
        <ele>501.79998779297</ele>
        <time>2020-03-14T16:06:19.000Z</time>
      </trkpt>
      <trkpt lat="45.89233" lon="4.47293">
        <ele>501.79998779297</ele>
        <time>2020-03-14T16:06:22.000Z</time>
      </trkpt>
      <trkpt lat="45.89233" lon="4.47294">
        <ele>500.60000610352</ele>
        <time>2020-03-14T16:06:25.000Z</time>
      </trkpt>
      <trkpt lat="45.89233" lon="4.47294">
        <ele>500.39999389648</ele>
        <time>2020-03-14T16:06:28.000Z</time>
      </trkpt>
      <trkpt lat="45.89233" lon="4.47294">
        <ele>500.20001220703</ele>
        <time>2020-03-14T16:06:32.000Z</time>
      </trkpt>
      <trkpt lat="45.89233" lon="4.47294">
        <ele>500.20001220703</ele>
        <time>2020-03-14T16:06:35.000Z</time>
      </trkpt>
      <trkpt lat="45.89233" lon="4.47294">
        <ele>500.39999389648</ele>
        <time>2020-03-14T16:06:38.000Z</time>
      </trkpt>
      <trkpt lat="45.89233" lon="4.47295">
        <ele>500.39999389648</ele>
        <time>2020-03-14T16:06:41.000Z</time>
      </trkpt>
      <trkpt lat="45.89233" lon="4.47294">
        <ele>500.60000610352</ele>
        <time>2020-03-14T16:06:44.000Z</time>
      </trkpt>
      <trkpt lat="45.89233" lon="4.47294">
        <ele>500.79998779297</ele>
        <time>2020-03-14T16:06:47.000Z</time>
      </trkpt>
      <trkpt lat="45.89234" lon="4.47295">
        <ele>502.79998779297</ele>
        <time>2020-03-14T16:06:50.000Z</time>
      </trkpt>
      <trkpt lat="45.89233" lon="4.47295">
        <ele>502.79998779297</ele>
        <time>2020-03-14T16:06:53.000Z</time>
      </trkpt>
      <trkpt lat="45.89234" lon="4.47295">
        <ele>502.60000610352</ele>
        <time>2020-03-14T16:06:56.000Z</time>
      </trkpt>
      <trkpt lat="45.89234" lon="4.47294">
        <ele>502.20001220703</ele>
        <time>2020-03-14T16:06:59.000Z</time>
      </trkpt>
      <trkpt lat="45.89234" lon="4.47294">
        <ele>502.39999389648</ele>
        <time>2020-03-14T16:07:03.000Z</time>
      </trkpt>
      <trkpt lat="45.89234" lon="4.47294">
        <ele>502.39999389648</ele>
        <time>2020-03-14T16:07:06.000Z</time>
      </trkpt>
      <trkpt lat="45.89238" lon="4.47294">
        <ele>502.20001220703</ele>
        <time>2020-03-14T16:07:09.000Z</time>
      </trkpt>
      <trkpt lat="45.89241" lon="4.47296">
        <ele>502.79998779297</ele>
        <time>2020-03-14T16:07:12.000Z</time>
      </trkpt>
      <trkpt lat="45.89244" lon="4.47298">
        <ele>503.39999389648</ele>
        <time>2020-03-14T16:07:15.000Z</time>
      </trkpt>
      <trkpt lat="45.89247" lon="4.47301">
        <ele>504</ele>
        <time>2020-03-14T16:07:18.000Z</time>
      </trkpt>
      <trkpt lat="45.89252" lon="4.47303">
        <ele>504.39999389648</ele>
        <time>2020-03-14T16:07:21.000Z</time>
      </trkpt>
      <trkpt lat="45.89257" lon="4.47306">
        <ele>504.39999389648</ele>
        <time>2020-03-14T16:07:24.000Z</time>
      </trkpt>
      <trkpt lat="45.89262" lon="4.47308">
        <ele>504.79998779297</ele>
        <time>2020-03-14T16:07:27.000Z</time>
      </trkpt>
      <trkpt lat="45.89268" lon="4.47311">
        <ele>505.39999389648</ele>
        <time>2020-03-14T16:07:31.000Z</time>
      </trkpt>
      <trkpt lat="45.89272" lon="4.47314">
        <ele>506</ele>
        <time>2020-03-14T16:07:34.000Z</time>
      </trkpt>
      <trkpt lat="45.89276" lon="4.47316">
        <ele>506.20001220703</ele>
        <time>2020-03-14T16:07:37.000Z</time>
      </trkpt>
      <trkpt lat="45.8928" lon="4.47318">
        <ele>506.60000610352</ele>
        <time>2020-03-14T16:07:40.000Z</time>
      </trkpt>
      <trkpt lat="45.89284" lon="4.4732">
        <ele>507.20001220703</ele>
        <time>2020-03-14T16:07:43.000Z</time>
      </trkpt>
      <trkpt lat="45.89288" lon="4.47322">
        <ele>507.60000610352</ele>
        <time>2020-03-14T16:07:46.000Z</time>
      </trkpt>
      <trkpt lat="45.89292" lon="4.47324">
        <ele>507.79998779297</ele>
        <time>2020-03-14T16:07:49.000Z</time>
      </trkpt>
      <trkpt lat="45.89297" lon="4.47327">
        <ele>508</ele>
        <time>2020-03-14T16:07:52.000Z</time>
      </trkpt>
      <trkpt lat="45.89301" lon="4.47329">
        <ele>508.60000610352</ele>
        <time>2020-03-14T16:07:55.000Z</time>
      </trkpt>
      <trkpt lat="45.89306" lon="4.47331">
        <ele>509</ele>
        <time>2020-03-14T16:07:58.000Z</time>
      </trkpt>
      <trkpt lat="45.89312" lon="4.47334">
        <ele>509.20001220703</ele>
        <time>2020-03-14T16:08:02.000Z</time>
      </trkpt>
      <trkpt lat="45.89317" lon="4.47337">
        <ele>509.39999389648</ele>
        <time>2020-03-14T16:08:05.000Z</time>
      </trkpt>
      <trkpt lat="45.89322" lon="4.47339">
        <ele>509.60000610352</ele>
        <time>2020-03-14T16:08:08.000Z</time>
      </trkpt>
      <trkpt lat="45.89328" lon="4.47342">
        <ele>509.79998779297</ele>
        <time>2020-03-14T16:08:11.000Z</time>
      </trkpt>
      <trkpt lat="45.89333" lon="4.47345">
        <ele>509.79998779297</ele>
        <time>2020-03-14T16:08:14.000Z</time>
      </trkpt>
      <trkpt lat="45.8934" lon="4.47347">
        <ele>509.79998779297</ele>
        <time>2020-03-14T16:08:17.000Z</time>
      </trkpt>
      <trkpt lat="45.89346" lon="4.4735">
        <ele>510.20001220703</ele>
        <time>2020-03-14T16:08:20.000Z</time>
      </trkpt>
      <trkpt lat="45.89352" lon="4.47353">
        <ele>510.60000610352</ele>
        <time>2020-03-14T16:08:23.000Z</time>
      </trkpt>
      <trkpt lat="45.89358" lon="4.47355">
        <ele>511</ele>
        <time>2020-03-14T16:08:26.000Z</time>
      </trkpt>
      <trkpt lat="45.89363" lon="4.47358">
        <ele>511.60000610352</ele>
        <time>2020-03-14T16:08:29.000Z</time>
      </trkpt>
      <trkpt lat="45.89369" lon="4.47362">
        <ele>512.20001220703</ele>
        <time>2020-03-14T16:08:33.000Z</time>
      </trkpt>
      <trkpt lat="45.89371" lon="4.47369">
        <ele>512.20001220703</ele>
        <time>2020-03-14T16:08:36.000Z</time>
      </trkpt>
      <trkpt lat="45.8937" lon="4.47378">
        <ele>512.20001220703</ele>
        <time>2020-03-14T16:08:39.000Z</time>
      </trkpt>
      <trkpt lat="45.89367" lon="4.47387">
        <ele>512</ele>
        <time>2020-03-14T16:08:42.000Z</time>
      </trkpt>
      <trkpt lat="45.89365" lon="4.47397">
        <ele>511.79998779297</ele>
        <time>2020-03-14T16:08:45.000Z</time>
      </trkpt>
      <trkpt lat="45.89365" lon="4.47408">
        <ele>511.39999389648</ele>
        <time>2020-03-14T16:08:48.000Z</time>
      </trkpt>
      <trkpt lat="45.89366" lon="4.47419">
        <ele>511.20001220703</ele>
        <time>2020-03-14T16:08:51.000Z</time>
      </trkpt>
      <trkpt lat="45.89366" lon="4.47429">
        <ele>511</ele>
        <time>2020-03-14T16:08:54.000Z</time>
      </trkpt>
      <trkpt lat="45.89367" lon="4.4744">
        <ele>511</ele>
        <time>2020-03-14T16:08:57.000Z</time>
      </trkpt>
      <trkpt lat="45.89369" lon="4.47454">
        <ele>511</ele>
        <time>2020-03-14T16:09:01.000Z</time>
      </trkpt>
      <trkpt lat="45.89372" lon="4.47459">
        <ele>511.20001220703</ele>
        <time>2020-03-14T16:09:04.000Z</time>
      </trkpt>
      <trkpt lat="45.89375" lon="4.47461">
        <ele>512.20001220703</ele>
        <time>2020-03-14T16:09:07.000Z</time>
      </trkpt>
      <trkpt lat="45.89378" lon="4.47462">
        <ele>512.79998779297</ele>
        <time>2020-03-14T16:09:10.000Z</time>
      </trkpt>
      <trkpt lat="45.89382" lon="4.47463">
        <ele>513</ele>
        <time>2020-03-14T16:09:13.000Z</time>
      </trkpt>
      <trkpt lat="45.89386" lon="4.47463">
        <ele>514.20001220703</ele>
        <time>2020-03-14T16:09:16.000Z</time>
      </trkpt>
      <trkpt lat="45.89389" lon="4.47464">
        <ele>514.79998779297</ele>
        <time>2020-03-14T16:09:19.000Z</time>
      </trkpt>
      <trkpt lat="45.89393" lon="4.47465">
        <ele>515.40002441406</ele>
        <time>2020-03-14T16:09:22.000Z</time>
      </trkpt>
      <trkpt lat="45.89396" lon="4.47465">
        <ele>516</ele>
        <time>2020-03-14T16:09:25.000Z</time>
      </trkpt>
      <trkpt lat="45.89399" lon="4.47466">
        <ele>516.40002441406</ele>
        <time>2020-03-14T16:09:28.000Z</time>
      </trkpt>
      <trkpt lat="45.89404" lon="4.47467">
        <ele>517</ele>
        <time>2020-03-14T16:09:32.000Z</time>
      </trkpt>
      <trkpt lat="45.89408" lon="4.47468">
        <ele>517.79998779297</ele>
        <time>2020-03-14T16:09:35.000Z</time>
      </trkpt>
      <trkpt lat="45.89411" lon="4.47468">
        <ele>518.79998779297</ele>
        <time>2020-03-14T16:09:38.000Z</time>
      </trkpt>
      <trkpt lat="45.89415" lon="4.47469">
        <ele>519.79998779297</ele>
        <time>2020-03-14T16:09:41.000Z</time>
      </trkpt>
      <trkpt lat="45.89418" lon="4.47471">
        <ele>520.79998779297</ele>
        <time>2020-03-14T16:09:44.000Z</time>
      </trkpt>
      <trkpt lat="45.89419" lon="4.47476">
        <ele>521.40002441406</ele>
        <time>2020-03-14T16:09:47.000Z</time>
      </trkpt>
      <trkpt lat="45.89417" lon="4.47482">
        <ele>521.59997558594</ele>
        <time>2020-03-14T16:09:50.000Z</time>
      </trkpt>
      <trkpt lat="45.89415" lon="4.4749">
        <ele>521.40002441406</ele>
        <time>2020-03-14T16:09:53.000Z</time>
      </trkpt>
      <trkpt lat="45.89411" lon="4.475">
        <ele>520.79998779297</ele>
        <time>2020-03-14T16:09:56.000Z</time>
      </trkpt>
      <trkpt lat="45.89406" lon="4.47515">
        <ele>520</ele>
        <time>2020-03-14T16:09:59.000Z</time>
      </trkpt>
      <trkpt lat="45.89401" lon="4.47538">
        <ele>518.79998779297</ele>
        <time>2020-03-14T16:10:03.000Z</time>
      </trkpt>
      <trkpt lat="45.89398" lon="4.47557">
        <ele>518.20001220703</ele>
        <time>2020-03-14T16:10:06.000Z</time>
      </trkpt>
      <trkpt lat="45.89393" lon="4.47579">
        <ele>517.59997558594</ele>
        <time>2020-03-14T16:10:09.000Z</time>
      </trkpt>
      <trkpt lat="45.8939" lon="4.47601">
        <ele>517</ele>
        <time>2020-03-14T16:10:12.000Z</time>
      </trkpt>
      <trkpt lat="45.89385" lon="4.47625">
        <ele>516.59997558594</ele>
        <time>2020-03-14T16:10:15.000Z</time>
      </trkpt>
      <trkpt lat="45.89381" lon="4.47648">
        <ele>516.40002441406</ele>
        <time>2020-03-14T16:10:18.000Z</time>
      </trkpt>
      <trkpt lat="45.89378" lon="4.47669">
        <ele>516.20001220703</ele>
        <time>2020-03-14T16:10:21.000Z</time>
      </trkpt>
      <trkpt lat="45.89374" lon="4.4769">
        <ele>515.79998779297</ele>
        <time>2020-03-14T16:10:24.000Z</time>
      </trkpt>
      <trkpt lat="45.89369" lon="4.47713">
        <ele>515.20001220703</ele>
        <time>2020-03-14T16:10:27.000Z</time>
      </trkpt>
      <trkpt lat="45.89366" lon="4.47734">
        <ele>514.40002441406</ele>
        <time>2020-03-14T16:10:30.000Z</time>
      </trkpt>
      <trkpt lat="45.89355" lon="4.47761">
        <ele>512.59997558594</ele>
        <time>2020-03-14T16:10:34.000Z</time>
      </trkpt>
      <trkpt lat="45.89337" lon="4.47774">
        <ele>511.39999389648</ele>
        <time>2020-03-14T16:10:37.000Z</time>
      </trkpt>
      <trkpt lat="45.89316" lon="4.47785">
        <ele>508.79998779297</ele>
        <time>2020-03-14T16:10:40.000Z</time>
      </trkpt>
      <trkpt lat="45.89295" lon="4.47795">
        <ele>506</ele>
        <time>2020-03-14T16:10:43.000Z</time>
      </trkpt>
      <trkpt lat="45.89276" lon="4.47804">
        <ele>504.20001220703</ele>
        <time>2020-03-14T16:10:46.000Z</time>
      </trkpt>
      <trkpt lat="45.8926" lon="4.47813">
        <ele>503.20001220703</ele>
        <time>2020-03-14T16:10:49.000Z</time>
      </trkpt>
      <trkpt lat="45.89244" lon="4.47819">
        <ele>502.60000610352</ele>
        <time>2020-03-14T16:10:52.000Z</time>
      </trkpt>
      <trkpt lat="45.89227" lon="4.47824">
        <ele>502</ele>
        <time>2020-03-14T16:10:55.000Z</time>
      </trkpt>
      <trkpt lat="45.89211" lon="4.47829">
        <ele>501.60000610352</ele>
        <time>2020-03-14T16:10:58.000Z</time>
      </trkpt>
      <trkpt lat="45.89187" lon="4.47839">
        <ele>500.79998779297</ele>
        <time>2020-03-14T16:11:02.000Z</time>
      </trkpt>
      <trkpt lat="45.89174" lon="4.47845">
        <ele>499</ele>
        <time>2020-03-14T16:11:05.000Z</time>
      </trkpt>
      <trkpt lat="45.8917" lon="4.47848">
        <ele>497.60000610352</ele>
        <time>2020-03-14T16:11:08.000Z</time>
      </trkpt>
      <trkpt lat="45.89171" lon="4.47853">
        <ele>497</ele>
        <time>2020-03-14T16:11:11.000Z</time>
      </trkpt>
      <trkpt lat="45.89173" lon="4.47859">
        <ele>497</ele>
        <time>2020-03-14T16:11:14.000Z</time>
      </trkpt>
      <trkpt lat="45.89176" lon="4.47864">
        <ele>498.39999389648</ele>
        <time>2020-03-14T16:11:17.000Z</time>
      </trkpt>
      <trkpt lat="45.89176" lon="4.47867">
        <ele>498.79998779297</ele>
        <time>2020-03-14T16:11:20.000Z</time>
      </trkpt>
      <trkpt lat="45.89175" lon="4.47867">
        <ele>498.79998779297</ele>
        <time>2020-03-14T16:11:23.000Z</time>
      </trkpt>
      <trkpt lat="45.89174" lon="4.47865">
        <ele>498.60000610352</ele>
        <time>2020-03-14T16:11:26.000Z</time>
      </trkpt>
      <trkpt lat="45.89172" lon="4.47858">
        <ele>498.20001220703</ele>
        <time>2020-03-14T16:11:29.000Z</time>
      </trkpt>
      <trkpt lat="45.89168" lon="4.47852">
        <ele>497.39999389648</ele>
        <time>2020-03-14T16:11:33.000Z</time>
      </trkpt>
      <trkpt lat="45.89163" lon="4.47852">
        <ele>496.39999389648</ele>
        <time>2020-03-14T16:11:36.000Z</time>
      </trkpt>
      <trkpt lat="45.89157" lon="4.47853">
        <ele>495.20001220703</ele>
        <time>2020-03-14T16:11:39.000Z</time>
      </trkpt>
      <trkpt lat="45.8915" lon="4.47854">
        <ele>494.39999389648</ele>
        <time>2020-03-14T16:11:42.000Z</time>
      </trkpt>
      <trkpt lat="45.89142" lon="4.47856">
        <ele>493.20001220703</ele>
        <time>2020-03-14T16:11:45.000Z</time>
      </trkpt>
      <trkpt lat="45.89135" lon="4.47857">
        <ele>492.20001220703</ele>
        <time>2020-03-14T16:11:48.000Z</time>
      </trkpt>
      <trkpt lat="45.8913" lon="4.47861">
        <ele>491.20001220703</ele>
        <time>2020-03-14T16:11:51.000Z</time>
      </trkpt>
      <trkpt lat="45.89129" lon="4.4787">
        <ele>490.60000610352</ele>
        <time>2020-03-14T16:11:54.000Z</time>
      </trkpt>
      <trkpt lat="45.89127" lon="4.47881">
        <ele>490</ele>
        <time>2020-03-14T16:11:57.000Z</time>
      </trkpt>
      <trkpt lat="45.89126" lon="4.47894">
        <ele>489.79998779297</ele>
        <time>2020-03-14T16:12:00.000Z</time>
      </trkpt>
      <trkpt lat="45.89123" lon="4.47914">
        <ele>489.79998779297</ele>
        <time>2020-03-14T16:12:04.000Z</time>
      </trkpt>
      <trkpt lat="45.89122" lon="4.47928">
        <ele>490.20001220703</ele>
        <time>2020-03-14T16:12:07.000Z</time>
      </trkpt>
      <trkpt lat="45.8912" lon="4.47943">
        <ele>490.60000610352</ele>
        <time>2020-03-14T16:12:10.000Z</time>
      </trkpt>
      <trkpt lat="45.89117" lon="4.47958">
        <ele>490.60000610352</ele>
        <time>2020-03-14T16:12:13.000Z</time>
      </trkpt>
      <trkpt lat="45.89114" lon="4.47977">
        <ele>490.60000610352</ele>
        <time>2020-03-14T16:12:16.000Z</time>
      </trkpt>
      <trkpt lat="45.89111" lon="4.47995">
        <ele>490.79998779297</ele>
        <time>2020-03-14T16:12:19.000Z</time>
      </trkpt>
      <trkpt lat="45.89107" lon="4.48013">
        <ele>490</ele>
        <time>2020-03-14T16:12:22.000Z</time>
      </trkpt>
      <trkpt lat="45.89106" lon="4.4802">
        <ele>488</ele>
        <time>2020-03-14T16:12:25.000Z</time>
      </trkpt>
      <trkpt lat="45.89106" lon="4.48019">
        <ele>487.60000610352</ele>
        <time>2020-03-14T16:12:28.000Z</time>
      </trkpt>
      <trkpt lat="45.89104" lon="4.48025">
        <ele>487.20001220703</ele>
        <time>2020-03-14T16:12:32.000Z</time>
      </trkpt>
      <trkpt lat="45.89104" lon="4.48027">
        <ele>486.39999389648</ele>
        <time>2020-03-14T16:12:35.000Z</time>
      </trkpt>
      <trkpt lat="45.89104" lon="4.48027">
        <ele>485.79998779297</ele>
        <time>2020-03-14T16:12:38.000Z</time>
      </trkpt>
      <trkpt lat="45.89104" lon="4.48027">
        <ele>485.60000610352</ele>
        <time>2020-03-14T16:12:41.000Z</time>
      </trkpt>
      <trkpt lat="45.89104" lon="4.48027">
        <ele>485.39999389648</ele>
        <time>2020-03-14T16:12:44.000Z</time>
      </trkpt>
      <trkpt lat="45.89103" lon="4.48032">
        <ele>485.39999389648</ele>
        <time>2020-03-14T16:12:47.000Z</time>
      </trkpt>
      <trkpt lat="45.89099" lon="4.48043">
        <ele>485.20001220703</ele>
        <time>2020-03-14T16:12:50.000Z</time>
      </trkpt>
      <trkpt lat="45.89093" lon="4.4806">
        <ele>484.79998779297</ele>
        <time>2020-03-14T16:12:53.000Z</time>
      </trkpt>
      <trkpt lat="45.89081" lon="4.48071">
        <ele>483.79998779297</ele>
        <time>2020-03-14T16:12:56.000Z</time>
      </trkpt>
      <trkpt lat="45.89061" lon="4.48068">
        <ele>481.60000610352</ele>
        <time>2020-03-14T16:12:59.000Z</time>
      </trkpt>
      <trkpt lat="45.89032" lon="4.4806">
        <ele>479</ele>
        <time>2020-03-14T16:13:03.000Z</time>
      </trkpt>
      <trkpt lat="45.89012" lon="4.48054">
        <ele>477.20001220703</ele>
        <time>2020-03-14T16:13:06.000Z</time>
      </trkpt>
      <trkpt lat="45.88989" lon="4.48054">
        <ele>476</ele>
        <time>2020-03-14T16:13:09.000Z</time>
      </trkpt>
      <trkpt lat="45.88965" lon="4.48057">
        <ele>475.20001220703</ele>
        <time>2020-03-14T16:13:12.000Z</time>
      </trkpt>
      <trkpt lat="45.88941" lon="4.48062">
        <ele>474.39999389648</ele>
        <time>2020-03-14T16:13:15.000Z</time>
      </trkpt>
      <trkpt lat="45.88918" lon="4.48067">
        <ele>472.79998779297</ele>
        <time>2020-03-14T16:13:18.000Z</time>
      </trkpt>
      <trkpt lat="45.88896" lon="4.48077">
        <ele>470.20001220703</ele>
        <time>2020-03-14T16:13:21.000Z</time>
      </trkpt>
      <trkpt lat="45.88872" lon="4.4809">
        <ele>468.20001220703</ele>
        <time>2020-03-14T16:13:24.000Z</time>
      </trkpt>
      <trkpt lat="45.8885" lon="4.48104">
        <ele>467.79998779297</ele>
        <time>2020-03-14T16:13:27.000Z</time>
      </trkpt>
      <trkpt lat="45.88832" lon="4.48117">
        <ele>467.39999389648</ele>
        <time>2020-03-14T16:13:30.000Z</time>
      </trkpt>
      <trkpt lat="45.88814" lon="4.4813">
        <ele>467</ele>
        <time>2020-03-14T16:13:34.000Z</time>
      </trkpt>
      <trkpt lat="45.88799" lon="4.48144">
        <ele>465.20001220703</ele>
        <time>2020-03-14T16:13:37.000Z</time>
      </trkpt>
      <trkpt lat="45.88786" lon="4.48158">
        <ele>464.39999389648</ele>
        <time>2020-03-14T16:13:40.000Z</time>
      </trkpt>
      <trkpt lat="45.88781" lon="4.48165">
        <ele>464.20001220703</ele>
        <time>2020-03-14T16:13:43.000Z</time>
      </trkpt>
      <trkpt lat="45.88778" lon="4.48173">
        <ele>463.20001220703</ele>
        <time>2020-03-14T16:13:46.000Z</time>
      </trkpt>
      <trkpt lat="45.88778" lon="4.48174">
        <ele>462.60000610352</ele>
        <time>2020-03-14T16:13:49.000Z</time>
      </trkpt>
      <trkpt lat="45.88778" lon="4.48174">
        <ele>462.39999389648</ele>
        <time>2020-03-14T16:13:52.000Z</time>
      </trkpt>
      <trkpt lat="45.88778" lon="4.48174">
        <ele>462.39999389648</ele>
        <time>2020-03-14T16:13:55.000Z</time>
      </trkpt>
      <trkpt lat="45.88778" lon="4.48174">
        <ele>462.60000610352</ele>
        <time>2020-03-14T16:13:58.000Z</time>
      </trkpt>
      <trkpt lat="45.88778" lon="4.48174">
        <ele>462.20001220703</ele>
        <time>2020-03-14T16:14:02.000Z</time>
      </trkpt>
      <trkpt lat="45.88778" lon="4.48175">
        <ele>462</ele>
        <time>2020-03-14T16:14:05.000Z</time>
      </trkpt>
      <trkpt lat="45.88778" lon="4.48176">
        <ele>461.79998779297</ele>
        <time>2020-03-14T16:14:08.000Z</time>
      </trkpt>
      <trkpt lat="45.88779" lon="4.48177">
        <ele>461.39999389648</ele>
        <time>2020-03-14T16:14:11.000Z</time>
      </trkpt>
      <trkpt lat="45.88779" lon="4.48177">
        <ele>461.20001220703</ele>
        <time>2020-03-14T16:14:14.000Z</time>
      </trkpt>
      <trkpt lat="45.88779" lon="4.48177">
        <ele>461.20001220703</ele>
        <time>2020-03-14T16:14:17.000Z</time>
      </trkpt>
      <trkpt lat="45.88779" lon="4.48177">
        <ele>461.20001220703</ele>
        <time>2020-03-14T16:14:20.000Z</time>
      </trkpt>
      <trkpt lat="45.88779" lon="4.48177">
        <ele>461.20001220703</ele>
        <time>2020-03-14T16:14:23.000Z</time>
      </trkpt>
      <trkpt lat="45.88779" lon="4.48179">
        <ele>461.79998779297</ele>
        <time>2020-03-14T16:14:26.000Z</time>
      </trkpt>
      <trkpt lat="45.88779" lon="4.48179">
        <ele>461.60000610352</ele>
        <time>2020-03-14T16:14:29.000Z</time>
      </trkpt>
      <trkpt lat="45.88778" lon="4.48179">
        <ele>461.39999389648</ele>
        <time>2020-03-14T16:14:33.000Z</time>
      </trkpt>
      <trkpt lat="45.88773" lon="4.48182">
        <ele>461.39999389648</ele>
        <time>2020-03-14T16:14:36.000Z</time>
      </trkpt>
      <trkpt lat="45.88764" lon="4.48185">
        <ele>461.20001220703</ele>
        <time>2020-03-14T16:14:39.000Z</time>
      </trkpt>
      <trkpt lat="45.88754" lon="4.48192">
        <ele>459.79998779297</ele>
        <time>2020-03-14T16:14:42.000Z</time>
      </trkpt>
      <trkpt lat="45.88746" lon="4.482">
        <ele>458.60000610352</ele>
        <time>2020-03-14T16:14:45.000Z</time>
      </trkpt>
      <trkpt lat="45.88739" lon="4.48207">
        <ele>457.79998779297</ele>
        <time>2020-03-14T16:14:48.000Z</time>
      </trkpt>
      <trkpt lat="45.88735" lon="4.48214">
        <ele>457.39999389648</ele>
        <time>2020-03-14T16:14:51.000Z</time>
      </trkpt>
      <trkpt lat="45.88734" lon="4.48224">
        <ele>456.79998779297</ele>
        <time>2020-03-14T16:14:54.000Z</time>
      </trkpt>
      <trkpt lat="45.88734" lon="4.48237">
        <ele>456.39999389648</ele>
        <time>2020-03-14T16:14:57.000Z</time>
      </trkpt>
      <trkpt lat="45.88735" lon="4.48253">
        <ele>456</ele>
        <time>2020-03-14T16:15:00.000Z</time>
      </trkpt>
      <trkpt lat="45.8874" lon="4.4828">
        <ele>455.20001220703</ele>
        <time>2020-03-14T16:15:04.000Z</time>
      </trkpt>
      <trkpt lat="45.88746" lon="4.48303">
        <ele>454.60000610352</ele>
        <time>2020-03-14T16:15:07.000Z</time>
      </trkpt>
      <trkpt lat="45.88752" lon="4.48327">
        <ele>454.20001220703</ele>
        <time>2020-03-14T16:15:10.000Z</time>
      </trkpt>
      <trkpt lat="45.88758" lon="4.48354">
        <ele>453.60000610352</ele>
        <time>2020-03-14T16:15:13.000Z</time>
      </trkpt>
      <trkpt lat="45.88764" lon="4.48381">
        <ele>453</ele>
        <time>2020-03-14T16:15:16.000Z</time>
      </trkpt>
      <trkpt lat="45.88771" lon="4.48406">
        <ele>453</ele>
        <time>2020-03-14T16:15:19.000Z</time>
      </trkpt>
      <trkpt lat="45.88776" lon="4.48432">
        <ele>453.20001220703</ele>
        <time>2020-03-14T16:15:22.000Z</time>
      </trkpt>
      <trkpt lat="45.88778" lon="4.48457">
        <ele>454.20001220703</ele>
        <time>2020-03-14T16:15:25.000Z</time>
      </trkpt>
      <trkpt lat="45.88776" lon="4.48479">
        <ele>455</ele>
        <time>2020-03-14T16:15:28.000Z</time>
      </trkpt>
      <trkpt lat="45.88771" lon="4.48496">
        <ele>455.20001220703</ele>
        <time>2020-03-14T16:15:31.000Z</time>
      </trkpt>
      <trkpt lat="45.88758" lon="4.48508">
        <ele>455.39999389648</ele>
        <time>2020-03-14T16:15:35.000Z</time>
      </trkpt>
      <trkpt lat="45.88744" lon="4.48512">
        <ele>454.79998779297</ele>
        <time>2020-03-14T16:15:38.000Z</time>
      </trkpt>
      <trkpt lat="45.88735" lon="4.48517">
        <ele>452.39999389648</ele>
        <time>2020-03-14T16:15:41.000Z</time>
      </trkpt>
      <trkpt lat="45.88726" lon="4.48521">
        <ele>450.79998779297</ele>
        <time>2020-03-14T16:15:44.000Z</time>
      </trkpt>
      <trkpt lat="45.88717" lon="4.48526">
        <ele>449.20001220703</ele>
        <time>2020-03-14T16:15:47.000Z</time>
      </trkpt>
      <trkpt lat="45.88708" lon="4.48533">
        <ele>446.79998779297</ele>
        <time>2020-03-14T16:15:50.000Z</time>
      </trkpt>
      <trkpt lat="45.88699" lon="4.48546">
        <ele>444.60000610352</ele>
        <time>2020-03-14T16:15:53.000Z</time>
      </trkpt>
      <trkpt lat="45.88692" lon="4.4856">
        <ele>443.20001220703</ele>
        <time>2020-03-14T16:15:56.000Z</time>
      </trkpt>
      <trkpt lat="45.88686" lon="4.48581">
        <ele>440.60000610352</ele>
        <time>2020-03-14T16:15:59.000Z</time>
      </trkpt>
      <trkpt lat="45.88686" lon="4.48619">
        <ele>437.39999389648</ele>
        <time>2020-03-14T16:16:03.000Z</time>
      </trkpt>
      <trkpt lat="45.88689" lon="4.48645">
        <ele>436.60000610352</ele>
        <time>2020-03-14T16:16:06.000Z</time>
      </trkpt>
      <trkpt lat="45.88693" lon="4.48664">
        <ele>435.60000610352</ele>
        <time>2020-03-14T16:16:09.000Z</time>
      </trkpt>
      <trkpt lat="45.88696" lon="4.48676">
        <ele>435</ele>
        <time>2020-03-14T16:16:12.000Z</time>
      </trkpt>
      <trkpt lat="45.88695" lon="4.48686">
        <ele>433.79998779297</ele>
        <time>2020-03-14T16:16:15.000Z</time>
      </trkpt>
      <trkpt lat="45.88688" lon="4.48697">
        <ele>431.79998779297</ele>
        <time>2020-03-14T16:16:18.000Z</time>
      </trkpt>
      <trkpt lat="45.88674" lon="4.48711">
        <ele>429.60000610352</ele>
        <time>2020-03-14T16:16:21.000Z</time>
      </trkpt>
      <trkpt lat="45.88656" lon="4.48726">
        <ele>425.60000610352</ele>
        <time>2020-03-14T16:16:24.000Z</time>
      </trkpt>
      <trkpt lat="45.88639" lon="4.48739">
        <ele>421.79998779297</ele>
        <time>2020-03-14T16:16:27.000Z</time>
      </trkpt>
      <trkpt lat="45.88629" lon="4.48747">
        <ele>419.60000610352</ele>
        <time>2020-03-14T16:16:30.000Z</time>
      </trkpt>
      <trkpt lat="45.88623" lon="4.48753">
        <ele>416.60000610352</ele>
        <time>2020-03-14T16:16:34.000Z</time>
      </trkpt>
      <trkpt lat="45.88619" lon="4.48755">
        <ele>416</ele>
        <time>2020-03-14T16:16:37.000Z</time>
      </trkpt>
      <trkpt lat="45.88612" lon="4.4876">
        <ele>415.60000610352</ele>
        <time>2020-03-14T16:16:40.000Z</time>
      </trkpt>
      <trkpt lat="45.88601" lon="4.48769">
        <ele>413.60000610352</ele>
        <time>2020-03-14T16:16:43.000Z</time>
      </trkpt>
      <trkpt lat="45.88592" lon="4.4878">
        <ele>411.39999389648</ele>
        <time>2020-03-14T16:16:46.000Z</time>
      </trkpt>
      <trkpt lat="45.88584" lon="4.48802">
        <ele>408</ele>
        <time>2020-03-14T16:16:49.000Z</time>
      </trkpt>
      <trkpt lat="45.88575" lon="4.48818">
        <ele>407</ele>
        <time>2020-03-14T16:16:52.000Z</time>
      </trkpt>
      <trkpt lat="45.88564" lon="4.48826">
        <ele>406.60000610352</ele>
        <time>2020-03-14T16:16:55.000Z</time>
      </trkpt>
      <trkpt lat="45.88551" lon="4.48832">
        <ele>405.60000610352</ele>
        <time>2020-03-14T16:16:58.000Z</time>
      </trkpt>
      <trkpt lat="45.88544" lon="4.48846">
        <ele>404.60000610352</ele>
        <time>2020-03-14T16:17:01.000Z</time>
      </trkpt>
      <trkpt lat="45.88546" lon="4.48874">
        <ele>403.79998779297</ele>
        <time>2020-03-14T16:17:05.000Z</time>
      </trkpt>
      <trkpt lat="45.88548" lon="4.48893">
        <ele>403.60000610352</ele>
        <time>2020-03-14T16:17:08.000Z</time>
      </trkpt>
      <trkpt lat="45.88549" lon="4.4891">
        <ele>403.79998779297</ele>
        <time>2020-03-14T16:17:11.000Z</time>
      </trkpt>
      <trkpt lat="45.8855" lon="4.48925">
        <ele>404.20001220703</ele>
        <time>2020-03-14T16:17:14.000Z</time>
      </trkpt>
      <trkpt lat="45.88552" lon="4.48934">
        <ele>404.39999389648</ele>
        <time>2020-03-14T16:17:17.000Z</time>
      </trkpt>
      <trkpt lat="45.88554" lon="4.48943">
        <ele>404.20001220703</ele>
        <time>2020-03-14T16:17:20.000Z</time>
      </trkpt>
      <trkpt lat="45.88556" lon="4.48955">
        <ele>404</ele>
        <time>2020-03-14T16:17:23.000Z</time>
      </trkpt>
      <trkpt lat="45.88559" lon="4.48967">
        <ele>404.79998779297</ele>
        <time>2020-03-14T16:17:26.000Z</time>
      </trkpt>
      <trkpt lat="45.88561" lon="4.48978">
        <ele>405.20001220703</ele>
        <time>2020-03-14T16:17:29.000Z</time>
      </trkpt>
      <trkpt lat="45.88558" lon="4.48996">
        <ele>405.20001220703</ele>
        <time>2020-03-14T16:17:33.000Z</time>
      </trkpt>
      <trkpt lat="45.8855" lon="4.49013">
        <ele>405</ele>
        <time>2020-03-14T16:17:36.000Z</time>
      </trkpt>
      <trkpt lat="45.88541" lon="4.49031">
        <ele>404</ele>
        <time>2020-03-14T16:17:39.000Z</time>
      </trkpt>
      <trkpt lat="45.8853" lon="4.49051">
        <ele>403.39999389648</ele>
        <time>2020-03-14T16:17:42.000Z</time>
      </trkpt>
      <trkpt lat="45.88517" lon="4.49068">
        <ele>402.79998779297</ele>
        <time>2020-03-14T16:17:45.000Z</time>
      </trkpt>
      <trkpt lat="45.88504" lon="4.49088">
        <ele>402.20001220703</ele>
        <time>2020-03-14T16:17:48.000Z</time>
      </trkpt>
      <trkpt lat="45.8849" lon="4.4911">
        <ele>401</ele>
        <time>2020-03-14T16:17:51.000Z</time>
      </trkpt>
      <trkpt lat="45.88476" lon="4.49134">
        <ele>400.60000610352</ele>
        <time>2020-03-14T16:17:54.000Z</time>
      </trkpt>
      <trkpt lat="45.88466" lon="4.49159">
        <ele>399.79998779297</ele>
        <time>2020-03-14T16:17:57.000Z</time>
      </trkpt>
      <trkpt lat="45.88457" lon="4.49189">
        <ele>398.60000610352</ele>
        <time>2020-03-14T16:18:00.000Z</time>
      </trkpt>
      <trkpt lat="45.8845" lon="4.49225">
        <ele>397.60000610352</ele>
        <time>2020-03-14T16:18:04.000Z</time>
      </trkpt>
      <trkpt lat="45.88448" lon="4.49248">
        <ele>396</ele>
        <time>2020-03-14T16:18:07.000Z</time>
      </trkpt>
      <trkpt lat="45.88451" lon="4.49268">
        <ele>395.20001220703</ele>
        <time>2020-03-14T16:18:10.000Z</time>
      </trkpt>
      <trkpt lat="45.88452" lon="4.49286">
        <ele>394.39999389648</ele>
        <time>2020-03-14T16:18:13.000Z</time>
      </trkpt>
      <trkpt lat="45.88457" lon="4.49304">
        <ele>393.20001220703</ele>
        <time>2020-03-14T16:18:16.000Z</time>
      </trkpt>
      <trkpt lat="45.88463" lon="4.49322">
        <ele>391.60000610352</ele>
        <time>2020-03-14T16:18:19.000Z</time>
      </trkpt>
      <trkpt lat="45.88467" lon="4.4934">
        <ele>390</ele>
        <time>2020-03-14T16:18:22.000Z</time>
      </trkpt>
      <trkpt lat="45.88469" lon="4.49357">
        <ele>387.60000610352</ele>
        <time>2020-03-14T16:18:25.000Z</time>
      </trkpt>
      <trkpt lat="45.88473" lon="4.49374">
        <ele>385.20001220703</ele>
        <time>2020-03-14T16:18:28.000Z</time>
      </trkpt>
      <trkpt lat="45.88477" lon="4.49389">
        <ele>382.79998779297</ele>
        <time>2020-03-14T16:18:31.000Z</time>
      </trkpt>
      <trkpt lat="45.88484" lon="4.4941">
        <ele>380.20001220703</ele>
        <time>2020-03-14T16:18:35.000Z</time>
      </trkpt>
      <trkpt lat="45.88491" lon="4.49424">
        <ele>378.79998779297</ele>
        <time>2020-03-14T16:18:38.000Z</time>
      </trkpt>
      <trkpt lat="45.88496" lon="4.49436">
        <ele>377.60000610352</ele>
        <time>2020-03-14T16:18:41.000Z</time>
      </trkpt>
      <trkpt lat="45.885" lon="4.49449">
        <ele>376.79998779297</ele>
        <time>2020-03-14T16:18:44.000Z</time>
      </trkpt>
      <trkpt lat="45.88504" lon="4.49462">
        <ele>375.79998779297</ele>
        <time>2020-03-14T16:18:47.000Z</time>
      </trkpt>
      <trkpt lat="45.88508" lon="4.49471">
        <ele>375.39999389648</ele>
        <time>2020-03-14T16:18:50.000Z</time>
      </trkpt>
      <trkpt lat="45.88511" lon="4.4948">
        <ele>374.79998779297</ele>
        <time>2020-03-14T16:18:53.000Z</time>
      </trkpt>
      <trkpt lat="45.88516" lon="4.49494">
        <ele>374.39999389648</ele>
        <time>2020-03-14T16:18:56.000Z</time>
      </trkpt>
      <trkpt lat="45.88524" lon="4.49509">
        <ele>373.39999389648</ele>
        <time>2020-03-14T16:18:59.000Z</time>
      </trkpt>
      <trkpt lat="45.88532" lon="4.4953">
        <ele>372.79998779297</ele>
        <time>2020-03-14T16:19:03.000Z</time>
      </trkpt>
      <trkpt lat="45.8853" lon="4.49551">
        <ele>372.20001220703</ele>
        <time>2020-03-14T16:19:06.000Z</time>
      </trkpt>
      <trkpt lat="45.88527" lon="4.49577">
        <ele>371.20001220703</ele>
        <time>2020-03-14T16:19:09.000Z</time>
      </trkpt>
      <trkpt lat="45.88528" lon="4.49606">
        <ele>370.20001220703</ele>
        <time>2020-03-14T16:19:12.000Z</time>
      </trkpt>
      <trkpt lat="45.8853" lon="4.49635">
        <ele>368.79998779297</ele>
        <time>2020-03-14T16:19:15.000Z</time>
      </trkpt>
      <trkpt lat="45.8853" lon="4.49664">
        <ele>368.39999389648</ele>
        <time>2020-03-14T16:19:18.000Z</time>
      </trkpt>
      <trkpt lat="45.88524" lon="4.49691">
        <ele>368.39999389648</ele>
        <time>2020-03-14T16:19:21.000Z</time>
      </trkpt>
      <trkpt lat="45.88514" lon="4.49714">
        <ele>368.39999389648</ele>
        <time>2020-03-14T16:19:24.000Z</time>
      </trkpt>
      <trkpt lat="45.88503" lon="4.49736">
        <ele>368.39999389648</ele>
        <time>2020-03-14T16:19:27.000Z</time>
      </trkpt>
      <trkpt lat="45.88494" lon="4.49759">
        <ele>368.39999389648</ele>
        <time>2020-03-14T16:19:30.000Z</time>
      </trkpt>
      <trkpt lat="45.88488" lon="4.49794">
        <ele>367.39999389648</ele>
        <time>2020-03-14T16:19:34.000Z</time>
      </trkpt>
      <trkpt lat="45.88486" lon="4.49825">
        <ele>367</ele>
        <time>2020-03-14T16:19:37.000Z</time>
      </trkpt>
      <trkpt lat="45.88488" lon="4.49856">
        <ele>366.60000610352</ele>
        <time>2020-03-14T16:19:40.000Z</time>
      </trkpt>
      <trkpt lat="45.88493" lon="4.49885">
        <ele>366.39999389648</ele>
        <time>2020-03-14T16:19:43.000Z</time>
      </trkpt>
      <trkpt lat="45.88497" lon="4.49915">
        <ele>365.79998779297</ele>
        <time>2020-03-14T16:19:46.000Z</time>
      </trkpt>
      <trkpt lat="45.88503" lon="4.49944">
        <ele>364.79998779297</ele>
        <time>2020-03-14T16:19:49.000Z</time>
      </trkpt>
      <trkpt lat="45.88511" lon="4.49972">
        <ele>364.20001220703</ele>
        <time>2020-03-14T16:19:52.000Z</time>
      </trkpt>
      <trkpt lat="45.88521" lon="4.49999">
        <ele>363.39999389648</ele>
        <time>2020-03-14T16:19:55.000Z</time>
      </trkpt>
      <trkpt lat="45.8853" lon="4.50025">
        <ele>363.20001220703</ele>
        <time>2020-03-14T16:19:58.000Z</time>
      </trkpt>
      <trkpt lat="45.88538" lon="4.50051">
        <ele>363.39999389648</ele>
        <time>2020-03-14T16:20:01.000Z</time>
      </trkpt>
      <trkpt lat="45.88548" lon="4.50084">
        <ele>363.60000610352</ele>
        <time>2020-03-14T16:20:05.000Z</time>
      </trkpt>
      <trkpt lat="45.88559" lon="4.50106">
        <ele>363.60000610352</ele>
        <time>2020-03-14T16:20:08.000Z</time>
      </trkpt>
      <trkpt lat="45.88571" lon="4.50127">
        <ele>363.39999389648</ele>
        <time>2020-03-14T16:20:11.000Z</time>
      </trkpt>
      <trkpt lat="45.88586" lon="4.50144">
        <ele>363</ele>
        <time>2020-03-14T16:20:14.000Z</time>
      </trkpt>
      <trkpt lat="45.88601" lon="4.5016">
        <ele>362.39999389648</ele>
        <time>2020-03-14T16:20:17.000Z</time>
      </trkpt>
      <trkpt lat="45.88615" lon="4.50173">
        <ele>362</ele>
        <time>2020-03-14T16:20:20.000Z</time>
      </trkpt>
      <trkpt lat="45.88625" lon="4.50189">
        <ele>362.60000610352</ele>
        <time>2020-03-14T16:20:23.000Z</time>
      </trkpt>
      <trkpt lat="45.8863" lon="4.50208">
        <ele>363.39999389648</ele>
        <time>2020-03-14T16:20:26.000Z</time>
      </trkpt>
      <trkpt lat="45.88634" lon="4.50229">
        <ele>364</ele>
        <time>2020-03-14T16:20:29.000Z</time>
      </trkpt>
      <trkpt lat="45.88638" lon="4.50247">
        <ele>364.39999389648</ele>
        <time>2020-03-14T16:20:32.000Z</time>
      </trkpt>
      <trkpt lat="45.88641" lon="4.50264">
        <ele>365</ele>
        <time>2020-03-14T16:20:36.000Z</time>
      </trkpt>
      <trkpt lat="45.88642" lon="4.50275">
        <ele>365.79998779297</ele>
        <time>2020-03-14T16:20:39.000Z</time>
      </trkpt>
      <trkpt lat="45.88644" lon="4.50284">
        <ele>366.39999389648</ele>
        <time>2020-03-14T16:20:42.000Z</time>
      </trkpt>
      <trkpt lat="45.88645" lon="4.50293">
        <ele>366.60000610352</ele>
        <time>2020-03-14T16:20:45.000Z</time>
      </trkpt>
      <trkpt lat="45.88647" lon="4.50301">
        <ele>367.39999389648</ele>
        <time>2020-03-14T16:20:48.000Z</time>
      </trkpt>
      <trkpt lat="45.88648" lon="4.50309">
        <ele>368.60000610352</ele>
        <time>2020-03-14T16:20:51.000Z</time>
      </trkpt>
      <trkpt lat="45.8865" lon="4.50318">
        <ele>368.79998779297</ele>
        <time>2020-03-14T16:20:54.000Z</time>
      </trkpt>
      <trkpt lat="45.88651" lon="4.50327">
        <ele>368.79998779297</ele>
        <time>2020-03-14T16:20:57.000Z</time>
      </trkpt>
      <trkpt lat="45.88653" lon="4.50337">
        <ele>368.79998779297</ele>
        <time>2020-03-14T16:21:00.000Z</time>
      </trkpt>
      <trkpt lat="45.88657" lon="4.50349">
        <ele>369.20001220703</ele>
        <time>2020-03-14T16:21:04.000Z</time>
      </trkpt>
      <trkpt lat="45.88661" lon="4.5036">
        <ele>369.20001220703</ele>
        <time>2020-03-14T16:21:07.000Z</time>
      </trkpt>
      <trkpt lat="45.88665" lon="4.5037">
        <ele>369.39999389648</ele>
        <time>2020-03-14T16:21:10.000Z</time>
      </trkpt>
      <trkpt lat="45.8867" lon="4.50382">
        <ele>369.60000610352</ele>
        <time>2020-03-14T16:21:13.000Z</time>
      </trkpt>
      <trkpt lat="45.88675" lon="4.50395">
        <ele>369.79998779297</ele>
        <time>2020-03-14T16:21:16.000Z</time>
      </trkpt>
      <trkpt lat="45.8868" lon="4.50409">
        <ele>370</ele>
        <time>2020-03-14T16:21:19.000Z</time>
      </trkpt>
      <trkpt lat="45.88684" lon="4.50423">
        <ele>370</ele>
        <time>2020-03-14T16:21:22.000Z</time>
      </trkpt>
      <trkpt lat="45.88688" lon="4.5044">
        <ele>369.79998779297</ele>
        <time>2020-03-14T16:21:25.000Z</time>
      </trkpt>
      <trkpt lat="45.88691" lon="4.50456">
        <ele>369.60000610352</ele>
        <time>2020-03-14T16:21:28.000Z</time>
      </trkpt>
      <trkpt lat="45.88694" lon="4.50474">
        <ele>369.39999389648</ele>
        <time>2020-03-14T16:21:31.000Z</time>
      </trkpt>
      <trkpt lat="45.88697" lon="4.505">
        <ele>369.79998779297</ele>
        <time>2020-03-14T16:21:35.000Z</time>
      </trkpt>
      <trkpt lat="45.88699" lon="4.5052">
        <ele>370</ele>
        <time>2020-03-14T16:21:38.000Z</time>
      </trkpt>
      <trkpt lat="45.88702" lon="4.50539">
        <ele>370.20001220703</ele>
        <time>2020-03-14T16:21:41.000Z</time>
      </trkpt>
      <trkpt lat="45.88704" lon="4.50559">
        <ele>370.20001220703</ele>
        <time>2020-03-14T16:21:44.000Z</time>
      </trkpt>
      <trkpt lat="45.88705" lon="4.50581">
        <ele>370</ele>
        <time>2020-03-14T16:21:47.000Z</time>
      </trkpt>
      <trkpt lat="45.88707" lon="4.50604">
        <ele>370</ele>
        <time>2020-03-14T16:21:50.000Z</time>
      </trkpt>
      <trkpt lat="45.88708" lon="4.50627">
        <ele>369.60000610352</ele>
        <time>2020-03-14T16:21:53.000Z</time>
      </trkpt>
      <trkpt lat="45.8871" lon="4.50649">
        <ele>369.39999389648</ele>
        <time>2020-03-14T16:21:56.000Z</time>
      </trkpt>
      <trkpt lat="45.88712" lon="4.5067">
        <ele>369.60000610352</ele>
        <time>2020-03-14T16:21:59.000Z</time>
      </trkpt>
      <trkpt lat="45.88713" lon="4.5069">
        <ele>369.79998779297</ele>
        <time>2020-03-14T16:22:02.000Z</time>
      </trkpt>
      <trkpt lat="45.88717" lon="4.50717">
        <ele>370.20001220703</ele>
        <time>2020-03-14T16:22:06.000Z</time>
      </trkpt>
      <trkpt lat="45.88718" lon="4.50738">
        <ele>370.20001220703</ele>
        <time>2020-03-14T16:22:09.000Z</time>
      </trkpt>
      <trkpt lat="45.88719" lon="4.50756">
        <ele>370.39999389648</ele>
        <time>2020-03-14T16:22:12.000Z</time>
      </trkpt>
      <trkpt lat="45.88721" lon="4.50774">
        <ele>370.39999389648</ele>
        <time>2020-03-14T16:22:15.000Z</time>
      </trkpt>
      <trkpt lat="45.88724" lon="4.5079">
        <ele>370.60000610352</ele>
        <time>2020-03-14T16:22:18.000Z</time>
      </trkpt>
      <trkpt lat="45.88724" lon="4.50805">
        <ele>370.79998779297</ele>
        <time>2020-03-14T16:22:21.000Z</time>
      </trkpt>
      <trkpt lat="45.88723" lon="4.5082">
        <ele>371.39999389648</ele>
        <time>2020-03-14T16:22:24.000Z</time>
      </trkpt>
      <trkpt lat="45.88723" lon="4.50839">
        <ele>371.39999389648</ele>
        <time>2020-03-14T16:22:27.000Z</time>
      </trkpt>
      <trkpt lat="45.88723" lon="4.50858">
        <ele>371.20001220703</ele>
        <time>2020-03-14T16:22:30.000Z</time>
      </trkpt>
      <trkpt lat="45.88722" lon="4.50883">
        <ele>371.20001220703</ele>
        <time>2020-03-14T16:22:34.000Z</time>
      </trkpt>
      <trkpt lat="45.88722" lon="4.50902">
        <ele>371</ele>
        <time>2020-03-14T16:22:37.000Z</time>
      </trkpt>
      <trkpt lat="45.88723" lon="4.50921">
        <ele>370.79998779297</ele>
        <time>2020-03-14T16:22:40.000Z</time>
      </trkpt>
      <trkpt lat="45.88724" lon="4.50944">
        <ele>370.39999389648</ele>
        <time>2020-03-14T16:22:43.000Z</time>
      </trkpt>
      <trkpt lat="45.88726" lon="4.50971">
        <ele>369</ele>
        <time>2020-03-14T16:22:46.000Z</time>
      </trkpt>
      <trkpt lat="45.88721" lon="4.51001">
        <ele>367.20001220703</ele>
        <time>2020-03-14T16:22:49.000Z</time>
      </trkpt>
      <trkpt lat="45.88707" lon="4.51029">
        <ele>366</ele>
        <time>2020-03-14T16:22:52.000Z</time>
      </trkpt>
      <trkpt lat="45.8869" lon="4.51055">
        <ele>364.20001220703</ele>
        <time>2020-03-14T16:22:55.000Z</time>
      </trkpt>
      <trkpt lat="45.88672" lon="4.51081">
        <ele>363.20001220703</ele>
        <time>2020-03-14T16:22:58.000Z</time>
      </trkpt>
      <trkpt lat="45.88657" lon="4.51106">
        <ele>362</ele>
        <time>2020-03-14T16:23:01.000Z</time>
      </trkpt>
      <trkpt lat="45.88884" lon="4.5174">
        <ele>374.1</ele>
        <time>2020-03-14T16:23:04.000Z</time>
      </trkpt>
    </trkseg>
  </trk>
</gpx>